GFSNW_850_thetae_000.txt.gz
Theta_e
312 314 314 314 314 315 319 324 328 316 318 327 325 323 320 316 318 318 319 320 320 321 321 321 321 320 320 317 317 320 320 320 323 322 321 320 319 321 322 325 325 323 325 324
313 314 314 314 313 314 322 323 323 319 323 331 329 319 319 319 319 319 320 320 320 319 321 322 321 320 319 318 317 319 318 322 323 321 322 320 321 320 321 322 321 322 324 323
314 315 315 314 314 314 318 322 327 322 324 323 322 321 321 320 318 318 319 319 319 320 321 321 321 320 319 318 318 316 317 319 321 323 322 321 321 320 320 321 322 322 322 322
315 315 315 315 315 314 320 321 321 319 329 324 322 321 321 321 322 319 318 320 320 320 320 319 319 319 320 319 317 318 319 321 320 320 319 319 318 319 319 320 319 320 319 320
316 316 316 315 315 315 321 322 322 319 319 319 321 317 320 320 320 318 320 319 319 319 320 319 321 320 319 319 319 320 319 319 318 318 318 318 318 318 318 318 318 318 319 320
316 316 316 316 315 315 321 319 315 321 319 320 323 322 319 318 318 319 317 318 319 318 319 319 318 318 318 318 320 320 320 318 315 319 316 315 317 316 317 318 318 318 318 317
316 316 316 316 316 316 319 320 320 318 325 322 320 318 318 318 318 319 319 318 318 318 319 318 317 317 316 316 316 317 318 314 313 317 314 319 317 317 316 317 317 317 316 315
315 315 314 315 315 316 318 318 319 319 313 321 319 319 318 318 317 318 318 317 319 319 318 320 314 318 314 314 316 317 317 315 318 318 319 317 316 316 317 316 316 316 316 316
316 315 315 315 315 314 315 321 317 320 315 319 317 318 318 321 322 321 319 318 317 317 318 316 315 318 317 316 315 316 315 312 321 320 319 318 317 314 314 315 316 316 315 315
316 316 317 317 317 317 315 320 318 319 318 318 318 318 320 318 318 320 318 318 317 316 317 316 315 317 315 316 316 315 318 316 317 317 317 316 315 315 315 318 317 314 315 314
316 316 317 317 316 316 316 318 318 316 318 318 319 319 318 318 318 321 317 317 318 315 315 314 315 315 317 317 315 316 316 316 316 314 317 318 316 317 316 315 316 314 313 312
316 317 317 317 316 316 316 316 317 317 317 318 319 318 318 318 317 317 317 316 317 316 317 314 314 314 314 312 315 313 315 315 316 315 316 315 315 315 315 314 314 313 313 312
315 316 316 317 316 316 316 316 316 316 316 316 315 315 315 316 316 317 317 317 316 316 316 315 309 311 314 314 314 314 314 313 314 314 313 313 313 313 313 314 313 311 311 311
313 314 314 314 314 314 314 316 316 316 315 312 315 314 314 314 315 317 316 316 316 316 315 315 307 308 310 311 312 313 313 312 312 312 313 312 313 313 313 313 312 310 309 306
313 313 313 313 314 314 313 313 313 314 315 311 313 313 313 313 315 315 315 316 315 315 315 311 308 312 311 312 310 311 311 312 313 313 312 313 313 313 312 311 310 309 306 303
312 312 312 312 313 313 313 312 313 313 314 313 305 310 311 312 313 313 314 315 315 315 315 313 313 312 311 308 312 311 312 311 312 312 311 311 312 311 310 309 306 305 303 302
312 313 313 313 314 313 313 312 311 311 311 311 310 308 307 310 311 312 313 313 314 314 314 313 312 311 311 305 312 311 311 311 310 310 311 309 309 309 307 305 304 302 302 302
310 312 313 313 313 311 309 310 311 310 310 309 305 304 305 307 308 309 310 310 311 312 311 310 310 310 310 309 310 310 310 309 310 309 309 308 305 304 303 302 302 301 302 301
309 309 310 312 308 307 306 307 308 308 309 305 300 305 308 306 306 306 305 305 303 306 307 308 308 310 310 310 309 309 309 309 308 307 305 304 302 302 301 301 301 301 301 298
306 307 307 305 304 303 304 304 304 304 302 301 300 303 307 307 304 303 303 303 303 306 306 307 309 309 309 309 308 308 307 304 303 303 302 301 301 301 300 300 300 301 299 296
303 302 301 302 302 302 302 301 300 300 300 299 301 303 307 304 304 303 302 303 304 307 307 310 310 308 307 306 307 305 303 302 302 301 300 300 300 300 300 299 299 299 296 296
301 301 300 300 301 302 302 303 302 302 305 303 303 303 303 304 304 304 304 304 306 305 304 305 306 306 305 305 304 303 301 300 300 299 299 298 298 299 299 297 298 299 297 297
299 299 300 301 300 303 302 303 304 305 303 301 302 302 301 301 300 301 302 303 303 302 305 305 306 305 305 304 301 300 299 298 297 295 296 297 297 297 298 297 295 297 296 295
299 298 299 301 301 300 302 303 302 299 299 300 300 299 301 299 299 300 301 302 303 304 304 305 305 302 302 301 300 299 298 297 296 295 294 296 297 297 297 297 295 296 295 289
298 298 299 300 300 299 298 299 299 298 298 299 300 300 299 300 299 300 301 300 301 302 304 305 302 300 301 299 299 299 298 297 296 295 295 296 296 296 296 296 296 294 290 290
297 296 298 298 298 298 296 296 298 298 299 297 297 299 298 298 299 299 299 300 300 302 306 300 299 299 299 297 296 298 298 297 295 295 296 296 296 295 295 294 293 292 289 290
293 296 295 297 297 297 297 297 297 298 297 298 297 297 297 298 299 298 299 301 302 299 298 298 298 298 298 297 296 297 296 296 296 295 296 295 295 294 293 292 292 290 290 290

GFSNW_850_thetae_003.txt.gz
Theta_e
310 314 314 314 315 318 323 326 325 317 323 326 327 318 318 317 318 318 319 319 320 320 321 320 321 321 320 318 317 320 317 317 314 319 318 318 317 320 320 320 323 316 315 321
310 313 314 314 314 315 321 324 323 320 323 314 313 319 319 318 319 319 320 320 319 319 320 320 320 320 318 317 318 317 317 313 314 317 317 317 319 318 318 316 312 318 319 319
311 313 315 315 314 314 321 323 312 321 323 323 320 319 320 319 318 318 319 319 319 320 320 319 319 319 319 318 318 317 316 317 315 316 318 318 318 318 317 317 309 316 316 318
312 314 315 315 315 314 322 321 320 320 316 319 320 319 320 321 321 319 318 319 319 319 316 316 318 319 320 318 317 317 316 315 317 317 318 318 319 317 317 317 315 316 316 316
313 315 316 315 315 316 321 321 322 321 318 319 318 317 319 319 318 318 319 318 319 318 318 319 320 318 318 318 318 316 318 313 317 317 317 318 316 314 315 315 314 315 315 314
315 316 316 316 315 319 321 319 318 321 319 319 313 315 319 319 318 318 317 318 317 313 319 318 318 318 318 318 317 314 314 310 311 319 315 313 311 312 314 314 313 313 313 312
316 316 316 316 316 316 321 319 320 318 310 317 316 319 318 318 318 318 318 317 312 318 318 317 317 315 314 314 315 315 308 307 306 315 309 319 314 313 313 313 314 313 314 314
316 316 316 316 316 316 318 318 320 318 306 319 319 318 318 317 317 318 318 318 318 317 316 308 309 306 306 308 314 314 314 306 312 317 315 314 314 314 314 312 312 314 314 313
316 316 315 315 315 315 316 317 318 320 317 311 317 317 318 311 312 317 318 319 318 317 313 309 312 306 310 312 313 314 310 307 309 308 311 315 310 312 315 314 314 313 314 314
316 316 316 316 317 317 315 318 318 319 319 318 318 318 314 318 318 312 318 318 317 316 308 310 313 310 312 310 308 307 306 302 307 301 312 310 310 313 315 313 315 314 314 313
315 316 316 317 318 318 318 317 318 317 319 318 318 318 317 318 318 308 317 313 314 309 308 310 309 311 307 309 311 309 308 307 310 308 315 312 313 312 310 311 313 313 313 312
315 316 316 317 317 318 317 317 317 318 317 317 318 317 317 317 318 318 317 316 316 314 305 305 306 310 309 309 314 311 311 309 307 309 309 311 312 312 312 312 312 313 313 311
315 315 316 316 317 317 317 317 317 317 317 316 316 315 314 316 317 317 317 316 316 316 315 311 307 311 307 312 311 308 312 313 310 309 311 312 312 311 311 312 313 312 311 310
315 315 315 316 316 316 317 317 317 317 316 314 315 314 314 314 314 315 316 315 316 316 316 316 305 308 311 309 311 311 311 311 309 310 311 311 311 311 312 312 312 311 309 306
314 314 314 314 314 315 315 315 315 316 316 312 313 314 313 313 313 313 313 314 315 315 315 310 307 310 310 309 307 308 311 311 311 311 311 311 311 311 311 311 307 306 305 303
312 314 313 313 313 314 314 314 314 314 314 315 307 312 313 313 312 312 312 314 316 315 315 314 314 313 312 307 312 311 311 311 312 311 312 311 311 310 308 306 305 303 302 301
312 313 313 313 313 313 313 313 313 313 313 314 311 308 309 310 310 311 312 313 314 314 314 314 313 312 312 304 312 311 311 311 311 310 311 310 309 306 304 302 302 302 302 302
310 312 312 312 313 311 311 312 312 312 312 311 306 305 307 308 309 310 310 311 311 312 312 310 310 311 310 307 310 310 310 310 310 310 309 306 304 302 301 301 301 301 301 302
306 309 311 312 309 307 308 310 310 310 310 308 304 304 307 306 306 307 306 306 303 306 305 307 308 305 309 308 309 309 309 309 307 306 304 303 301 300 300 301 300 300 300 300
308 309 309 308 306 306 307 306 306 307 306 304 301 303 304 306 304 303 303 303 302 304 303 305 304 305 308 308 307 308 308 305 304 304 302 301 301 300 299 300 300 299 298 298
305 305 304 303 303 303 304 303 301 300 300 299 300 302 304 304 303 302 301 301 301 303 299 300 297 301 305 305 306 307 305 302 301 300 298 297 297 298 298 298 298 298 297 296
303 303 302 301 302 302 301 301 301 300 300 300 300 302 304 303 302 302 301 300 299 300 302 299 301 299 303 305 305 302 302 301 299 298 296 296 295 295 296 297 297 298 297 296
301 299 300 301 300 301 300 300 302 300 302 302 302 302 302 301 301 300 300 301 301 301 300 299 297 303 304 303 301 300 300 300 299 297 296 294 294 295 296 297 298 297 296 296
300 299 295 295 297 295 299 299 301 299 301 301 301 300 300 299 298 298 298 295 297 296 296 296 296 301 302 302 301 301 300 298 297 298 296 294 294 295 295 296 296 295 294 294
298 298 294 293 299 298 299 299 298 299 300 300 299 298 299 298 294 293 292 293 298 294 294 293 299 299 300 300 299 298 297 298 298 297 295 294 295 296 295 295 294 294 292 293
298 297 295 298 299 297 296 297 298 299 298 296 298 297 291 291 291 292 292 293 294 293 296 298 298 298 298 297 298 298 297 297 297 296 294 296 296 296 296 294 293 293 292 291
293 296 296 297 297 297 298 297 297 298 296 292 297 291 293 295 290 292 294 292 291 298 297 296 296 296 296 296 296 296 296 296 295 294 294 296 295 296 295 294 293 292 291 291

GFSNW_850_thetae_006.txt.gz
Theta_e
311 312 314 315 315 322 325 326 316 317 323 321 320 314 316 317 317 318 318 318 318 319 319 319 320 320 318 317 318 318 316 312 313 317 315 316 317 318 316 312 319 313 314 319
310 311 314 315 315 318 322 322 321 321 324 310 308 317 317 318 318 317 318 318 318 318 319 318 319 319 318 316 317 317 315 311 312 314 313 314 317 317 316 314 308 314 311 314
310 312 314 315 315 318 322 320 312 319 321 323 316 317 318 318 318 318 319 318 318 317 318 317 317 318 318 317 318 317 315 314 313 313 314 315 317 317 316 314 306 315 316 315
310 312 315 315 315 317 321 321 317 320 311 316 316 318 319 319 319 318 317 318 318 318 315 315 318 318 317 317 317 316 314 313 314 314 315 316 317 317 317 317 314 313 314 313
310 312 315 315 315 317 320 321 322 319 318 320 316 313 317 318 317 318 317 317 317 317 318 317 319 317 316 316 316 316 314 312 313 315 315 316 316 316 315 314 314 313 312 312
311 314 316 316 315 320 318 318 319 319 316 315 310 311 317 317 318 318 317 317 315 312 318 318 318 317 317 317 315 311 313 307 306 315 311 312 315 313 312 312 312 311 311 310
313 315 316 316 315 320 318 319 319 317 307 311 311 318 317 316 317 317 317 316 312 317 318 316 316 315 312 311 312 314 306 304 305 309 310 317 314 311 312 312 311 311 313 313
314 315 316 316 316 316 318 317 319 319 305 313 318 317 317 316 316 317 317 317 317 317 316 305 304 304 304 304 313 313 312 307 311 311 314 312 313 312 313 312 312 312 313 313
315 316 316 316 316 316 316 316 318 319 317 310 318 317 316 309 310 314 317 318 316 317 308 301 302 304 306 311 311 311 307 302 304 309 313 314 309 309 313 313 312 313 313 313
315 315 315 316 316 315 315 317 317 319 318 317 318 317 312 317 316 309 315 317 316 315 306 305 307 306 309 310 305 304 303 307 305 298 308 305 307 310 313 308 310 312 312 312
315 315 316 316 316 317 317 316 317 316 317 317 318 318 317 317 317 306 316 313 312 306 308 307 305 309 305 308 309 307 307 305 308 306 309 312 311 311 310 310 311 310 310 311
315 315 315 316 317 317 317 317 317 318 318 317 317 317 317 317 318 318 317 315 314 314 305 305 299 308 307 303 312 309 312 308 306 306 307 309 310 311 311 311 310 310 311 311
314 314 315 315 316 317 317 317 317 317 317 317 317 316 315 315 316 317 318 316 317 316 315 309 305 309 306 312 311 309 309 310 307 308 310 310 310 311 310 310 311 311 309 306
314 314 314 315 315 316 317 317 317 316 316 315 315 315 314 315 314 315 315 316 316 316 315 314 305 308 310 309 311 310 311 311 310 311 311 310 310 310 310 310 310 306 305 304
314 315 315 315 315 316 316 316 316 316 316 312 314 314 314 314 314 314 314 314 314 315 316 309 307 310 308 307 305 308 311 311 310 311 310 310 310 310 309 308 305 304 301 302
314 314 314 314 314 314 314 314 314 314 315 315 308 313 313 313 312 313 312 313 313 314 315 314 314 313 312 308 310 312 312 311 311 311 311 311 310 309 307 304 303 302 301 300
311 311 312 313 313 313 313 313 313 313 314 313 312 310 310 310 310 312 312 311 312 313 314 313 314 313 312 304 313 311 311 311 311 310 310 309 308 304 302 301 301 300 300 300
310 311 313 313 313 313 312 313 313 311 312 312 306 306 308 309 309 310 310 311 312 313 313 310 311 310 310 308 311 312 311 311 310 309 306 305 302 300 299 298 299 300 300 299
308 311 311 312 309 309 310 310 310 311 312 309 305 305 307 307 308 308 307 307 304 306 304 306 308 303 309 308 309 310 309 308 307 306 303 302 300 297 297 298 299 300 299 298
306 308 309 308 307 308 308 307 307 309 308 306 302 304 304 306 306 304 304 302 301 303 303 304 303 307 308 308 308 308 306 306 304 302 299 297 296 295 295 295 296 297 297 297
306 306 305 304 304 305 305 304 303 302 301 301 300 302 304 304 303 302 302 301 300 302 297 303 297 302 303 304 305 305 304 303 301 298 296 295 295 293 294 294 295 295 296 297
304 304 303 302 303 302 301 300 299 300 299 300 300 302 303 303 302 301 299 299 299 301 298 298 302 296 301 302 301 301 300 300 299 298 298 297 295 294 293 294 295 295 295 295
303 302 301 301 300 302 300 301 301 299 300 300 302 301 302 301 301 299 297 299 299 298 299 300 295 300 301 301 301 300 300 299 298 298 297 297 295 293 294 295 295 294 294 294
299 299 297 298 295 295 295 297 298 300 300 302 301 300 298 298 296 298 298 294 293 297 299 294 294 299 299 299 298 296 297 297 297 297 297 296 294 293 294 295 295 295 294 292
298 297 294 292 297 298 298 299 299 300 301 301 299 298 298 294 291 289 291 291 298 298 293 290 298 297 295 295 295 296 296 295 295 295 296 295 294 293 294 294 294 295 295 292
298 297 292 297 297 296 297 298 298 299 299 297 298 294 290 291 288 289 289 290 292 290 290 297 296 295 295 295 295 295 294 293 294 295 295 294 294 294 295 295 294 295 293 292
293 295 296 297 297 296 295 296 297 298 296 291 294 290 292 291 286 288 291 289 288 297 295 295 295 295 294 293 293 293 294 294 294 293 293 294 294 294 294 294 294 293 292 292

GFSNW_850_thetae_009.txt.gz
Theta_e
311 312 314 315 318 324 326 325 315 321 323 321 314 312 315 316 317 318 317 317 317 318 318 318 319 319 318 316 317 317 315 311 312 316 313 314 316 315 314 316 317 312 309 316
311 311 314 315 316 321 320 319 320 322 323 311 306 315 316 317 317 316 317 317 317 317 318 318 318 318 317 316 316 316 314 310 311 312 311 312 316 315 314 310 307 313 312 313
310 310 313 315 316 321 321 319 311 320 321 318 314 316 317 317 318 317 317 317 317 316 316 314 316 318 317 317 317 316 314 312 312 313 312 313 315 315 315 313 310 313 315 315
310 310 313 315 315 319 320 318 315 318 310 314 316 316 318 317 318 317 317 316 316 316 314 314 318 317 316 316 316 315 312 314 313 312 312 313 315 315 316 316 314 315 314 313
309 310 313 315 315 319 319 320 319 317 318 318 314 311 316 318 316 317 317 316 316 316 317 316 318 317 316 316 315 314 312 310 313 313 313 313 315 314 314 314 314 313 312 311
309 310 313 315 315 318 318 319 320 317 313 311 309 310 316 317 316 316 316 316 313 312 317 318 317 317 317 316 314 311 312 306 306 309 309 308 309 310 312 312 310 311 310 309
310 312 314 316 315 319 317 318 317 316 306 306 309 316 316 315 316 316 316 316 311 316 317 316 315 314 311 309 310 313 305 304 303 304 311 312 311 310 310 310 310 309 309 311
311 313 315 316 315 319 317 318 318 316 304 309 316 316 316 316 316 316 316 317 317 317 316 305 304 303 303 303 311 310 307 306 307 310 311 309 311 310 312 311 310 310 312 311
312 314 315 316 316 316 316 316 317 316 316 310 317 316 316 307 308 312 317 317 316 316 307 301 303 304 306 310 309 308 305 299 303 308 312 313 309 307 310 312 311 311 313 311
314 314 315 315 315 315 316 316 316 317 316 316 317 316 311 315 314 307 313 316 315 314 305 305 301 305 307 309 304 304 302 306 307 305 307 306 306 309 310 311 310 310 310 310
314 315 315 315 315 315 315 316 316 316 316 316 317 317 317 316 316 306 314 312 311 305 306 301 303 297 303 307 307 306 307 306 304 305 308 308 310 311 310 310 310 310 309 310
314 315 315 316 316 317 317 316 317 317 316 316 317 317 317 317 317 317 315 314 313 314 305 304 297 304 304 306 312 307 311 307 306 306 307 308 310 310 310 310 310 309 310 310
313 314 315 315 316 316 317 317 317 317 317 317 317 316 316 317 316 317 317 316 316 315 314 308 304 309 305 311 310 309 310 310 306 308 309 310 310 311 311 310 310 310 306 304
313 314 314 314 315 315 316 317 317 316 316 315 315 314 314 315 314 314 314 316 316 316 315 313 304 307 309 308 311 310 311 311 309 310 311 311 311 310 310 309 310 307 305 302
313 313 314 314 314 314 315 315 316 315 316 312 314 314 314 314 314 314 314 314 314 315 314 308 307 309 308 307 305 307 311 310 310 312 311 310 310 310 309 306 303 302 300 300
313 314 314 314 315 314 314 315 314 314 315 315 307 314 314 314 314 314 314 314 313 314 313 313 313 314 312 307 310 312 312 312 312 311 311 311 310 307 302 302 300 299 300 301
313 313 314 314 314 314 314 313 313 312 314 314 312 310 310 311 312 312 312 312 312 312 313 312 313 312 312 304 312 312 312 311 311 311 310 309 306 304 300 298 299 299 299 299
313 313 313 313 313 313 313 313 313 312 314 313 306 305 309 308 308 309 309 310 310 312 312 310 309 310 311 309 310 311 310 309 309 308 307 307 304 299 297 296 295 296 299 299
310 311 311 311 311 310 310 312 311 312 311 311 306 306 308 307 307 308 307 307 304 306 305 305 307 304 309 308 308 308 307 307 307 304 303 300 297 296 294 293 293 294 295 296
309 310 309 307 307 308 308 308 308 309 307 307 304 305 304 308 307 305 305 304 302 304 303 304 302 305 306 305 303 304 305 305 304 302 298 296 295 297 296 295 293 294 295 295
307 307 305 304 305 306 307 305 305 303 303 302 301 303 303 304 304 303 303 301 300 302 296 302 300 300 300 301 302 302 302 300 297 297 298 298 296 296 295 293 292 294 294 294
305 305 304 304 304 304 303 301 300 300 302 300 300 301 303 303 303 302 299 299 298 299 297 299 299 297 299 299 300 300 299 298 298 298 297 297 297 296 295 293 293 294 294 294
304 304 303 302 301 302 303 302 301 299 299 300 300 301 301 301 301 299 297 298 297 296 297 297 295 299 299 298 296 295 295 297 297 296 294 295 296 296 295 294 293 294 294 293
300 300 299 299 298 299 296 296 296 299 300 301 301 299 299 298 296 297 297 292 293 298 299 294 292 297 294 293 293 294 294 294 293 293 293 294 294 295 294 294 294 294 295 294
298 296 292 294 296 297 298 299 299 300 301 301 299 298 297 294 291 293 292 294 295 297 292 289 296 294 294 295 295 294 293 292 293 293 293 293 292 292 293 293 293 294 294 294
297 296 291 296 296 296 297 298 298 299 300 299 298 291 287 289 287 289 292 290 290 290 289 295 294 295 295 293 292 292 293 293 292 292 292 293 293 293 293 293 294 293 293 293
294 295 295 296 296 296 296 297 297 298 297 294 293 290 291 289 284 287 290 288 288 296 293 295 294 293 292 292 293 293 293 292 292 292 292 293 293 293 293 294 294 293 293 293

GFSNW_850_thetae_012.txt.gz
Theta_e
310 311 314 315 322 323 326 320 312 322 323 318 311 311 314 316 316 317 316 316 316 317 317 317 318 318 316 315 316 316 313 310 311 314 313 313 314 315 312 309 313 310 307 314
310 310 314 315 320 323 322 318 320 321 322 310 304 314 316 316 316 315 316 316 316 315 316 317 317 317 316 316 315 316 313 310 309 309 310 310 315 315 312 308 307 314 315 313
309 310 312 315 316 321 319 318 312 320 318 314 313 314 315 317 317 315 316 316 316 315 314 314 317 317 316 316 316 315 313 310 310 310 310 309 313 314 313 313 314 314 313 314
309 310 311 314 315 320 318 316 316 316 310 313 315 315 316 317 316 316 316 316 316 315 314 314 317 316 315 315 315 314 311 314 311 311 311 311 313 313 313 313 312 315 314 312
308 309 310 314 315 318 319 317 318 316 316 316 313 309 315 318 316 316 316 315 315 315 315 314 317 316 315 315 314 313 310 309 312 311 309 310 311 311 312 312 312 312 313 312
308 309 310 313 315 317 318 319 317 318 310 308 308 309 315 315 315 315 316 315 312 311 315 317 317 316 316 314 314 311 311 305 306 307 308 307 306 308 311 312 310 310 311 309
309 310 311 314 315 316 317 318 317 315 306 303 308 315 315 314 315 314 315 315 310 315 317 316 315 314 308 309 310 312 304 302 303 304 310 309 310 309 310 310 308 308 307 307
309 311 313 315 315 317 317 318 316 315 303 307 315 315 314 315 315 315 315 316 315 316 315 305 304 303 301 303 307 308 306 304 308 313 312 308 311 309 311 311 308 309 309 311
310 312 314 315 316 317 317 317 317 315 315 309 315 315 315 307 307 311 315 316 316 315 306 301 302 304 305 309 308 305 303 298 302 308 311 311 308 307 308 310 310 310 312 310
311 313 314 315 315 316 316 315 315 316 314 315 316 315 311 314 312 306 312 315 315 314 302 301 300 305 305 308 303 301 302 305 306 307 310 308 306 307 309 311 310 310 309 309
312 313 314 315 315 315 316 316 316 316 315 315 316 316 315 315 314 306 313 311 310 305 307 303 304 296 303 306 306 305 306 303 301 303 308 308 307 309 310 310 309 309 309 308
313 314 315 315 315 315 315 315 316 316 315 315 316 317 317 317 316 316 314 313 312 313 304 302 297 300 301 304 309 306 307 307 309 309 306 307 308 309 311 310 310 309 308 308
314 314 315 315 315 316 316 316 317 317 317 317 317 317 316 316 316 317 317 314 315 314 313 307 300 308 301 310 308 304 308 310 307 308 309 309 312 312 310 309 309 308 306 303
313 314 314 315 315 315 316 316 317 317 316 314 315 314 315 315 315 315 316 317 316 315 314 311 302 307 309 307 310 310 310 309 309 308 311 311 311 310 310 309 307 305 302 301
313 313 313 314 314 314 315 315 316 316 316 311 314 313 313 313 314 314 314 315 315 316 313 308 306 309 308 306 305 307 312 310 310 311 311 311 311 310 308 305 303 301 298 299
312 313 313 314 314 314 314 314 313 313 314 314 308 312 313 313 313 313 314 314 314 314 314 311 312 313 311 306 308 311 312 311 311 311 311 310 309 308 306 300 298 299 298 297
312 313 313 313 314 313 313 313 313 313 313 313 311 310 311 311 311 312 313 314 313 312 313 311 312 311 311 304 312 311 310 310 310 309 308 308 306 303 299 298 296 295 294 294
312 313 313 313 314 314 314 313 313 312 314 312 306 306 309 308 308 309 308 310 310 311 311 309 308 308 309 308 308 307 306 306 306 306 306 303 298 297 296 295 295 295 294 293
312 313 313 313 312 312 312 313 313 312 312 311 306 306 308 307 308 308 307 307 304 305 304 305 306 303 308 304 301 303 304 304 304 303 300 297 297 297 296 295 295 293 292 293
310 309 310 307 308 308 310 308 308 308 308 307 305 306 304 307 307 305 306 303 302 303 302 303 302 304 302 300 302 302 303 302 301 298 297 297 297 296 296 295 294 294 293 292
307 307 305 304 305 306 305 303 304 303 303 303 303 304 304 305 304 303 304 302 300 301 296 301 301 301 299 299 299 299 298 298 297 297 296 296 296 296 295 296 296 295 294 293
306 306 302 303 304 304 303 302 300 301 301 300 300 302 303 303 304 304 299 300 298 300 296 298 298 295 299 299 297 295 294 296 296 295 295 293 292 293 295 295 296 296 295 294
304 304 304 302 301 303 303 302 301 300 299 300 300 300 301 301 302 299 298 297 295 295 294 296 294 298 295 293 293 293 293 293 292 291 292 292 293 293 293 292 292 292 293 293
302 302 300 298 299 299 298 298 295 299 299 300 301 299 299 298 297 296 295 293 292 297 293 292 290 295 294 294 294 294 293 292 292 292 293 292 292 292 292 292 293 293 293 293
298 297 295 297 295 297 299 299 300 300 301 300 299 297 297 294 292 294 293 295 295 295 291 286 295 294 295 294 293 292 291 292 293 293 292 292 292 292 292 292 293 293 293 293
297 295 291 295 296 296 297 298 299 300 299 299 298 291 290 291 290 292 293 293 291 288 288 294 294 294 294 292 291 291 293 293 292 292 292 292 292 292 292 292 292 292 292 292
294 294 294 295 294 296 297 297 297 298 299 294 294 291 291 289 287 289 288 285 285 295 293 294 293 292 291 291 291 292 292 293 293 292 292 292 292 292 292 292 291 291 291 291

GFSNW_850_thetae_015.txt.gz
Theta_e
310 312 314 317 319 321 325 318 317 322 323 316 309 312 313 316 316 317 316 315 316 317 316 317 318 318 316 314 315 317 313 313 314 315 313 313 314 315 314 316 315 316 316 316
309 311 314 315 321 324 323 320 320 321 320 313 308 313 315 315 316 314 315 316 316 315 315 317 317 316 315 316 315 316 313 314 314 311 312 312 316 315 312 311 312 317 318 316
309 310 312 314 319 321 318 318 316 319 316 313 313 314 315 316 316 315 315 315 315 315 315 315 317 317 316 316 315 314 313 312 313 314 311 312 314 314 313 315 318 316 316 315
308 310 311 314 315 320 318 317 315 315 312 314 313 314 314 316 316 315 315 316 315 315 314 315 317 316 315 314 314 314 313 316 313 313 313 312 313 314 313 315 315 317 316 315
308 309 310 313 315 318 318 318 317 315 314 314 313 309 315 316 315 315 316 316 315 314 315 313 316 316 314 315 314 313 310 314 312 312 310 310 311 312 312 313 314 314 314 315
308 309 310 312 315 317 318 318 317 318 308 308 310 311 314 315 314 314 315 315 313 311 315 315 315 315 314 313 314 312 312 311 310 312 308 309 312 309 312 312 312 313 313 312
308 309 310 312 314 316 316 317 316 317 309 305 310 314 314 313 314 315 314 314 311 314 316 316 314 311 308 308 309 310 306 308 307 313 309 315 312 309 310 311 311 310 309 309
308 309 311 313 315 316 316 317 315 314 304 308 313 314 313 314 314 314 314 315 314 316 315 309 307 307 304 304 307 307 306 307 310 313 313 311 312 310 311 311 311 309 310 311
308 309 311 314 315 317 317 317 315 314 314 311 315 314 313 309 308 310 314 315 315 314 306 307 309 310 307 311 309 304 304 302 311 310 314 315 312 308 308 310 314 310 310 310
309 310 312 314 315 316 316 316 316 314 313 314 315 314 313 313 311 308 311 314 314 313 305 308 311 313 305 312 306 304 306 306 310 311 311 311 309 307 308 314 314 310 309 309
311 311 312 314 315 315 316 315 315 315 314 314 316 315 314 313 313 310 312 312 311 306 309 309 308 307 308 308 307 307 309 310 308 307 309 311 307 308 312 311 309 309 309 308
311 312 313 314 315 315 315 315 315 315 315 315 316 316 316 316 315 315 314 312 311 312 306 303 302 307 302 306 314 306 312 310 311 310 312 308 307 309 309 309 309 308 308 306
312 313 314 314 315 315 315 315 315 315 315 316 316 316 316 316 316 316 316 313 314 313 313 306 303 309 305 310 307 308 308 307 309 309 311 310 311 311 309 309 307 307 306 304
313 314 314 314 315 315 316 316 316 316 316 314 314 314 314 316 316 316 316 317 315 314 312 309 303 308 308 308 311 311 311 309 309 309 311 310 310 310 310 308 305 303 300 300
312 313 314 314 314 315 315 315 316 316 316 312 314 314 313 313 313 314 314 314 316 315 312 307 307 308 307 305 305 307 311 311 311 313 311 310 310 309 306 304 299 298 297 295
312 313 313 314 314 314 314 314 314 315 315 315 306 311 312 312 312 313 313 313 315 315 314 311 312 313 311 307 309 310 312 311 311 311 310 308 306 304 299 299 297 295 295 294
312 312 313 313 313 314 313 312 312 313 313 313 311 310 311 311 311 312 312 313 313 313 313 311 312 312 311 304 310 310 309 308 307 307 307 306 303 300 297 295 295 296 296 294
312 312 312 313 313 313 313 312 312 312 312 312 306 306 308 308 309 309 309 310 310 310 310 308 308 308 308 308 307 303 303 304 305 304 304 300 297 296 297 297 296 295 294 294
312 312 312 313 312 312 313 312 312 312 312 312 307 307 309 308 307 307 306 307 305 305 304 305 306 304 308 303 301 302 304 303 299 298 297 297 297 296 295 295 295 295 295 294
312 312 310 310 310 310 312 311 311 312 309 308 305 305 306 307 306 304 306 304 303 305 302 302 303 304 300 300 300 299 300 299 298 297 296 295 295 293 292 293 293 295 296 296
308 305 303 304 305 306 306 304 305 303 302 302 303 304 304 305 304 303 304 303 301 303 300 303 303 303 299 297 298 298 297 296 296 295 294 293 292 292 292 292 292 293 293 292
302 303 301 301 301 301 301 301 300 301 303 300 301 302 303 303 304 303 300 302 299 302 296 300 302 298 298 298 296 294 294 294 292 292 291 291 291 292 292 291 291 292 292 292
302 303 300 300 300 303 304 303 302 302 299 300 300 300 302 302 303 300 299 299 298 294 297 299 297 298 296 293 293 293 293 293 291 291 291 292 292 291 291 291 292 292 292 292
302 302 301 299 301 300 299 297 297 298 300 300 301 299 299 298 298 296 298 295 293 298 297 297 294 295 294 294 294 293 292 291 291 291 292 292 292 292 291 291 292 292 292 292
298 298 298 297 296 297 298 299 299 299 300 300 299 297 297 294 295 295 294 296 297 296 296 293 295 294 294 294 293 291 291 291 291 292 292 292 292 292 291 291 291 291 291 291
297 295 293 294 296 295 297 299 299 299 300 299 298 293 295 295 293 294 295 295 294 294 290 295 294 294 293 292 291 290 291 291 292 292 292 292 292 291 291 291 291 291 290 290
295 293 294 295 294 296 297 297 299 299 299 295 293 294 295 290 292 293 292 291 291 294 292 292 292 293 292 291 290 291 291 292 293 292 292 292 292 291 291 291 291 290 290 290

GFSNW_850_thetae_021.txt.gz
Theta_e
313 315 316 319 316 315 316 320 323 317 316 321 323 325 321 319 320 321 322 322 322 323 323 323 323 323 323 319 320 321 319 320 319 318 319 320 320 321 320 320 317 320 321 320
311 314 318 317 321 319 323 321 323 319 321 329 328 322 321 321 321 321 322 323 322 323 323 324 323 322 320 319 320 322 320 322 320 319 320 320 320 320 318 317 317 317 325 320
310 313 316 320 321 324 322 322 328 322 323 323 322 323 322 322 320 321 321 322 322 323 323 323 323 323 320 320 320 316 318 320 318 319 318 317 316 316 316 317 319 320 320 318
309 311 314 320 322 323 320 323 325 323 326 324 323 323 322 322 321 321 321 322 322 322 323 323 323 322 321 319 317 319 320 320 319 318 317 316 316 316 316 316 317 319 318 318
308 310 313 315 320 318 322 321 323 322 324 322 323 319 322 321 321 321 321 322 322 321 322 319 321 320 318 318 319 320 318 320 319 317 316 315 316 315 316 316 317 317 317 317
308 309 310 314 316 318 322 318 321 323 319 323 324 323 322 321 321 320 320 321 320 322 320 320 320 319 318 318 319 319 320 320 318 320 317 317 321 317 316 316 316 316 317 316
308 309 310 312 314 316 320 320 322 324 325 324 323 321 320 321 321 321 320 319 321 319 318 317 317 317 317 317 318 318 320 318 317 320 317 324 318 316 315 315 315 315 315 315
308 309 309 311 314 315 315 317 320 320 324 322 321 321 321 320 320 320 320 319 319 319 319 320 319 316 313 316 315 316 317 319 317 319 319 316 316 315 315 315 315 315 315 315
308 308 310 311 314 315 316 316 315 319 318 324 320 321 321 323 323 322 319 317 318 319 321 320 320 321 316 317 316 314 315 317 320 317 320 319 317 315 313 314 317 315 314 314
308 308 310 311 315 316 316 315 314 319 322 319 320 322 323 321 321 323 320 319 318 319 321 320 324 320 315 316 318 315 314 314 319 317 318 316 315 314 313 316 318 314 313 312
308 309 310 311 314 316 316 315 314 318 320 318 319 319 320 320 320 324 321 320 320 321 319 319 321 319 319 317 315 316 316 318 316 316 315 316 314 313 316 315 314 313 311 309
308 309 310 311 313 315 315 318 315 313 319 321 317 316 318 318 319 319 319 319 320 319 322 319 317 314 315 318 318 315 316 316 317 317 318 315 314 313 314 314 314 311 308 306
309 310 311 312 313 314 315 315 315 315 315 318 319 319 314 315 315 318 320 319 319 319 320 318 316 313 317 316 318 320 316 315 317 316 315 314 314 314 313 311 309 308 306 305
310 311 312 312 313 314 314 316 315 317 316 317 320 316 317 315 315 315 318 319 316 318 317 314 310 316 317 319 318 318 317 315 316 317 315 314 314 311 310 308 307 306 304 303
311 311 312 313 314 314 314 315 315 315 320 318 319 315 315 316 316 316 317 317 318 318 313 310 314 318 318 315 313 317 314 316 318 317 314 312 312 309 308 307 305 303 301 300
311 312 312 313 313 314 316 318 315 316 315 315 321 316 313 314 315 317 318 318 318 318 318 314 316 316 315 315 315 313 313 314 313 314 312 311 309 307 306 305 302 300 300 299
311 311 313 313 314 314 317 316 316 315 315 314 314 316 311 311 314 314 316 315 315 316 316 314 315 315 314 311 314 313 313 313 311 310 309 307 306 306 303 300 300 299 298 297
311 311 311 312 312 314 314 312 312 313 315 313 312 312 310 310 311 311 310 312 311 312 313 310 312 313 312 313 312 312 311 308 305 306 306 306 304 301 301 299 297 296 296 296
311 311 312 312 313 312 313 312 312 312 313 314 309 311 311 309 307 307 308 309 311 308 307 307 309 308 311 312 312 310 307 306 305 304 303 302 300 299 297 296 296 296 295 294
311 311 312 313 312 313 311 312 312 312 312 311 309 312 310 310 306 306 307 306 312 310 308 305 303 306 307 307 307 307 307 304 303 302 302 300 297 296 296 296 295 294 293 293
308 309 309 307 309 312 312 311 309 308 305 305 306 309 308 308 310 308 306 306 306 310 308 309 309 309 308 305 304 303 302 301 300 299 297 296 296 295 295 295 294 294 293 293
306 306 304 305 305 304 307 305 301 303 308 301 302 302 304 305 306 303 301 306 306 310 304 305 306 308 306 303 302 301 300 299 297 296 295 295 295 295 295 294 293 293 292 291
303 303 301 301 299 303 306 307 306 306 300 300 301 301 302 302 303 300 303 306 309 303 303 306 307 305 303 302 301 300 299 296 293 294 294 294 294 292 291 292 291 292 291 291
300 300 302 302 303 304 304 306 306 301 301 301 301 300 301 300 301 301 308 303 303 305 305 306 306 303 302 302 299 298 297 294 292 291 291 291 291 291 292 292 292 292 291 291
300 300 303 302 297 298 298 299 299 299 300 301 302 301 303 301 302 303 302 302 304 304 306 306 303 303 301 298 297 296 294 293 292 292 292 291 291 292 292 292 291 291 291 291
298 298 299 298 299 299 299 299 299 300 300 301 301 301 304 303 304 302 304 305 305 305 303 302 300 298 297 296 296 293 292 291 291 290 291 291 291 292 292 292 291 291 291 291
297 298 297 298 299 300 298 299 299 300 300 302 301 303 303 298 302 302 302 303 303 301 301 299 297 296 295 294 294 293 292 291 291 291 292 291 292 292 292 291 292 292 291 291

GFSNW_850_thetae_024.txt.gz
Theta_e
314 316 316 318 315 314 318 321 322 322 316 320 321 326 323 319 321 322 323 323 322 323 323 323 323 323 324 320 320 321 318 320 325 319 318 319 319 320 320 328 322 325 325 320
313 315 316 319 315 314 319 321 326 316 315 327 333 324 322 321 321 321 322 323 323 324 324 325 323 324 321 320 322 322 320 324 326 321 321 320 318 319 319 319 321 320 322 320
311 314 319 320 316 319 324 325 328 320 321 326 323 324 323 323 322 322 322 323 322 323 324 323 324 323 322 321 319 316 319 321 320 322 319 317 317 317 317 317 323 321 321 318
310 314 319 318 321 322 323 326 325 321 325 325 324 323 323 323 323 322 322 322 322 323 323 323 324 323 322 320 317 319 321 321 320 319 316 316 316 316 316 317 317 318 318 317
309 311 315 320 321 324 319 326 324 323 324 321 324 321 323 323 322 322 321 322 322 323 324 322 323 322 320 321 319 320 319 322 321 319 316 315 315 315 316 316 316 316 317 317
308 310 313 316 319 318 323 322 322 324 323 324 327 325 323 322 322 322 322 322 323 324 322 321 320 320 319 319 320 320 321 324 321 322 318 318 323 320 316 316 316 316 318 317
308 309 310 314 316 319 324 324 323 326 328 326 324 323 322 322 322 321 321 321 323 321 318 318 318 318 318 318 318 319 321 320 319 320 317 321 318 315 316 316 316 315 315 316
308 309 310 311 314 315 316 318 325 323 319 325 323 322 321 322 321 322 322 321 320 319 320 324 318 318 314 316 316 317 319 320 318 323 320 317 316 317 316 315 315 316 317 315
308 309 310 311 313 315 315 317 321 324 322 327 322 321 322 325 325 323 320 320 320 320 323 322 321 324 318 319 317 315 317 320 321 317 318 318 318 316 314 314 317 316 315 314
308 308 309 311 314 315 316 315 316 322 326 322 323 324 325 322 323 325 321 320 320 321 322 316 327 322 316 319 318 316 315 316 321 316 315 317 315 315 314 316 318 315 313 312
308 308 309 311 315 316 316 315 314 321 323 322 322 322 323 322 322 327 321 322 322 325 316 320 324 320 322 320 318 316 315 316 315 315 317 316 315 314 315 316 315 313 311 310
308 308 309 311 313 315 316 318 314 314 322 322 321 320 321 321 321 322 321 320 322 322 322 321 321 314 314 317 322 315 319 320 321 318 318 315 315 315 314 314 312 310 309 308
308 308 309 310 312 314 317 319 314 316 317 320 319 320 317 318 319 321 321 321 319 319 322 318 314 311 318 315 320 318 316 315 321 319 316 315 315 314 312 310 309 308 308 306
309 309 310 310 312 313 315 320 315 320 317 318 321 319 317 315 314 317 321 320 319 321 319 312 309 311 317 320 319 321 319 316 317 318 316 315 314 313 311 310 308 307 305 303
310 310 310 311 312 313 314 314 315 316 322 316 321 318 318 315 316 318 318 319 319 319 315 308 313 318 320 317 316 319 315 315 318 318 316 315 314 311 310 308 307 305 302 301
311 311 311 312 312 313 314 319 314 315 319 314 316 318 316 315 316 319 320 319 319 319 319 314 317 317 318 314 314 313 313 314 314 315 313 313 311 309 308 306 304 301 301 300
311 312 312 312 313 314 318 317 318 315 316 314 313 318 313 313 317 318 318 318 318 318 317 316 315 317 316 312 314 312 312 313 313 312 310 309 308 307 306 302 302 300 298 297
311 311 312 312 313 314 315 314 312 314 316 315 314 313 312 312 314 313 313 313 313 313 314 312 312 314 313 314 313 313 313 313 310 310 310 309 307 304 302 301 298 297 297 296
310 311 311 311 312 312 314 313 312 314 316 316 309 311 311 311 309 310 309 311 310 310 309 308 311 309 312 312 313 313 312 310 308 307 305 304 303 301 299 298 297 297 296 295
311 311 312 313 313 311 311 312 312 313 313 312 310 311 313 310 307 306 307 307 311 310 308 306 305 307 309 311 311 312 310 308 306 305 304 302 300 298 297 297 297 296 295 293
310 310 310 309 311 312 312 311 310 310 309 309 309 311 309 310 308 308 308 307 307 311 309 310 310 309 309 309 308 308 308 305 304 302 300 298 297 297 296 296 296 294 293 292
308 308 307 307 307 305 310 305 303 304 310 303 303 305 308 306 308 307 304 306 305 310 306 307 308 308 309 307 306 304 303 302 299 297 297 296 296 296 295 294 292 291 291 291
305 305 304 303 300 304 306 307 306 305 301 301 301 301 303 304 305 301 301 305 307 304 306 306 308 307 306 305 303 302 301 298 296 295 295 295 293 292 291 291 291 291 291 291
302 300 302 302 304 303 303 303 302 300 302 301 301 300 302 301 301 300 306 303 305 306 306 306 308 305 303 303 302 301 298 296 294 293 292 292 291 290 290 291 291 291 291 291
300 301 303 302 298 298 299 299 299 300 301 301 301 301 302 301 302 301 303 303 306 306 307 304 304 303 303 300 299 297 296 295 294 293 292 291 290 291 291 291 291 292 291 291
300 299 300 298 300 299 299 299 299 300 300 300 301 301 303 303 303 304 305 306 306 306 304 303 301 299 298 298 297 296 294 293 293 292 291 291 291 291 291 291 291 292 291 292
299 298 299 299 300 300 299 299 299 300 300 301 301 304 301 300 303 303 303 305 303 302 301 300 299 297 296 295 294 294 293 292 292 292 292 292 292 291 291 292 292 292 293 293

GFSNW_850_thetae_027.txt.gz
Theta_e
314 315 315 316 313 313 315 322 319 324 316 318 322 322 325 320 320 321 323 323 321 323 321 323 323 323 321 319 320 319 317 318 315 318 318 318 318 319 319 314 319 313 313 315
313 316 316 318 313 313 319 322 323 322 317 316 316 323 322 321 320 321 322 322 323 322 323 323 324 322 320 321 319 319 318 318 316 318 319 319 317 318 318 318 311 314 308 311
313 316 317 318 314 314 319 324 320 320 323 326 325 325 322 323 322 322 322 322 322 323 323 323 324 322 321 319 317 315 319 319 316 316 317 315 315 315 315 316 312 314 313 316
311 315 319 318 315 315 323 324 322 318 316 318 322 323 322 323 322 322 322 321 322 322 322 323 323 322 321 320 316 319 318 319 318 318 315 315 314 314 314 315 314 313 313 316
310 314 319 320 316 316 323 325 326 317 318 316 322 320 322 323 322 321 321 321 321 321 322 322 322 321 319 320 317 319 318 316 316 315 316 314 314 313 315 315 315 315 315 316
310 312 316 319 320 321 321 323 321 326 324 318 321 321 323 323 322 321 322 321 320 317 319 318 318 318 318 319 318 318 319 312 310 313 314 313 312 315 316 315 315 315 314 314
309 310 313 317 318 319 325 322 323 324 316 321 322 323 322 322 321 321 321 321 319 318 317 316 316 316 316 318 316 320 313 313 307 306 307 306 316 314 314 315 314 313 314 313
308 310 311 314 316 320 322 320 325 323 311 324 323 321 321 322 322 321 320 320 320 318 320 312 310 309 305 311 315 315 317 309 305 311 311 311 314 315 314 313 314 315 314 313
308 309 311 312 314 314 314 320 324 321 321 318 323 322 321 319 319 319 320 320 320 321 315 305 308 312 313 315 316 312 314 309 307 304 309 306 312 314 314 314 310 314 313 311
308 309 311 313 314 315 315 316 319 324 323 322 323 322 321 322 322 317 320 319 320 321 305 310 310 312 315 314 313 309 305 310 309 303 305 308 312 314 313 312 310 313 312 311
308 309 310 313 315 315 316 314 321 321 323 321 322 322 323 323 322 314 321 315 317 312 313 309 308 309 310 313 314 311 307 307 308 310 312 309 313 314 311 311 314 312 310 309
308 308 309 311 315 316 317 314 316 318 321 321 321 322 322 322 323 322 319 317 321 319 311 306 309 310 311 309 310 313 312 310 309 309 308 311 314 314 314 314 312 310 310 308
308 308 309 310 313 316 317 315 315 315 315 318 318 318 319 319 322 322 320 321 320 320 320 314 312 309 308 306 309 314 312 314 309 312 314 315 315 314 314 312 311 309 307 306
308 308 309 310 311 313 314 315 318 317 316 317 321 319 316 316 319 321 320 319 320 320 319 311 309 306 314 307 309 308 312 314 314 310 314 314 313 313 312 310 308 306 306 303
309 309 309 310 311 312 313 315 315 318 318 314 320 318 319 316 315 316 318 319 319 320 315 306 306 311 311 312 307 307 316 312 309 307 314 314 313 312 311 309 306 305 303 301
309 310 310 310 311 312 313 314 314 316 319 315 308 317 316 315 316 319 319 319 319 318 317 312 316 318 314 310 310 313 315 314 314 314 314 314 313 310 309 307 305 302 301 299
311 311 311 311 311 313 316 316 317 315 316 314 311 313 313 315 318 319 319 319 319 319 317 316 315 316 316 306 310 311 312 313 313 313 313 310 309 307 306 304 302 299 297 297
311 311 311 312 312 314 315 315 312 315 315 314 307 309 312 314 315 314 314 315 315 314 314 313 313 314 311 310 311 313 313 313 312 311 311 310 308 306 304 301 298 297 297 296
310 311 310 311 311 313 313 313 312 314 315 313 309 304 304 312 310 311 311 312 307 310 309 310 311 305 310 310 312 312 312 312 310 309 308 306 305 302 298 297 297 297 296 296
310 310 311 311 311 312 312 313 312 312 312 312 308 310 307 309 309 307 308 308 305 308 306 307 303 306 309 310 311 311 312 310 308 305 304 302 300 298 297 297 296 296 296 294
310 311 311 312 311 311 311 310 309 310 308 309 310 310 308 308 305 304 307 304 304 308 304 307 307 306 306 308 309 309 309 306 305 304 302 299 297 297 296 296 296 295 291 291
310 310 309 309 310 308 307 305 304 305 307 304 305 306 308 308 309 306 304 305 304 307 306 306 306 303 308 307 306 304 304 302 299 298 298 296 296 296 295 293 291 291 291 291
307 307 306 304 301 304 306 307 304 304 301 302 303 302 305 305 306 303 301 305 306 304 305 304 301 307 306 304 302 301 299 297 297 296 296 295 294 292 291 290 290 291 290 291
304 301 301 302 302 301 300 301 301 300 301 301 302 300 301 301 302 300 304 301 302 305 303 300 303 304 303 303 302 301 298 298 297 295 294 293 292 291 290 290 290 290 291 291
300 301 302 300 298 298 298 298 299 300 301 301 301 300 300 300 301 300 300 302 304 304 305 301 302 301 301 301 300 298 297 296 295 293 292 291 291 291 291 291 291 291 291 291
299 299 298 298 299 298 299 299 299 300 300 300 301 300 302 301 301 302 304 304 304 302 300 300 299 299 300 300 298 296 294 294 293 291 291 291 291 291 291 291 291 291 292 292
299 298 299 299 299 298 299 299 299 300 301 300 301 302 300 299 301 302 301 302 300 301 300 300 300 299 297 296 294 294 294 293 292 291 291 291 291 291 291 291 291 291 292 293

GFSNW_850_thetae_030.txt.gz
Theta_e
314 314 313 313 314 314 316 320 315 321 319 313 317 318 322 320 319 321 321 321 322 320 319 322 322 321 320 320 320 316 316 314 313 317 317 317 317 318 316 313 317 311 311 313
314 315 313 313 313 314 319 320 326 323 317 309 310 317 321 320 319 319 321 321 321 321 321 322 322 320 319 317 318 319 316 315 313 316 316 316 316 317 317 313 308 313 307 310
313 315 316 315 313 314 320 321 316 321 322 322 316 323 320 322 321 321 321 321 321 321 321 321 322 321 320 316 315 316 318 316 314 315 316 313 314 314 315 314 310 312 311 313
313 317 317 317 312 315 322 324 319 316 313 315 321 321 320 322 321 321 321 320 321 320 321 322 321 320 320 319 316 318 315 317 317 316 313 314 313 313 312 313 313 313 312 313
313 317 318 317 313 315 319 324 324 316 314 313 318 318 320 321 321 320 320 320 320 319 320 319 321 319 318 318 316 318 315 314 313 312 314 313 312 311 313 313 314 314 313 315
312 316 319 317 315 315 321 323 323 316 320 313 316 318 319 321 320 321 321 319 316 315 318 317 317 317 318 318 316 317 315 309 307 307 310 310 309 314 315 314 312 313 312 312
311 314 318 319 317 316 322 323 324 323 313 315 315 321 321 320 320 320 320 319 316 318 316 315 316 315 314 315 316 316 311 309 303 303 302 302 310 312 313 314 314 312 312 311
310 312 315 318 319 321 323 322 325 322 307 319 320 320 320 320 320 319 320 319 318 316 315 307 307 307 306 309 313 315 312 304 305 302 308 306 311 314 313 312 314 313 312 310
310 311 313 315 317 321 318 322 324 321 319 316 322 319 320 317 316 315 319 320 319 318 307 302 307 310 307 313 315 310 310 304 303 305 302 302 307 313 313 312 310 313 312 310
310 311 311 313 314 314 314 321 322 321 322 322 322 319 319 320 317 313 318 319 320 317 300 309 303 311 311 313 311 307 304 302 306 296 299 305 307 312 313 311 310 313 312 311
309 310 312 313 314 315 315 317 319 322 321 322 322 323 322 321 319 312 318 314 315 308 305 303 310 302 307 310 311 309 308 307 305 302 300 308 309 312 310 309 313 313 311 310
309 310 311 314 315 316 314 317 320 319 318 321 321 322 322 322 321 320 318 314 316 315 308 306 310 304 308 306 310 310 311 307 308 309 309 308 312 313 313 313 314 311 311 310
308 309 310 312 314 315 315 314 316 316 318 319 319 319 321 322 322 321 318 320 319 318 315 309 304 303 305 308 308 312 310 311 308 309 311 311 313 314 314 314 313 311 309 307
308 309 309 310 312 314 316 314 314 314 314 314 319 319 317 320 322 321 320 319 319 319 317 309 307 303 309 304 305 306 308 313 312 308 312 313 313 313 313 312 311 309 306 305
308 309 309 310 311 312 313 314 315 315 315 313 318 318 318 315 317 320 320 319 319 319 315 305 305 308 307 305 303 306 313 311 308 308 312 313 313 313 312 311 308 307 302 301
309 309 309 310 311 311 312 313 315 316 318 315 306 316 316 315 318 317 318 318 318 318 317 311 313 316 312 309 309 312 314 315 315 314 314 314 314 313 310 308 306 302 301 300
309 309 309 310 311 312 312 313 315 316 315 313 311 311 314 316 318 319 319 319 319 319 317 315 315 315 314 307 309 311 312 312 313 313 314 312 312 310 308 306 302 300 298 297
310 310 310 311 311 314 314 314 315 315 314 313 303 303 312 315 316 315 316 316 316 315 314 314 312 311 307 309 310 313 314 313 312 313 312 312 310 307 305 303 298 297 297 297
311 311 311 311 311 312 314 313 312 314 314 311 306 303 305 312 310 311 312 312 304 309 308 308 309 305 306 309 311 312 312 312 312 311 310 308 306 304 298 298 297 297 297 296
310 310 310 311 311 312 313 313 312 312 313 312 306 307 304 309 308 306 307 308 304 307 304 307 304 307 308 309 309 310 311 313 311 308 306 304 299 298 298 297 297 297 296 295
310 311 310 310 312 311 311 310 307 308 308 309 308 309 307 307 304 304 307 303 303 307 302 305 305 306 305 308 308 308 309 308 306 305 301 299 299 298 299 298 296 295 292 291
311 311 311 311 311 311 305 305 305 304 306 305 306 307 308 308 308 306 305 304 302 306 304 306 306 303 304 303 303 303 302 302 301 300 300 298 298 296 295 293 291 291 290 290
309 308 307 306 303 305 309 310 304 304 302 303 303 303 306 306 307 304 302 305 306 304 305 305 301 305 301 301 300 299 299 299 297 295 295 295 293 292 292 291 290 290 290 290
306 303 301 302 302 301 300 301 301 300 301 301 302 300 302 301 302 300 304 302 301 306 299 297 302 303 301 301 299 298 297 298 297 295 294 293 292 291 290 290 290 290 290 291
300 301 301 298 297 298 298 299 300 300 300 300 301 300 301 300 300 300 300 301 303 303 303 301 299 299 300 296 296 298 296 295 294 293 292 291 291 290 290 291 291 291 291 291
298 298 298 298 299 298 298 299 299 300 300 300 300 300 301 298 300 301 302 303 301 300 300 299 299 299 300 300 299 294 294 294 293 292 291 291 290 291 291 290 291 291 291 292
298 298 298 299 299 298 298 299 299 300 299 299 299 298 298 298 298 299 299 300 299 300 299 300 300 299 297 296 295 294 294 293 291 291 291 291 291 291 291 291 291 291 291 291

GFSNW_850_thetae_033.txt.gz
Theta_e
313 313 313 313 314 314 315 315 313 320 314 312 313 317 320 321 318 320 320 320 320 318 318 321 320 320 319 319 319 315 315 312 313 316 314 315 315 317 313 309 314 309 309 312
313 314 313 313 314 314 318 319 325 323 315 308 309 314 319 319 318 318 320 320 320 319 320 321 320 319 318 316 317 317 315 313 312 315 315 314 316 316 313 310 308 312 307 310
314 314 313 313 314 314 319 321 316 322 321 314 313 319 321 321 320 320 320 319 319 319 320 319 320 320 318 315 314 317 316 314 312 313 314 313 313 313 314 312 310 312 309 312
314 315 314 313 313 315 321 322 316 318 314 317 318 318 319 320 320 320 319 319 320 319 320 321 320 320 318 316 316 316 313 314 316 313 311 313 312 312 312 313 312 312 311 311
314 316 315 314 313 315 322 324 319 314 312 316 318 317 320 319 320 319 320 318 319 319 318 318 319 318 316 314 315 315 313 312 312 312 312 311 312 310 309 309 310 312 312 314
314 317 317 316 313 315 320 322 324 316 313 312 313 316 318 319 319 320 319 318 315 314 317 317 317 316 316 315 315 315 312 308 306 305 308 306 305 308 312 313 312 311 313 311
315 318 318 315 313 314 318 323 324 320 312 310 313 318 319 319 318 319 319 318 315 315 315 316 316 315 314 315 313 314 309 306 300 302 302 302 307 309 311 312 313 312 311 309
315 317 318 315 313 314 318 323 325 320 306 315 318 319 318 319 319 318 318 318 317 314 312 305 307 305 306 308 311 311 309 303 304 302 305 305 309 312 313 312 311 311 310 308
315 316 318 317 314 315 321 322 323 319 319 317 320 318 318 315 314 314 319 316 315 317 302 302 305 306 306 312 314 310 307 301 302 304 300 301 305 311 312 311 311 312 310 308
314 315 317 318 318 320 320 323 321 320 321 321 320 317 317 318 315 312 318 319 318 314 299 300 304 309 308 312 310 307 305 301 303 295 299 304 305 311 312 312 307 312 312 311
313 315 316 316 318 319 316 321 320 320 321 321 322 321 320 319 318 312 317 313 315 305 304 302 304 299 306 308 310 309 308 306 306 300 301 309 307 310 310 309 310 313 313 312
312 314 315 316 315 315 316 318 320 319 320 321 321 321 321 320 319 319 317 315 314 313 304 301 304 301 307 304 308 308 308 306 307 308 308 308 310 311 313 312 312 313 313 312
311 313 314 315 315 315 315 318 318 317 320 319 320 320 321 322 320 318 317 317 316 315 313 308 302 303 302 306 306 310 309 308 305 308 309 309 311 311 312 312 313 313 312 311
309 310 312 313 314 314 314 315 315 314 315 315 318 317 319 321 322 320 319 319 318 316 314 308 301 299 306 302 304 306 308 309 309 306 308 313 313 312 313 313 313 312 310 308
309 309 310 311 312 314 314 314 313 313 312 312 318 317 316 317 319 321 320 319 319 317 314 304 305 305 304 303 303 305 310 309 307 308 311 313 312 313 314 313 311 309 307 305
309 309 310 310 311 312 313 312 315 315 314 314 307 315 315 316 317 318 320 319 319 318 317 311 311 312 310 306 310 311 313 313 313 313 314 313 313 313 312 311 309 307 306 302
309 309 309 310 311 311 310 311 315 315 314 312 310 309 314 316 319 318 318 318 318 318 316 313 312 313 312 304 307 311 312 312 312 312 312 312 313 312 310 309 307 304 301 299
309 309 309 310 311 312 313 315 315 315 312 311 302 301 311 315 316 316 316 317 317 314 312 311 310 309 306 309 309 312 312 312 312 312 312 312 312 310 308 306 300 299 298 297
310 310 310 311 312 313 313 313 314 315 312 310 304 303 305 312 311 311 312 312 306 308 306 308 308 303 308 309 310 311 311 311 311 311 310 311 309 303 301 301 299 298 296 296
311 311 310 310 311 312 312 312 312 312 312 312 303 305 304 308 307 306 306 307 303 303 303 307 304 306 307 306 307 307 308 310 311 309 304 302 301 299 297 299 297 296 297 295
310 310 309 311 312 311 311 309 306 307 308 308 305 306 306 306 305 302 305 301 302 306 300 306 302 305 303 301 303 304 304 308 307 305 300 298 298 299 298 297 298 296 292 291
310 310 310 311 311 310 305 304 304 304 305 305 306 307 307 307 307 303 304 304 302 306 303 305 306 301 300 299 300 300 300 301 300 300 299 300 298 296 295 292 292 291 290 290
311 311 310 307 305 307 309 309 305 304 302 303 304 303 305 306 307 303 302 306 305 303 305 306 303 299 299 301 301 300 300 300 300 297 294 293 292 293 292 291 290 290 290 290
307 305 303 303 302 301 301 301 301 300 301 302 303 301 302 302 302 300 305 302 301 306 302 297 301 300 299 296 295 294 294 294 293 293 293 292 291 291 290 290 290 291 291 291
302 301 301 299 298 297 298 299 300 300 300 301 301 301 301 300 301 300 299 300 300 300 299 300 297 298 297 296 297 294 294 293 293 292 291 291 290 290 290 290 290 291 291 290
298 298 298 297 298 298 298 299 299 300 300 300 301 300 300 299 300 300 301 301 298 294 297 297 297 299 298 299 298 294 294 294 293 291 291 290 291 291 290 290 290 291 291 290
298 298 299 298 299 298 298 299 299 299 300 299 299 294 297 298 298 299 299 298 298 297 298 299 299 298 298 297 294 295 295 293 292 291 290 291 291 291 291 291 291 291 291 291

GFSNW_850_thetae_036.txt.gz
Theta_e
312 312 312 313 313 315 317 320 313 320 316 312 311 315 318 321 317 319 319 318 317 316 317 320 319 319 318 317 318 315 314 311 313 316 314 314 314 315 311 307 312 308 309 311
312 312 313 313 313 316 319 317 324 322 317 310 309 313 318 319 317 318 319 320 319 318 319 319 319 319 317 316 316 314 313 312 313 314 312 313 316 315 311 308 307 311 307 308
312 312 313 313 313 316 319 319 317 323 320 310 311 315 318 319 319 319 318 318 318 318 320 317 318 319 317 314 314 316 313 312 312 314 312 312 312 314 312 311 309 310 309 310
312 313 313 313 313 314 320 319 316 319 315 316 311 313 316 319 319 319 318 318 318 318 320 319 319 319 317 314 315 315 311 314 314 311 311 311 311 311 312 312 310 311 310 309
313 314 313 313 313 315 321 321 316 313 312 318 315 314 318 318 319 319 319 318 318 318 317 317 318 317 315 312 314 314 311 312 311 313 310 310 311 309 308 309 309 309 310 310
313 314 313 313 313 315 320 322 318 317 310 312 313 314 317 318 318 319 318 317 315 316 317 317 316 315 314 313 314 313 310 307 307 308 306 304 305 307 308 309 309 308 311 309
314 315 313 312 313 315 319 322 321 317 308 308 315 316 317 317 317 318 317 316 314 314 316 316 316 314 314 314 312 311 307 305 299 301 300 301 306 308 308 309 310 308 310 309
316 315 313 313 313 315 319 322 323 318 304 309 314 317 316 317 318 317 317 317 315 314 311 306 309 305 307 308 309 306 306 302 301 301 303 304 308 309 311 311 310 310 309 308
317 316 316 314 313 314 318 319 323 319 313 313 317 317 317 314 313 314 317 314 313 315 301 302 306 309 310 311 314 308 305 301 303 299 300 300 305 309 311 310 310 309 310 307
317 318 317 315 312 313 316 321 322 320 321 320 318 316 316 316 314 311 316 316 316 313 298 299 303 306 306 310 309 308 306 302 301 293 298 303 303 309 311 312 308 310 311 310
317 318 316 314 313 313 316 320 322 320 321 320 320 319 318 317 317 311 316 313 315 304 305 302 302 300 305 308 308 309 309 308 309 300 298 308 306 310 310 309 309 311 312 312
316 318 318 316 315 317 319 319 321 321 321 319 320 320 320 319 318 318 316 316 314 312 303 297 299 301 306 303 307 307 308 306 305 306 307 307 308 309 312 311 311 312 312 312
316 318 318 317 317 317 317 320 319 319 320 318 320 320 320 319 318 318 317 314 315 313 311 304 299 302 300 304 305 308 307 306 304 307 308 307 310 310 310 311 312 311 312 313
314 316 317 315 316 318 319 318 317 318 318 315 317 318 320 321 320 318 317 318 315 314 312 306 300 300 304 301 303 303 307 307 306 305 307 309 311 312 312 311 311 312 312 312
312 314 317 317 315 316 316 315 313 314 312 311 317 316 317 319 320 321 320 319 317 315 313 304 304 303 303 303 302 305 308 307 306 306 309 310 311 312 313 313 313 312 312 310
310 312 314 314 314 314 313 313 314 312 312 314 308 314 316 318 319 319 319 318 318 317 316 310 309 308 308 307 310 310 311 311 311 310 312 313 313 313 313 312 311 310 308 306
310 311 312 312 312 312 310 311 315 314 312 311 308 308 314 317 318 318 318 318 317 317 313 308 307 310 310 303 307 309 311 312 312 312 311 311 312 312 312 310 308 305 300 299
309 309 309 310 310 310 313 316 315 313 311 310 302 302 312 314 316 315 316 317 315 312 310 308 306 307 306 307 308 309 310 310 311 311 310 310 310 309 307 306 302 298 299 299
309 309 309 309 310 311 314 314 314 313 311 309 301 303 304 311 309 309 311 311 306 308 305 308 307 303 307 304 302 305 307 307 309 309 309 308 306 300 298 298 300 299 295 295
310 309 310 310 311 312 312 312 312 312 312 311 301 304 304 307 307 306 304 304 302 301 301 307 304 305 302 299 300 301 304 307 308 306 299 299 298 299 299 298 297 297 297 298
310 310 311 312 312 311 311 309 306 307 303 305 304 305 305 306 305 302 302 301 302 306 300 305 304 305 300 299 300 301 302 303 303 301 298 298 299 299 298 298 297 295 293 291
311 311 311 311 310 309 304 303 303 302 301 304 306 305 306 305 306 303 303 303 302 305 302 305 305 299 298 300 300 300 300 300 300 299 299 297 295 294 294 294 292 291 290 290
310 311 309 309 305 306 306 309 306 305 302 303 304 302 305 306 305 303 303 305 305 303 305 306 302 298 299 299 299 298 297 296 296 294 294 295 294 293 291 291 290 290 290 290
309 307 306 303 304 301 301 302 302 300 301 303 305 302 303 303 302 301 306 302 302 306 304 299 300 299 296 296 296 295 294 293 293 292 292 291 291 290 290 290 290 290 290 290
303 302 301 298 297 298 299 299 300 300 301 303 303 301 302 300 301 299 299 299 298 297 296 299 297 296 293 294 293 293 293 293 292 292 291 290 290 290 290 290 290 291 291 290
299 298 298 298 298 298 298 299 299 300 300 301 301 300 299 299 297 297 297 298 294 294 297 298 297 297 297 297 296 294 294 294 292 291 291 291 291 291 291 291 291 291 291 291
298 298 298 298 299 298 298 299 299 300 300 299 298 296 296 296 295 297 296 294 296 298 298 298 297 298 299 299 296 295 294 293 293 292 292 292 292 292 292 292 291 291 291 291

GFSNW_850_thetae_039.txt.gz
Theta_e
313 310 310 312 312 313 312 315 314 322 321 312 309 314 314 321 318 317 318 316 316 317 317 319 319 320 318 317 317 318 314 315 318 317 314 314 315 316 315 316 314 313 315 317
314 309 311 312 312 313 313 318 320 322 320 313 311 312 317 318 317 317 318 319 317 317 319 320 318 318 316 316 315 317 314 315 318 317 315 314 316 315 312 310 312 315 322 315
314 309 312 312 313 313 317 318 318 320 320 311 312 315 316 319 318 318 317 317 317 319 319 318 319 319 316 314 314 314 313 313 317 320 316 314 314 316 312 315 317 314 315 314
310 311 311 312 313 313 319 318 317 319 316 313 311 312 316 318 319 318 317 318 318 319 320 319 319 318 316 314 315 314 314 316 314 312 311 311 311 312 314 314 313 317 313 313
309 311 311 313 312 315 319 317 315 313 312 313 312 314 317 318 318 318 318 319 317 317 319 318 320 318 315 313 314 314 311 316 311 313 311 310 312 311 310 312 312 312 311 313
311 311 312 313 312 315 319 320 317 315 308 312 312 313 316 317 318 318 316 317 316 317 316 316 314 314 313 313 315 313 311 312 312 314 307 306 311 311 312 310 310 313 314 314
310 312 313 313 312 315 318 320 317 313 308 311 312 314 317 317 317 319 316 315 315 314 315 315 315 313 312 311 309 309 309 307 304 309 304 309 310 309 309 310 310 310 311 311
311 312 313 312 313 315 319 319 318 316 305 309 313 315 316 316 317 317 317 316 314 314 311 312 313 311 312 310 309 307 306 306 306 312 309 307 308 307 311 312 313 310 311 310
312 313 314 312 313 316 319 322 322 318 310 310 315 316 316 315 314 315 315 312 312 313 304 308 313 316 314 312 314 308 306 304 312 306 309 309 308 307 310 310 316 310 311 309
314 315 314 312 313 318 319 320 322 319 317 315 317 316 317 316 314 313 313 312 312 311 305 309 312 313 307 312 311 311 310 308 312 302 311 309 306 307 310 313 313 308 311 310
316 316 314 312 313 317 317 320 321 320 320 319 318 317 317 316 316 315 314 314 314 307 311 312 309 310 310 310 309 311 313 312 311 303 309 313 306 310 314 313 309 310 311 311
317 317 315 314 313 314 316 318 321 320 320 318 319 318 317 317 317 317 314 315 313 312 309 304 303 308 306 307 314 307 312 311 312 310 313 307 307 310 311 311 310 310 311 311
317 318 316 315 313 314 316 319 320 319 319 317 319 319 319 317 318 318 316 313 315 313 311 304 304 308 305 311 310 309 308 305 309 309 309 307 308 310 310 310 310 311 311 312
318 317 314 313 313 317 318 319 320 320 320 314 316 318 320 319 318 317 318 318 316 313 311 306 304 308 303 306 307 309 308 307 308 308 308 309 309 310 311 311 312 311 311 311
318 318 318 318 317 317 317 317 318 318 314 312 315 318 318 320 319 319 318 317 315 313 311 305 308 302 305 303 304 307 307 309 310 312 308 308 309 312 312 312 312 311 310 310
317 317 317 317 317 315 315 314 314 313 318 318 310 314 317 317 317 318 316 316 316 316 314 304 306 306 307 308 310 308 309 310 310 309 310 310 311 311 311 311 310 309 308 306
316 317 316 316 315 314 312 312 313 312 311 312 308 308 315 317 318 318 317 317 317 316 309 305 307 307 307 305 310 306 307 308 310 310 311 310 310 309 309 308 304 303 299 298
313 314 313 313 312 312 314 313 312 311 310 310 304 303 311 314 314 311 314 316 314 310 308 307 306 307 307 310 304 304 305 307 308 308 309 308 304 303 300 299 299 299 299 297
310 310 309 310 310 312 314 313 312 310 310 308 303 305 308 308 308 308 309 310 305 307 306 307 308 305 307 300 299 300 303 304 304 303 302 301 301 298 298 299 299 298 297 296
310 309 309 311 312 312 312 310 311 311 311 310 300 302 304 307 307 304 305 304 304 307 304 306 305 304 298 299 299 300 302 306 303 301 298 299 298 299 299 297 296 296 295 295
310 311 311 311 311 310 311 308 306 306 303 304 304 304 304 305 306 303 302 302 303 306 304 307 306 305 299 299 299 300 300 301 301 300 299 299 298 298 296 295 294 294 293 292
311 311 311 310 310 309 305 304 302 302 304 303 305 304 305 304 305 302 303 303 302 306 302 305 306 299 299 299 299 299 299 299 299 298 298 297 296 295 294 293 291 290 290 290
312 311 310 308 305 306 303 306 306 305 302 303 304 302 305 304 305 302 304 306 306 302 306 307 302 298 299 299 297 296 296 295 295 294 294 293 292 291 291 290 290 290 290 290
310 307 305 300 305 303 302 303 303 300 302 304 304 302 303 303 303 301 307 302 303 307 307 302 300 298 297 297 296 295 293 292 292 292 291 291 290 290 290 290 290 290 290 290
304 303 301 299 297 298 298 299 300 300 302 304 304 302 303 301 302 300 301 301 301 300 300 299 297 296 295 294 293 293 292 292 291 291 291 291 291 291 291 291 291 291 291 291
299 298 298 298 298 298 299 299 299 300 301 302 302 300 302 300 299 300 300 301 299 298 298 295 295 294 296 295 294 293 295 293 292 292 291 291 291 291 291 292 292 291 291 290
298 298 298 298 299 298 299 299 300 300 300 299 298 298 298 296 297 298 298 298 296 297 297 297 297 297 297 296 295 295 293 293 293 292 291 292 292 292 290 289 288 287 285 285

GFSNW_850_thetae_042.txt.gz
Theta_e
302 306 316 315 311 311 312 315 317 316 314 319 322 322 319 319 321 321 319 319 319 319 321 321 319 321 321 319 320 322 320 323 324 322 318 318 320 321 320 319 318 320 321 317
302 308 311 314 310 311 312 316 320 322 317 324 322 318 318 321 319 321 321 321 321 321 322 323 322 323 318 318 320 322 320 322 324 322 320 319 320 320 319 317 319 319 325 316
302 306 308 314 309 312 314 316 323 321 318 319 320 319 318 320 320 321 320 322 322 323 323 322 324 323 319 317 318 313 316 321 322 323 321 321 320 319 318 318 319 317 318 315
302 303 307 313 309 312 315 318 319 320 324 321 318 319 319 319 322 320 320 322 323 323 324 323 324 322 318 318 316 318 320 322 319 317 316 316 317 318 319 318 318 319 316 315
301 305 307 312 310 312 315 318 320 318 321 318 317 316 319 319 321 322 322 323 323 323 324 323 325 323 321 322 319 321 318 321 318 319 316 315 316 316 316 318 318 318 317 317
304 305 307 311 311 312 316 318 317 318 315 318 317 318 319 319 322 320 319 323 323 324 322 321 321 319 318 319 322 321 320 320 319 318 313 314 319 317 317 316 317 317 318 317
305 306 311 310 311 312 319 318 316 318 318 318 316 317 319 321 322 323 319 320 323 317 316 317 317 317 316 316 315 315 317 318 316 319 311 324 314 312 313 316 317 316 315 315
307 311 310 310 312 313 318 319 315 314 320 317 316 317 321 320 320 321 320 318 316 315 316 321 321 321 321 318 314 314 313 315 315 324 315 314 313 311 311 313 314 315 315 315
312 310 310 311 313 315 318 320 318 314 318 317 315 319 321 323 323 322 316 313 313 312 317 322 326 325 322 320 319 313 312 313 319 315 328 329 314 313 313 314 316 314 315 315
309 310 310 312 312 315 317 320 319 316 320 315 318 319 321 321 322 323 316 314 314 312 321 330 326 324 315 319 318 317 319 317 323 318 324 317 312 310 313 315 314 313 314 315
309 310 312 313 312 314 318 319 320 319 320 318 318 317 318 318 321 325 317 318 317 318 325 327 321 325 316 316 315 317 319 321 321 315 323 322 310 313 317 316 315 312 314 314
311 313 314 313 313 317 318 319 319 320 319 318 318 317 317 318 319 319 316 322 319 320 323 320 317 318 312 319 322 313 318 318 319 317 317 313 311 314 314 313 313 313 313 313
313 314 314 312 315 318 318 319 319 320 318 318 320 319 317 317 317 317 319 316 318 315 316 316 317 319 316 319 319 317 314 311 315 314 314 313 312 312 312 312 312 312 312 312
315 315 313 312 316 317 317 318 318 320 319 317 318 317 318 318 317 317 317 318 316 314 312 316 313 320 311 317 315 316 314 312 314 314 313 312 311 311 312 313 313 312 312 311
316 315 314 313 314 316 317 318 319 319 317 316 318 316 316 318 318 318 317 316 315 313 316 314 320 311 313 309 311 315 311 314 315 316 311 312 313 312 311 312 312 311 308 306
317 316 315 314 314 317 318 316 316 315 318 318 317 315 315 314 314 314 314 314 314 315 315 309 310 308 314 315 318 311 311 310 311 313 312 312 311 307 308 306 305 303 302 301
316 315 314 315 316 316 316 316 315 315 316 316 313 316 316 317 317 317 316 317 316 315 310 308 311 310 312 312 319 308 307 307 309 310 310 311 304 303 302 302 300 299 297 298
317 317 317 317 316 313 313 312 312 311 310 311 313 313 315 314 312 311 313 314 313 309 308 308 308 308 310 315 305 304 305 306 304 303 304 303 301 300 298 297 298 298 297 297
313 313 313 314 314 313 312 311 310 310 309 311 307 316 315 309 308 309 310 309 310 308 311 309 311 309 312 303 301 302 301 302 302 302 301 300 299 297 298 298 298 298 297 296
311 311 310 311 312 312 311 310 310 310 310 308 304 305 308 308 308 306 308 306 310 311 309 307 309 304 300 299 300 300 301 303 301 299 298 298 298 298 298 298 297 297 297 296
309 310 311 311 310 310 310 308 310 309 309 305 304 307 307 305 309 307 304 306 308 312 309 311 310 306 300 299 299 300 300 300 300 300 299 299 298 297 297 296 295 293 292 291
311 311 310 310 310 309 308 306 306 308 308 303 306 305 305 304 304 306 305 307 306 310 306 311 309 302 300 299 299 299 300 299 299 298 298 297 297 296 294 292 291 290 290 290
312 311 310 310 307 312 316 310 309 307 302 303 304 305 305 304 305 304 306 308 308 306 308 308 304 300 299 299 298 298 298 297 297 295 294 292 291 291 290 290 290 290 291 291
310 308 307 309 310 306 305 306 305 300 302 304 304 302 305 303 306 304 310 303 305 309 309 307 300 298 298 298 297 295 294 293 292 291 291 291 290 290 290 290 290 290 290 290
304 303 304 302 297 298 298 300 300 301 302 304 304 304 304 303 304 303 305 306 307 306 306 302 298 298 297 297 294 293 292 292 291 291 291 291 291 291 290 291 291 291 291 289
299 298 300 298 300 299 299 299 299 301 302 304 304 303 307 304 305 306 308 308 308 304 302 298 297 296 296 294 293 293 294 293 292 292 291 291 291 292 291 290 288 286 285 284
298 298 298 299 299 298 299 299 299 301 301 302 302 306 304 301 304 304 303 305 302 299 296 296 296 295 295 295 293 295 293 292 292 292 292 292 291 289 287 287 285 284 283 283

GFSNW_850_thetae_045.txt.gz
Theta_e
301 302 303 306 313 316 311 314 319 319 315 315 320 324 322 320 320 323 321 320 319 320 320 321 320 319 321 322 322 322 322 322 322 323 322 322 322 322 322 322 321 321 324 319
300 300 302 304 312 315 310 316 319 321 316 319 326 322 323 321 319 322 322 320 320 320 321 321 321 320 322 321 323 322 323 321 321 323 322 322 322 321 321 321 321 321 328 320
299 300 302 304 310 314 311 317 323 319 321 316 323 323 323 321 319 322 321 320 320 321 320 321 322 322 322 321 322 317 319 320 321 323 322 323 324 322 322 321 323 320 319 319
299 300 302 307 309 314 312 316 320 319 323 322 323 323 322 320 320 321 322 322 322 322 321 322 323 324 323 321 318 319 323 323 322 321 321 320 321 320 320 321 321 322 320 317
298 300 302 308 311 312 311 319 319 318 318 318 323 321 322 320 319 322 323 322 321 322 323 324 323 325 324 324 322 323 322 323 322 322 321 320 320 320 319 319 319 318 318 318
298 300 303 305 310 310 311 317 321 319 321 323 324 324 322 319 320 324 323 322 321 324 324 325 324 323 323 324 325 325 324 324 322 322 318 318 320 320 319 319 319 319 320 319
298 301 302 302 307 310 313 318 320 321 325 325 323 321 320 320 321 324 323 323 324 323 321 321 321 321 320 320 321 323 324 324 322 321 315 324 317 315 315 317 318 318 318 317
299 303 303 303 304 309 313 318 321 320 327 322 320 320 320 319 321 324 324 322 322 321 322 324 323 323 323 320 318 318 319 320 320 325 318 317 316 314 314 314 315 315 316 315
301 303 302 303 307 310 313 320 323 321 324 324 317 318 318 322 324 325 320 320 319 319 324 326 325 324 321 323 322 316 316 318 320 318 325 326 318 315 315 315 316 314 314 315
302 304 304 304 310 310 310 315 322 321 319 317 318 319 321 319 322 325 320 319 319 319 328 329 328 325 321 323 324 320 322 321 325 322 325 322 317 314 314 317 318 314 315 315
304 305 308 311 310 310 310 315 320 321 321 320 318 318 318 321 321 326 321 321 321 322 327 332 327 328 322 321 320 321 322 325 323 324 322 324 313 315 316 318 314 315 315 315
306 308 311 310 310 311 311 314 320 323 323 321 321 321 319 321 322 322 320 322 322 323 325 327 328 324 318 325 323 318 321 321 322 320 320 316 314 314 315 314 314 314 314 315
310 310 310 310 310 312 314 318 320 322 321 320 321 321 317 319 322 322 322 324 323 323 323 324 326 328 324 323 324 321 318 316 318 316 315 315 314 314 314 314 315 315 314 314
309 309 310 311 312 313 314 319 320 323 322 322 320 318 318 317 317 319 322 322 320 320 321 323 317 324 319 324 321 320 317 316 316 317 315 314 314 315 315 314 314 315 314 313
310 311 312 313 313 314 318 318 318 319 322 320 320 318 317 318 318 318 317 319 319 320 321 318 324 318 319 317 318 320 315 317 318 318 315 315 315 313 312 313 312 311 310 307
313 313 314 313 314 317 317 317 317 318 321 321 322 317 316 318 318 319 319 320 321 321 318 318 316 313 320 321 321 315 314 313 313 315 314 314 312 308 307 307 306 306 304 302
315 315 314 313 317 316 319 317 316 317 318 319 319 319 316 316 318 317 318 319 319 320 317 313 317 315 317 316 320 313 310 310 312 310 311 311 308 306 304 302 301 299 298 297
316 315 313 313 313 315 314 315 314 315 314 318 316 316 318 315 317 316 316 318 319 314 312 312 313 313 314 320 311 309 308 309 307 307 307 306 304 302 301 299 298 298 298 299
315 314 314 314 315 314 311 312 314 313 313 316 311 316 316 312 311 312 314 316 314 312 314 313 314 312 316 309 307 306 306 307 306 304 303 302 301 299 299 299 299 299 298 298
315 315 315 314 313 311 310 311 312 315 310 309 308 310 312 311 311 309 311 310 314 314 311 311 316 309 304 303 302 303 305 305 303 302 301 299 298 299 300 300 299 299 298 296
312 312 311 312 311 311 310 311 315 314 311 307 308 310 311 308 313 308 308 310 312 313 312 313 312 310 302 301 302 303 303 302 302 301 300 300 300 299 298 298 295 293 293 291
311 312 311 310 310 310 311 310 308 310 310 305 307 307 307 306 309 310 310 309 310 312 309 315 312 304 301 301 302 302 302 301 300 300 299 298 298 296 295 294 293 290 290 290
311 311 310 313 308 313 315 314 310 310 304 304 306 306 306 306 308 307 308 310 312 309 310 311 307 302 300 301 301 300 300 299 299 297 295 294 293 291 292 290 290 292 291 290
310 309 309 312 310 307 307 308 306 301 303 305 305 304 307 305 306 309 313 305 307 310 311 310 303 300 300 301 300 299 297 295 295 294 292 291 290 290 290 290 290 290 291 291
305 305 306 303 298 298 299 300 301 302 303 305 305 306 307 306 308 307 307 307 310 309 310 303 299 299 300 299 297 295 292 292 294 293 291 291 291 291 290 291 291 291 288 286
300 299 301 299 301 300 299 300 300 302 304 305 308 307 311 307 307 307 312 312 311 306 303 299 299 298 298 296 295 294 294 294 294 293 291 291 291 291 291 290 288 286 285 284
299 298 298 299 299 298 298 299 300 302 302 305 305 308 307 304 306 306 306 308 305 299 299 297 298 298 297 296 295 294 294 294 293 292 291 291 291 289 288 286 285 284 283 282

GFSNW_850_thetae_048.txt.gz
Theta_e
302 301 303 302 304 312 315 312 314 314 316 318 316 321 321 320 323 321 321 321 320 319 320 320 319 319 320 321 321 322 322 322 325 323 322 322 322 322 322 332 324 326 330 324
302 301 303 302 304 311 313 312 316 319 316 318 319 317 321 321 322 323 322 322 320 320 320 321 320 320 323 322 322 322 323 324 325 322 322 323 322 320 320 322 325 325 332 324
302 301 302 302 303 309 313 313 319 320 319 317 316 318 321 322 321 321 321 322 320 320 321 322 322 321 323 322 322 319 322 323 321 324 321 322 324 322 321 322 330 325 324 319
301 300 302 302 302 307 312 314 318 320 321 321 319 321 321 321 322 321 321 322 321 320 321 321 321 321 324 322 321 320 322 321 319 319 320 321 322 322 321 320 322 324 323 320
300 300 301 300 302 304 311 314 318 319 320 319 320 319 324 322 322 320 322 323 321 320 322 321 321 322 325 323 323 323 323 324 323 324 322 321 321 320 319 320 320 319 320 320
299 300 300 300 301 304 310 312 316 319 319 321 320 321 324 324 323 321 320 322 323 323 323 324 325 324 324 323 325 325 324 327 327 327 320 318 320 320 319 319 319 320 320 321
298 299 299 300 302 305 310 312 317 320 323 321 320 320 323 323 322 323 322 323 324 324 323 323 323 323 323 324 324 324 326 327 329 328 316 322 318 317 316 316 316 316 316 317
296 297 299 300 304 306 310 311 316 321 323 320 319 321 323 323 321 322 323 325 325 323 324 327 325 325 321 321 321 321 323 325 326 327 322 319 318 316 316 316 316 316 316 316
296 298 299 301 304 305 308 313 315 319 324 323 317 322 322 323 324 326 323 323 323 324 330 331 328 329 323 323 321 317 318 323 326 322 327 324 320 316 315 315 318 315 314 315
296 298 299 301 302 304 307 309 314 316 322 320 318 322 323 321 325 326 323 321 321 323 332 325 332 329 321 325 326 320 323 324 324 324 325 325 318 316 315 318 322 316 315 315
297 298 299 302 301 304 305 308 315 314 321 321 320 319 320 321 324 322 321 324 324 329 329 332 332 329 328 325 322 323 323 327 322 328 322 323 315 314 318 319 315 315 315 315
298 299 301 303 302 305 305 306 311 314 317 323 323 321 319 320 322 324 322 324 324 326 329 330 334 323 318 328 328 320 324 324 327 324 324 317 314 315 315 315 315 315 315 315
299 300 302 304 305 305 308 314 314 318 323 321 321 322 318 321 323 324 323 324 322 323 325 328 329 320 328 322 329 325 320 318 323 320 317 316 315 316 316 316 315 315 315 315
300 304 303 305 306 309 310 310 313 319 321 322 321 320 319 319 322 323 324 325 323 325 325 328 316 322 323 329 326 326 320 318 317 318 316 316 316 316 315 315 315 315 313 311
302 304 305 309 310 311 310 312 314 316 320 319 320 319 319 318 319 321 323 324 323 324 324 314 328 321 324 321 324 326 318 318 322 323 317 317 314 311 312 311 310 309 307 304
304 308 310 311 310 310 310 313 315 318 321 321 320 318 319 320 320 321 322 322 322 324 322 322 319 318 323 321 325 317 316 315 316 317 315 314 309 308 308 307 306 304 303 302
309 310 310 310 311 312 317 316 316 317 320 318 316 317 318 320 320 320 321 322 323 323 320 318 319 317 320 317 326 316 313 313 313 312 313 311 310 306 304 303 301 300 299 299
309 310 312 313 315 315 315 315 316 316 313 318 314 312 318 317 319 318 319 321 320 317 314 314 316 316 318 323 314 312 310 311 310 309 309 308 305 303 301 300 300 299 299 298
313 314 314 314 316 316 314 315 314 313 313 318 311 315 316 314 314 314 316 318 314 314 315 315 317 313 318 315 311 310 309 310 307 306 305 304 303 301 300 300 299 299 299 298
315 314 313 315 315 312 313 312 312 312 312 312 312 312 314 313 312 311 312 312 314 315 313 313 315 310 307 306 307 306 307 307 305 304 303 301 301 300 300 300 299 297 296 295
315 314 314 312 311 313 313 311 314 314 312 309 310 311 313 311 313 310 311 313 313 315 313 315 312 311 305 304 305 306 305 304 303 303 301 301 300 300 299 296 295 293 292 290
314 313 310 311 312 313 311 309 309 311 310 306 309 309 309 309 312 311 312 311 311 314 310 312 314 305 303 303 304 304 303 302 301 301 300 299 299 297 296 295 292 291 291 290
312 312 311 311 308 313 312 312 310 308 305 305 307 307 307 308 308 308 308 309 312 310 311 311 308 303 302 303 302 302 301 301 299 298 297 296 295 294 292 291 292 292 291 290
310 309 307 309 309 305 305 306 305 302 304 306 305 305 307 306 306 308 309 306 308 310 311 311 304 302 302 301 300 299 299 297 296 295 293 291 290 290 290 290 290 290 290 288
304 303 305 303 298 299 299 300 301 302 305 306 307 307 307 306 307 308 306 308 311 311 311 305 301 301 301 300 299 297 296 295 294 292 291 291 291 290 290 290 290 288 286 286
300 299 301 300 301 300 300 301 300 302 305 307 308 307 307 307 308 309 311 311 312 308 303 300 300 300 300 298 296 294 294 295 294 291 291 291 291 291 290 288 287 286 286 285
299 298 298 299 298 298 298 299 300 302 303 306 308 308 306 305 308 307 306 306 304 300 299 299 299 298 297 296 295 294 294 294 294 292 292 291 291 289 287 286 286 284 283 282

GFSNW_850_thetae_051.txt.gz
Theta_e
299 301 305 303 302 303 312 314 314 315 311 316 315 316 317 319 320 320 322 321 321 320 318 320 318 319 318 320 321 321 321 320 323 323 321 320 320 320 321 317 320 319 315 318
299 300 304 303 302 304 310 313 314 314 311 312 314 315 316 317 320 320 322 321 321 321 320 320 319 318 323 321 320 321 322 320 318 320 319 321 321 320 319 319 318 320 315 317
298 300 304 303 303 304 311 313 315 317 316 312 312 315 315 317 318 320 321 322 321 321 319 320 322 323 323 322 320 319 322 322 320 318 318 319 321 320 320 319 316 318 317 319
299 299 303 303 303 303 312 312 315 318 319 317 315 314 315 317 320 321 321 322 321 321 320 319 321 323 323 322 320 320 319 319 319 318 318 320 320 320 319 320 319 318 318 319
298 300 303 303 303 303 309 312 315 318 319 318 318 316 315 318 319 321 321 322 321 320 319 319 320 323 323 322 320 321 320 320 320 322 321 318 318 318 318 317 317 317 317 317
297 298 301 302 303 303 305 311 314 317 317 318 318 317 317 316 319 320 320 320 321 320 319 322 322 324 323 321 321 319 321 320 317 322 314 315 313 316 316 317 317 317 317 315
295 298 300 302 302 302 306 310 315 318 317 318 318 316 317 318 318 320 321 320 320 322 323 323 322 321 321 323 322 321 322 321 314 314 311 312 316 315 314 314 314 313 313 314
296 297 300 301 302 302 304 311 313 317 311 318 318 316 317 316 318 321 321 321 323 323 323 321 320 317 315 319 321 321 321 317 316 313 313 316 316 314 315 314 314 313 312 312
298 299 300 301 302 301 302 309 312 315 318 318 319 317 317 318 320 321 322 323 323 324 323 316 320 319 320 321 318 317 318 317 311 313 314 311 315 314 314 314 313 314 314 314
299 300 300 300 301 300 301 303 307 311 315 319 320 317 316 319 322 323 321 322 322 323 310 318 315 317 320 319 318 314 311 309 310 307 310 314 318 314 314 311 312 315 315 315
300 300 299 299 299 300 302 302 309 310 313 316 320 318 317 318 323 317 321 320 321 321 317 319 314 312 316 318 321 317 315 314 310 313 317 317 315 314 313 315 315 315 315 314
298 297 297 298 299 301 304 304 307 309 309 313 316 321 319 320 321 321 322 320 321 323 320 317 313 318 311 315 315 319 318 318 316 316 315 316 315 315 316 315 315 315 315 315
296 297 298 298 300 302 304 304 306 307 310 312 315 321 322 324 322 320 319 319 322 325 325 319 316 315 312 313 313 317 318 318 316 314 316 315 316 315 315 315 315 315 314 314
295 297 298 299 301 301 302 304 305 310 311 312 319 320 319 323 322 321 318 319 318 324 323 316 310 313 320 311 315 316 316 315 316 314 316 315 313 314 315 314 313 313 311 310
297 297 299 300 302 303 303 304 305 308 309 315 317 319 319 321 323 324 318 320 325 323 314 307 314 318 314 313 310 310 316 316 310 312 315 313 310 311 311 310 308 307 308 306
298 299 299 301 302 304 304 305 305 306 311 318 312 318 320 319 321 321 323 324 323 323 320 316 318 318 316 309 307 314 315 316 317 315 315 310 308 308 308 308 306 305 305 303
299 300 302 302 304 305 307 311 313 310 310 317 311 312 319 320 321 321 322 323 322 320 317 318 315 316 314 309 310 313 314 314 313 312 310 307 308 303 305 305 303 302 301 300
300 301 304 306 308 309 309 314 315 317 318 317 310 310 315 318 318 317 320 320 317 315 313 315 312 314 315 309 311 312 311 310 310 310 311 307 305 303 301 300 299 298 298 297
303 305 306 307 310 310 311 313 313 313 315 310 309 311 313 315 314 315 316 316 310 314 308 311 310 308 311 311 309 310 309 309 306 306 305 304 302 300 300 299 298 298 297 297
306 307 310 310 310 311 313 313 312 312 310 310 306 312 310 312 311 311 309 312 308 311 309 312 307 306 306 307 308 309 308 307 306 304 302 301 300 300 299 299 298 297 297 294
310 312 311 310 312 313 312 312 310 312 305 308 310 311 310 312 308 307 310 308 305 306 307 308 307 307 306 305 306 307 306 305 304 304 302 301 300 299 298 297 296 295 292 290
312 311 311 312 312 310 306 305 305 306 307 306 307 308 309 310 311 306 308 308 304 310 307 309 306 304 304 305 305 305 304 304 303 301 301 300 299 297 297 294 292 290 290 290
312 311 310 310 306 307 305 307 307 306 304 306 308 305 307 308 307 306 306 310 307 306 305 305 304 303 303 304 304 303 302 301 300 299 299 298 296 296 294 292 292 291 290 290
310 307 305 305 306 302 301 303 303 302 304 306 306 306 305 306 304 303 307 304 305 307 303 305 302 303 302 302 302 301 299 298 297 297 296 296 294 291 292 293 292 290 290 287
303 302 302 300 298 299 300 300 302 304 305 306 306 305 305 303 305 303 304 307 308 304 304 303 302 302 301 300 299 299 297 296 296 294 291 290 290 290 290 290 289 288 287 286
300 299 301 300 301 300 300 301 301 304 306 307 307 303 305 305 305 307 308 305 306 304 300 301 302 301 299 298 297 296 295 295 293 291 291 291 290 290 290 288 287 286 285 285
298 297 298 299 298 297 298 299 301 303 304 303 302 304 304 303 305 305 303 302 301 299 299 300 301 300 297 297 296 294 294 293 291 291 291 291 290 289 288 287 284 284 284 282

GFSNW_850_thetae_054.txt.gz
Theta_e
298 297 300 301 303 303 302 308 313 313 316 311 313 315 315 315 317 318 320 321 321 319 317 317 317 317 317 318 319 319 318 318 319 320 320 320 319 319 319 315 317 316 313 315
298 297 300 301 304 303 303 310 312 313 315 311 310 313 315 315 315 317 320 321 320 319 319 318 317 317 320 320 319 319 318 318 319 320 319 319 321 318 317 318 314 317 314 316
297 296 298 300 303 303 303 312 313 314 314 314 310 312 315 316 314 315 316 319 320 320 320 318 319 321 322 321 319 320 320 319 317 319 318 316 319 319 318 316 313 316 315 317
295 296 296 300 302 303 303 311 312 313 314 313 312 311 313 315 315 314 318 320 319 320 320 318 319 322 321 321 319 319 317 318 318 317 318 319 319 319 319 318 317 317 316 316
294 295 296 299 300 303 302 311 312 313 315 313 313 310 312 313 314 315 315 318 321 320 319 317 318 322 321 320 319 318 317 317 318 319 317 316 317 317 316 317 316 316 316 316
293 294 294 298 299 303 303 308 312 315 313 314 314 314 312 313 313 314 315 318 320 320 320 319 318 321 322 320 318 317 318 317 314 317 312 315 314 315 315 316 315 316 315 314
293 294 294 298 299 302 304 305 312 315 313 317 316 315 315 314 314 314 316 315 319 320 320 320 320 320 320 320 319 318 317 316 310 312 310 313 316 314 314 313 312 312 312 312
294 294 298 299 299 303 304 306 309 314 312 316 318 316 315 316 314 316 316 318 320 319 321 318 318 314 316 319 316 319 319 313 313 312 313 314 315 313 311 312 313 312 311 311
294 295 297 299 300 303 303 307 311 313 311 315 317 317 315 315 315 314 318 319 322 322 318 314 318 317 318 321 319 316 314 312 313 311 312 312 313 313 313 311 312 313 314 314
296 297 296 298 301 303 303 305 305 310 314 317 317 317 315 315 315 316 320 322 322 322 310 314 314 316 318 317 316 312 310 309 310 304 308 309 312 313 313 310 309 314 315 315
295 295 296 298 301 303 303 303 303 305 311 313 316 318 316 315 315 315 318 319 318 315 314 317 317 312 314 315 317 314 313 312 308 309 309 314 315 314 312 310 313 314 314 314
296 296 297 300 302 302 302 302 302 306 308 312 315 317 318 317 315 316 320 319 318 319 317 318 314 315 310 313 316 317 316 312 312 313 312 313 314 314 314 314 314 314 314 314
297 298 299 301 302 302 302 302 302 303 305 310 312 314 320 321 320 318 320 319 319 318 319 317 315 315 310 312 310 315 316 317 315 313 314 314 314 315 315 315 314 313 314 314
299 300 301 301 301 301 300 301 303 304 310 310 313 316 319 321 320 318 320 321 322 324 322 312 310 311 314 308 313 313 314 314 313 314 313 313 314 313 314 313 312 313 312 311
300 300 299 299 299 299 301 301 303 304 310 310 313 316 320 322 319 320 321 320 321 323 312 304 311 313 312 309 308 308 313 313 311 311 314 312 311 309 311 311 310 309 309 307
297 297 298 298 300 301 302 302 304 304 307 309 311 317 319 321 322 320 319 320 320 321 319 309 316 318 312 308 305 313 315 316 315 313 314 311 308 308 308 309 306 305 306 304
296 297 298 299 300 301 302 304 306 303 306 308 309 311 318 320 321 320 319 321 320 320 317 315 313 315 311 304 309 312 312 314 314 314 311 306 307 305 306 306 304 303 301 300
298 298 299 301 302 302 304 311 313 309 305 308 308 312 313 318 316 316 318 319 316 314 313 314 308 313 308 308 311 309 310 310 308 309 311 309 305 304 303 302 301 299 297 296
299 300 300 301 302 305 304 306 309 309 307 308 307 311 313 314 313 314 314 313 308 311 306 307 310 307 309 309 309 308 309 310 305 307 307 304 303 301 300 299 298 297 295 295
300 301 304 306 306 309 306 306 308 311 309 309 305 310 310 311 309 307 308 310 306 306 309 311 304 306 306 308 309 308 308 308 307 303 300 301 300 300 298 298 298 297 296 295
301 303 309 309 308 309 309 310 307 308 303 307 310 310 309 311 306 306 308 305 304 308 309 307 308 307 305 307 307 307 307 307 306 306 304 303 301 299 298 298 297 297 294 291
309 310 310 309 309 310 306 305 303 305 305 305 306 308 310 310 310 306 306 307 301 307 306 308 308 305 305 306 306 306 305 305 304 303 301 300 299 299 298 297 295 292 290 290
310 310 308 308 305 305 302 305 305 304 302 306 307 304 308 307 307 303 303 304 303 303 299 309 305 304 304 305 304 303 303 302 301 300 300 299 298 297 296 293 291 290 290 289
309 306 304 304 304 301 301 302 303 302 305 306 306 304 304 305 304 302 306 304 303 305 304 304 302 303 303 303 302 302 301 301 300 300 299 297 296 294 292 291 290 290 289 287
302 302 301 300 298 299 300 301 302 304 306 306 304 304 304 302 304 302 304 307 306 303 304 302 302 302 302 300 301 300 299 298 297 296 296 295 294 292 292 291 289 288 287 286
300 298 301 300 301 300 300 301 302 304 307 306 304 302 303 303 303 306 305 305 306 303 300 301 301 300 300 299 298 297 297 296 295 294 293 292 290 291 290 288 287 286 285 285
298 297 297 298 298 297 298 300 301 303 304 302 298 304 304 301 304 304 301 301 300 299 300 300 300 299 298 298 297 295 296 294 293 291 290 290 290 289 288 287 285 285 285 284

GFSNW_850_thetae_057.txt.gz
Theta_e
296 297 300 300 302 302 304 304 307 309 311 312 311 313 314 315 315 315 317 319 321 319 315 315 315 316 316 316 315 315 316 315 316 318 318 319 316 317 316 315 317 314 312 314
295 298 299 300 300 302 304 303 307 312 313 315 311 312 313 314 315 316 316 320 320 318 316 316 316 316 316 318 316 317 317 316 317 317 317 318 319 317 317 315 312 315 314 315
296 298 300 299 299 302 304 303 310 311 312 313 312 312 313 315 314 314 314 316 318 319 319 318 317 316 320 319 318 317 318 316 317 319 317 318 320 319 316 315 313 314 314 315
297 297 299 299 298 301 303 304 308 310 313 313 313 311 312 314 316 314 314 314 316 318 319 318 318 321 320 319 316 317 316 318 316 316 316 316 317 317 316 317 315 316 315 314
297 296 298 298 298 301 303 305 310 312 310 311 314 311 312 314 314 314 314 313 317 315 317 318 317 320 319 319 319 317 315 315 316 318 316 316 318 316 316 315 316 315 315 315
298 298 298 298 298 300 302 302 309 312 311 310 313 313 311 312 313 314 313 313 313 313 317 319 319 318 319 318 317 316 316 315 312 315 312 314 314 314 315 315 314 314 314 312
297 297 296 297 298 299 300 302 306 312 310 312 311 312 312 311 312 313 313 312 313 315 314 318 318 318 318 318 317 316 315 313 308 310 310 312 314 313 313 313 311 310 311 311
297 296 296 296 296 298 299 302 305 311 308 312 313 312 313 311 311 313 312 313 312 313 318 317 318 312 317 317 316 319 315 310 310 312 313 313 316 311 311 312 313 312 311 310
297 296 295 295 295 295 299 302 304 306 311 312 313 312 313 313 312 312 313 313 312 319 316 312 318 319 320 321 318 314 313 311 312 307 313 315 315 313 312 310 311 311 311 311
295 295 294 294 294 294 298 300 305 305 311 313 315 314 314 313 313 313 312 319 321 321 308 313 314 316 317 318 316 313 311 309 313 304 309 311 310 312 311 311 310 312 313 313
294 294 294 295 295 294 298 300 304 306 309 312 315 315 316 315 314 312 315 318 317 312 314 315 313 311 314 314 314 313 315 314 308 306 305 315 312 312 310 309 312 313 314 314
294 294 295 296 296 297 299 301 303 304 307 310 312 316 316 315 314 314 316 316 317 317 315 312 310 313 307 312 315 314 315 313 313 313 312 311 313 312 313 314 314 314 314 315
295 295 295 295 298 299 300 302 303 303 303 308 311 315 316 318 318 316 315 317 319 319 318 313 313 313 309 314 312 316 315 313 312 313 314 313 313 313 313 314 314 314 314 314
296 296 296 297 298 300 302 302 303 302 305 306 311 314 316 317 319 320 317 317 318 319 319 311 309 309 315 314 315 314 314 314 312 312 312 313 313 313 314 313 314 313 313 313
296 296 298 298 298 303 302 302 303 303 305 309 309 312 313 316 319 320 319 317 320 320 312 305 311 310 311 307 309 312 312 312 313 312 313 312 313 311 311 312 312 312 312 309
296 298 300 303 302 303 302 303 302 302 303 307 307 312 315 318 319 321 320 318 320 320 317 310 314 316 312 310 310 312 314 314 314 313 314 313 312 309 309 311 309 308 308 307
299 300 301 300 301 301 301 302 303 302 303 305 305 307 316 318 319 319 320 320 320 319 316 312 312 314 311 302 307 311 312 313 314 314 312 306 308 306 307 307 305 304 303 302
299 299 299 300 300 301 302 305 305 303 303 306 306 307 311 315 315 316 318 315 314 313 313 313 304 311 307 310 309 308 308 308 308 309 311 310 307 305 304 304 302 301 300 299
298 299 299 300 301 300 301 309 305 303 305 305 304 308 310 313 312 314 314 313 308 310 305 309 311 307 314 310 308 307 307 308 304 306 307 306 305 303 301 301 300 299 296 296
299 300 301 301 301 303 306 305 306 308 307 309 305 309 308 311 308 305 308 307 307 311 309 312 307 308 307 308 308 308 308 310 308 304 300 301 300 299 299 298 298 297 296 294
300 300 302 303 304 304 305 304 303 305 304 306 307 310 309 310 308 307 306 306 303 311 309 310 307 308 304 306 308 308 307 308 309 308 306 303 303 299 298 297 296 295 295 294
301 304 305 307 307 306 304 304 303 305 306 304 305 308 310 310 309 305 306 307 302 310 306 308 311 304 305 305 305 305 305 306 306 306 304 302 300 299 298 297 296 295 293 291
302 308 307 306 302 306 306 307 305 304 302 305 306 304 307 306 307 301 300 301 304 303 307 308 305 305 305 304 304 303 303 303 303 302 301 300 299 298 298 297 295 291 290 290
307 304 302 303 304 302 302 303 303 302 303 305 305 303 303 304 301 299 305 304 303 297 302 305 303 304 303 303 303 303 302 302 301 300 300 299 298 297 296 294 292 291 289 288
301 300 301 300 299 299 300 300 302 303 304 305 304 304 304 301 304 300 304 306 307 299 300 302 302 302 302 302 302 302 301 300 299 298 298 297 296 293 291 290 290 289 288 286
300 298 301 300 301 300 299 301 301 302 305 304 304 301 303 303 303 305 304 302 305 303 300 300 301 301 300 300 300 300 299 299 298 297 296 296 294 292 291 289 288 286 286 286
297 296 296 298 298 298 297 298 300 302 304 301 298 304 304 301 303 302 300 300 299 298 299 299 300 300 298 298 299 298 297 296 296 295 294 292 292 291 290 288 285 285 284 284

GFSNW_850_thetae_060.txt.gz
Theta_e
302 300 297 296 301 301 301 304 303 304 302 312 314 315 311 314 316 315 315 317 319 317 313 313 314 314 315 314 313 313 315 312 313 316 317 315 315 317 315 315 316 313 312 313
302 300 299 296 299 301 300 304 303 308 305 311 313 314 312 313 314 314 314 317 318 318 316 315 314 314 315 314 313 314 315 313 314 314 314 317 320 317 315 313 311 315 313 315
302 301 299 297 297 300 300 302 303 307 309 308 310 313 313 312 313 313 314 314 316 319 318 315 315 315 317 316 315 316 315 314 313 315 314 315 319 317 316 315 313 315 313 314
302 301 299 297 298 301 301 302 303 309 310 308 310 311 313 312 313 313 313 313 315 318 318 317 317 319 320 318 316 315 314 316 314 314 315 314 315 316 314 314 314 315 315 313
302 302 299 297 298 299 302 301 304 309 308 309 310 313 312 313 312 314 314 314 313 314 315 316 317 320 319 318 315 315 313 315 314 316 315 316 318 315 314 315 315 313 313 313
302 302 299 297 298 298 300 300 304 309 309 310 309 311 311 312 312 313 313 313 313 314 314 314 316 318 317 317 317 314 314 313 312 316 312 314 314 313 314 314 313 313 314 312
301 301 299 297 299 299 299 300 304 308 308 310 309 309 311 311 312 313 313 313 312 313 312 312 314 317 316 315 315 314 313 311 308 310 309 312 314 313 312 313 312 310 309 311
300 300 299 298 298 300 299 301 304 308 306 309 310 309 311 310 311 312 313 313 313 312 315 316 317 312 316 316 315 317 313 309 311 312 312 312 314 311 311 312 311 309 309 309
300 299 298 299 299 299 299 301 303 305 308 309 310 310 310 311 310 310 311 312 312 314 312 313 317 318 318 319 317 313 311 309 311 307 312 313 312 312 310 310 310 309 310 309
300 299 297 297 298 298 299 299 300 302 305 310 311 310 310 311 310 309 309 312 313 313 304 308 312 316 316 318 318 315 311 308 311 304 309 311 311 311 310 311 312 309 311 311
299 298 298 298 298 298 298 298 299 301 304 308 311 312 311 312 311 309 311 316 314 309 311 311 310 308 314 314 316 316 317 315 310 306 308 317 310 310 311 310 310 311 312 312
299 298 297 297 298 297 296 298 300 302 305 308 311 313 313 311 311 311 315 312 314 315 314 310 307 310 307 313 316 313 317 315 315 314 314 312 312 311 312 311 312 312 313 313
298 297 296 296 297 296 295 298 299 303 305 306 309 313 314 314 314 313 313 315 318 317 318 312 311 313 310 313 313 316 313 311 312 313 313 312 314 313 313 312 313 314 314 314
297 296 296 295 296 296 294 296 300 304 305 306 309 313 315 316 316 315 314 314 315 318 318 309 309 311 312 310 315 314 314 313 312 312 312 312 313 313 312 313 313 314 314 314
295 295 295 294 295 296 296 297 298 302 306 307 307 311 313 314 315 317 318 315 316 317 311 305 310 310 310 306 309 305 312 313 314 316 314 314 313 313 312 313 313 313 313 312
295 295 294 295 296 296 297 298 301 301 302 304 305 309 312 315 314 316 316 319 318 318 315 308 313 315 312 309 309 311 316 315 316 314 314 313 313 312 312 313 312 312 312 311
296 296 296 297 298 297 299 302 302 302 302 303 304 305 313 316 317 318 317 318 318 318 316 312 312 313 310 301 308 310 311 312 313 313 313 308 308 309 309 311 309 309 308 306
296 297 298 299 299 299 303 303 302 302 302 303 305 306 308 315 315 315 315 315 316 314 312 311 305 310 306 312 308 308 308 308 308 308 310 311 309 307 307 307 306 305 303 302
298 300 300 300 300 301 303 305 303 302 303 302 303 307 306 312 311 310 311 311 308 311 305 307 310 305 313 310 308 307 307 308 305 305 306 305 308 304 303 303 302 303 299 299
300 301 300 300 302 305 303 304 303 304 305 306 304 307 307 310 308 307 306 307 307 311 308 310 307 308 309 309 310 310 308 307 307 308 302 304 302 302 301 301 301 302 300 298
301 301 303 302 303 304 303 303 304 305 304 306 306 308 307 310 307 305 306 307 305 312 310 310 308 308 306 308 309 311 313 310 306 307 306 306 309 303 299 298 298 297 296 296
301 303 302 301 301 303 302 304 302 305 307 304 304 307 310 308 309 305 304 305 304 312 305 309 310 305 304 305 305 306 306 305 306 306 304 302 302 301 300 298 297 296 294 294
303 303 305 305 302 303 298 305 305 305 302 304 306 304 307 307 306 301 301 305 306 303 308 310 306 304 303 303 303 303 303 304 303 302 302 302 302 300 299 296 294 294 293 292
301 301 302 303 303 302 302 303 302 302 303 305 305 302 303 304 302 300 307 303 303 306 307 306 303 303 302 302 303 303 302 302 303 302 302 301 299 297 295 295 295 292 290 290
299 300 301 300 298 299 299 300 301 301 303 305 303 303 304 302 303 301 304 306 306 301 299 302 301 300 301 301 302 302 302 302 301 299 298 297 297 296 295 292 291 291 290 288
298 297 300 299 300 299 298 299 299 302 304 303 304 302 304 304 303 305 303 304 304 302 299 299 300 300 300 300 301 300 299 299 297 297 296 296 295 294 292 290 288 287 286 286
297 296 293 296 296 296 295 295 296 301 303 300 300 304 303 301 302 301 300 299 298 297 297 298 300 301 299 299 298 297 296 296 296 296 295 294 293 291 289 288 285 284 284 284

GFSNW_850_thetae_063.txt.gz
Theta_e
303 302 302 302 301 297 302 301 302 303 303 306 308 311 313 313 314 315 315 316 318 318 313 315 315 316 315 313 313 315 316 317 318 319 316 316 318 320 319 324 320 317 318 320
303 302 303 302 301 296 302 301 302 303 302 307 308 310 312 312 313 315 315 315 316 318 316 314 315 314 314 312 314 316 316 316 317 316 317 318 320 317 316 315 316 319 324 321
303 302 304 301 301 297 301 301 303 305 304 304 307 309 312 314 312 314 314 314 315 318 318 316 315 315 315 312 313 314 315 316 317 318 317 318 320 319 317 319 320 321 319 320
303 302 303 301 300 296 302 301 303 305 306 304 306 308 310 312 313 313 313 314 315 317 318 317 316 316 319 316 315 314 318 318 315 315 313 316 318 319 317 318 320 321 321 316
303 302 303 301 300 297 301 301 302 303 308 305 305 308 311 312 312 313 313 314 314 314 317 316 319 318 319 318 315 316 314 318 315 316 315 314 317 316 316 317 316 316 315 316
303 302 303 301 300 297 301 300 302 303 306 306 306 307 309 312 312 312 312 313 314 314 315 314 314 316 316 317 318 316 316 316 317 319 314 315 317 317 316 316 315 317 318 318
303 302 302 301 300 298 300 301 302 304 306 308 307 305 309 310 312 312 312 312 313 313 312 312 313 314 315 315 315 315 315 315 313 317 312 320 318 313 315 316 316 314 312 312
301 302 302 301 300 299 300 300 301 304 305 308 308 307 307 310 310 312 312 312 313 313 313 316 315 315 317 316 315 314 313 313 314 319 318 316 314 313 315 316 316 313 314 311
303 302 302 300 299 298 300 300 302 303 305 307 308 308 307 310 311 310 312 312 312 313 312 313 316 319 318 320 317 312 310 311 318 312 318 320 317 313 310 312 316 312 311 312
302 301 301 300 299 298 299 299 300 303 305 307 307 309 308 309 309 310 310 311 312 312 308 312 315 316 316 321 319 317 315 313 316 312 319 317 313 311 310 318 319 311 311 311
303 301 300 300 299 298 299 298 300 303 304 306 308 309 309 309 309 309 309 312 312 310 311 312 313 313 315 317 317 317 319 318 317 312 316 320 311 309 316 316 311 311 311 311
301 300 300 300 299 300 299 299 300 300 302 306 307 310 309 309 309 309 311 312 312 311 313 311 310 313 310 317 318 314 320 318 319 317 320 315 310 313 312 312 312 311 311 311
300 300 300 299 298 298 299 299 300 301 301 304 305 309 310 310 309 309 313 312 314 314 315 312 313 314 311 315 315 315 314 312 316 316 315 313 313 311 312 312 312 312 312 312
300 300 299 299 300 300 298 298 298 299 302 304 306 310 313 311 310 310 310 312 314 317 316 310 308 314 312 313 316 317 315 314 315 315 314 313 314 315 314 313 312 312 312 312
299 298 298 299 299 299 297 297 296 298 302 304 305 309 312 313 313 312 311 312 315 316 313 307 314 311 312 308 311 313 314 315 317 318 316 316 317 317 316 314 312 312 313 311
299 299 298 298 298 298 295 296 296 298 298 301 305 307 311 314 315 315 314 313 314 315 315 310 312 313 313 313 317 314 315 314 315 315 314 314 314 314 314 312 312 312 312 312
298 297 296 296 296 295 296 299 299 297 298 300 303 306 312 314 314 315 315 315 316 316 315 310 312 312 311 307 315 312 311 312 313 313 313 311 311 310 310 311 310 310 310 309
295 295 296 296 295 296 299 302 301 300 300 301 303 306 310 313 313 312 314 315 315 315 313 309 311 309 306 313 310 309 309 310 310 310 310 311 310 308 308 308 309 308 307 305
295 295 295 296 296 297 298 302 302 301 302 301 301 307 311 311 309 310 311 311 308 310 307 309 312 309 316 314 309 308 308 309 307 306 306 308 308 306 305 305 303 305 301 300
296 296 297 298 298 300 302 301 301 302 303 304 303 304 308 309 304 305 305 306 306 310 309 310 310 312 309 311 312 311 310 311 311 308 302 301 303 304 304 304 302 302 299 297
298 300 301 300 301 303 302 301 302 303 304 304 304 304 307 309 306 306 304 305 303 310 310 313 311 311 307 309 309 309 308 308 307 308 308 308 303 300 298 299 300 301 299 296
301 302 301 302 301 302 303 304 303 305 306 304 304 306 307 307 309 305 304 305 303 310 305 310 312 306 303 305 306 306 305 304 307 309 308 305 304 301 300 298 298 298 298 297
301 302 302 303 301 303 304 305 306 305 302 304 305 305 307 306 305 302 303 306 307 302 308 311 306 303 302 302 303 302 303 304 304 302 302 302 300 298 298 297 297 296 295 294
301 300 303 303 304 303 303 303 303 301 303 305 306 302 304 304 303 302 307 305 303 308 310 305 303 301 301 301 301 301 300 301 301 300 300 299 299 297 297 296 295 294 293 292
298 300 301 300 298 299 299 300 300 301 304 305 303 303 304 302 303 303 305 306 306 304 304 302 299 299 300 300 300 300 300 300 300 299 299 297 296 295 294 293 293 291 290 290
297 294 297 297 298 297 296 297 298 301 303 303 303 302 304 304 304 304 303 305 304 302 299 298 298 298 299 299 299 299 299 299 297 296 296 295 294 294 292 290 289 290 290 287
296 294 291 293 293 292 292 293 294 299 300 301 301 302 301 300 300 299 299 299 297 296 295 296 296 296 296 296 296 296 295 295 294 294 293 293 292 291 290 289 285 285 284 283

GFSNW_850_thetae_066.txt.gz
Theta_e
302 302 302 302 302 302 301 300 303 303 302 304 305 309 312 312 313 316 317 317 319 321 316 316 316 317 317 316 318 319 320 320 320 320 321 321 322 323 324 323 322 323 324 322
302 303 303 303 302 302 301 300 301 303 303 305 305 308 310 311 314 314 317 317 317 320 322 317 317 317 317 316 318 319 320 320 320 320 320 321 321 322 322 322 322 322 326 322
303 304 304 303 302 301 301 301 303 303 304 304 306 307 308 311 311 313 315 316 316 317 319 320 317 317 316 315 317 318 318 319 320 321 319 319 320 320 321 321 323 321 321 321
303 303 304 303 303 301 300 301 304 304 304 306 306 306 308 309 311 312 314 317 317 318 319 320 318 317 319 315 314 317 320 320 320 319 318 318 318 318 319 320 320 320 321 321
302 301 305 303 303 300 300 301 305 303 305 305 307 307 309 309 310 313 314 316 316 316 318 319 318 319 320 320 319 319 319 320 320 320 319 318 318 319 319 320 320 321 321 321
300 300 302 303 303 301 300 300 303 304 306 307 307 308 305 308 310 311 312 314 315 315 316 315 315 316 316 317 319 321 321 320 321 321 319 320 321 320 320 321 321 321 321 320
300 300 301 304 302 302 300 300 303 304 307 307 307 306 305 307 309 312 312 313 315 313 313 313 313 314 314 315 317 317 321 321 322 322 319 328 320 319 320 321 321 321 321 320
300 300 300 302 302 302 300 301 302 304 308 306 306 306 305 306 307 311 312 314 313 313 313 313 313 315 317 317 318 319 320 321 323 327 322 320 320 316 319 320 321 321 321 320
300 300 301 302 302 302 300 301 302 303 308 309 305 308 306 308 310 312 311 312 313 313 315 317 315 314 319 321 320 316 317 318 323 320 323 330 321 319 318 319 321 320 319 319
300 300 302 301 302 301 300 301 301 303 305 304 305 308 307 306 309 314 312 313 314 314 316 319 318 316 316 321 323 322 320 319 324 323 327 323 320 315 315 320 323 320 318 318
300 302 302 301 302 300 300 300 301 303 304 305 305 307 307 306 309 313 310 313 315 316 317 317 318 320 317 318 320 321 322 323 324 321 328 327 315 313 319 322 319 318 317 317
300 300 301 301 301 300 300 300 300 301 303 305 305 306 308 307 308 310 312 311 313 315 316 317 317 321 320 317 318 318 320 321 324 322 323 321 315 319 317 317 319 316 317 316
300 301 302 301 300 300 299 300 300 301 302 303 305 306 307 308 309 309 312 311 311 313 315 317 319 323 319 323 319 318 317 316 321 320 320 319 318 316 315 315 315 315 314 315
302 302 301 300 300 300 299 299 300 301 302 303 305 306 307 309 309 309 309 310 314 315 315 318 317 321 316 322 320 320 319 317 319 320 320 317 317 317 318 315 313 313 312 313
302 300 300 300 300 299 299 299 299 300 302 304 304 305 305 308 309 310 310 314 315 317 318 311 318 318 319 317 317 321 317 319 321 323 321 320 320 318 318 316 315 313 312 311
300 300 299 299 299 299 299 299 299 300 301 301 305 305 305 310 310 311 310 311 315 315 316 318 317 317 319 322 321 318 318 317 318 319 315 316 316 316 316 315 313 312 311 310
300 299 299 298 298 299 300 299 299 298 298 300 302 303 307 311 312 312 312 311 313 314 315 318 317 318 316 318 321 318 317 316 315 313 313 314 313 313 312 311 310 309 307 306
299 298 298 298 298 299 299 300 299 297 298 300 302 304 308 312 313 312 314 314 314 315 316 314 318 316 316 321 318 316 315 312 311 311 312 311 311 310 308 307 307 305 302 301
298 298 297 296 298 298 299 300 298 299 300 302 301 307 310 311 309 311 311 313 313 312 315 316 318 317 320 317 317 316 313 312 312 307 307 307 307 305 303 303 303 302 300 300
296 296 296 297 298 298 300 301 302 302 303 302 304 303 306 309 309 309 311 311 312 312 311 314 316 318 316 315 314 314 311 309 308 307 306 304 303 302 301 302 301 300 299 297
297 297 298 298 298 299 301 299 303 302 303 304 302 303 310 308 311 309 307 310 309 314 313 314 316 319 315 309 309 309 308 306 306 307 307 305 304 302 299 298 297 296 296 295
296 299 299 297 300 300 303 304 302 304 307 305 306 307 308 308 310 309 307 309 307 313 306 309 312 307 305 305 305 304 304 305 307 307 305 304 302 301 301 299 297 295 295 294
301 301 300 300 301 305 309 306 307 309 306 306 306 307 308 308 308 305 307 309 313 304 310 310 306 303 302 301 301 302 303 304 302 299 301 300 298 298 299 298 296 294 294 294
301 302 302 304 306 306 306 307 308 303 304 305 306 305 310 306 307 307 311 306 308 313 313 307 303 299 299 299 299 300 298 299 297 296 298 297 297 296 295 295 294 294 293 292
298 300 303 303 299 298 299 300 301 301 304 306 306 306 306 306 307 306 308 311 309 307 307 303 298 297 297 297 296 297 296 296 295 295 296 295 294 294 293 293 293 293 291 290
296 293 297 294 297 295 295 296 298 300 303 305 305 303 306 306 307 307 307 308 306 302 299 297 296 295 295 295 296 295 295 295 294 293 293 293 293 293 292 291 291 290 289 289
295 293 290 291 291 291 291 291 292 298 301 303 304 305 303 304 303 301 299 299 298 296 294 294 294 293 293 294 293 292 292 291 291 291 292 291 290 289 289 287 284 284 283 283

GFSNW_850_thetae_069.txt.gz
Theta_e
301 301 302 302 302 302 302 302 305 303 304 304 306 308 309 310 311 312 315 318 319 317 320 319 317 318 319 318 319 320 321 321 322 322 321 321 323 323 324 325 324 324 325 325
302 301 302 302 302 303 302 302 303 303 304 306 308 308 308 309 311 312 315 317 318 319 322 320 318 318 317 318 319 321 321 320 323 322 321 322 322 323 324 324 324 324 331 325
302 302 302 302 302 302 302 301 304 304 305 305 307 308 308 309 308 312 312 316 316 318 321 321 319 319 318 318 319 318 320 320 321 323 322 321 321 321 322 323 328 325 323 322
303 303 302 302 302 302 301 300 305 305 305 306 308 308 307 308 309 310 311 314 317 318 319 319 322 318 319 318 317 319 320 321 320 320 320 320 320 320 320 321 322 324 322 321
303 304 303 302 303 303 302 300 305 304 306 305 308 308 308 308 308 309 311 314 315 317 317 319 320 319 318 318 319 320 320 322 321 320 320 320 319 319 319 319 319 319 319 320
299 303 303 303 303 303 302 301 303 305 305 307 308 310 308 307 308 308 309 311 313 316 317 318 317 315 315 317 321 321 321 323 322 322 320 321 323 319 319 320 320 320 321 321
301 300 303 304 303 303 302 301 303 305 308 308 309 307 308 308 307 308 309 311 313 313 316 315 315 315 314 315 317 319 322 322 323 326 324 327 321 320 320 320 320 320 321 320
300 300 300 305 302 304 302 302 304 305 309 307 307 307 308 307 306 308 309 310 312 312 315 316 315 316 315 317 317 318 320 323 327 327 326 321 320 320 320 320 320 320 320 320
299 300 300 299 300 304 302 302 303 305 309 308 306 308 307 308 308 309 309 309 311 313 315 316 314 317 315 320 319 319 320 322 326 325 324 326 320 320 319 320 323 321 321 321
300 300 301 300 300 303 301 302 302 304 306 306 306 308 308 306 308 310 309 312 315 314 317 319 318 315 314 317 323 322 322 322 327 326 326 322 320 320 320 323 324 320 320 320
300 301 301 300 300 300 300 302 302 304 305 305 305 306 306 307 307 311 309 313 315 317 317 316 316 320 316 314 316 322 323 324 327 326 329 327 320 318 321 323 321 321 321 320
300 301 301 300 300 301 300 302 302 303 305 305 306 306 307 307 306 307 308 312 313 314 315 317 317 322 322 316 318 316 321 323 324 323 324 323 319 320 319 320 322 322 321 321
300 301 300 300 301 302 300 303 303 303 304 305 306 307 308 309 308 307 312 312 312 312 312 315 317 319 318 322 319 316 317 317 320 322 321 322 320 319 319 320 320 320 320 320
301 301 300 302 301 299 301 303 303 303 304 305 305 305 307 307 306 308 310 311 311 311 313 317 319 320 316 321 316 318 316 317 318 318 318 318 320 320 320 320 319 318 318 317
300 301 301 302 299 300 301 302 302 302 303 306 304 306 306 307 306 308 309 311 312 314 317 319 318 314 314 318 319 319 316 318 321 321 318 320 319 320 320 321 321 319 317 316
301 302 302 299 300 301 301 301 301 303 304 304 306 305 306 307 307 308 309 311 312 313 314 317 313 310 314 325 319 315 313 315 317 319 318 318 318 316 315 316 319 319 317 316
302 302 299 299 300 300 301 302 301 302 303 303 305 306 307 307 306 305 310 311 313 314 315 317 317 315 317 321 321 315 315 316 318 317 316 317 317 317 313 313 314 314 313 313
300 299 299 299 300 300 299 300 300 301 302 302 304 305 304 307 305 310 311 311 312 313 314 316 318 318 319 319 316 315 315 317 317 316 314 314 313 311 310 309 309 310 309 309
299 299 299 299 300 301 300 299 300 301 302 304 303 306 307 306 312 311 311 311 314 313 316 317 316 318 319 315 315 315 317 317 317 314 312 312 312 311 309 308 308 307 306 305
299 299 300 300 301 299 299 301 302 302 302 303 304 304 305 303 309 311 312 313 315 314 315 314 316 318 315 315 317 317 317 316 313 313 313 310 310 309 308 308 307 305 304 303
299 300 300 299 300 301 301 302 303 303 304 304 305 304 303 302 309 309 310 312 313 317 315 316 317 318 314 312 314 313 313 312 311 310 310 309 309 307 305 303 302 301 299 299
299 300 299 299 300 300 303 304 303 304 305 306 306 302 301 303 311 311 311 312 312 317 308 311 314 306 303 306 308 308 308 307 306 304 304 303 302 301 299 298 298 297 296 295
300 300 300 300 300 304 306 306 307 308 307 306 304 303 305 309 309 309 310 315 313 308 311 312 307 301 300 300 300 300 299 300 302 301 301 300 298 298 297 295 294 294 293 292
303 302 304 305 307 307 306 307 308 303 306 308 307 307 309 308 309 309 310 308 311 315 315 311 304 298 296 297 296 297 295 297 297 296 297 296 294 292 292 291 291 291 290 290
299 301 302 301 299 298 298 300 301 301 306 308 309 309 308 306 310 309 310 311 311 308 308 303 297 296 294 293 293 293 293 293 293 293 292 291 290 290 290 290 291 291 291 291
296 294 298 296 299 296 295 296 297 298 303 308 306 307 307 307 308 310 307 311 307 302 299 296 294 293 292 292 292 291 291 290 291 290 290 290 290 290 289 290 290 290 289 288
295 295 292 293 294 292 291 291 291 296 301 304 306 307 302 305 305 302 300 299 299 297 295 294 292 291 291 291 290 290 290 289 289 288 288 287 287 288 288 287 285 286 284 284

GFSNW_850_thetae_072.txt.gz
Theta_e
302 302 302 302 302 302 302 303 303 303 304 305 306 307 308 307 308 308 312 314 315 316 317 321 318 318 318 319 319 319 321 322 323 322 321 321 322 323 325 328 326 328 330 328
302 302 302 302 302 302 302 303 302 303 304 306 305 306 307 308 308 309 311 313 315 317 320 319 320 319 319 318 318 319 321 322 323 323 322 322 322 322 323 324 325 327 330 326
302 302 302 302 302 302 302 301 303 304 305 305 307 307 307 308 307 309 310 312 313 316 319 320 321 320 319 317 319 318 319 323 323 325 324 323 322 321 322 325 328 327 327 324
301 302 302 302 302 302 302 300 304 305 306 306 307 308 307 308 308 307 308 311 313 313 318 317 319 320 319 317 317 319 321 324 323 321 321 321 321 322 322 322 323 325 327 323
301 302 302 303 302 302 303 300 304 305 306 305 307 308 309 308 308 308 309 310 312 313 317 318 319 318 320 320 320 319 319 322 322 323 321 321 321 322 322 321 321 321 322 322
302 302 303 303 302 302 303 302 303 305 306 307 307 308 308 308 308 308 308 309 311 315 316 315 318 317 318 318 319 322 321 321 321 323 322 320 320 321 321 320 321 320 321 322
300 300 304 304 303 302 303 302 303 305 308 308 309 307 307 308 308 309 308 308 310 313 314 317 316 315 316 316 317 317 321 322 321 324 322 324 321 321 321 321 320 320 320 321
299 300 299 301 304 303 302 302 303 305 309 307 306 308 308 308 308 309 308 308 308 308 311 316 316 316 317 317 317 317 319 323 323 324 324 322 321 321 321 321 321 321 320 321
301 299 300 300 300 304 302 302 303 305 308 309 306 308 308 309 310 310 310 307 308 310 315 316 318 318 318 318 317 317 317 320 324 325 324 325 323 321 320 321 322 321 321 322
300 301 299 300 300 300 302 303 303 304 306 306 306 308 309 308 309 311 309 309 309 312 315 317 317 317 314 317 320 320 320 321 323 323 324 324 321 320 320 322 323 321 321 321
301 301 299 299 301 300 302 303 303 304 305 306 306 306 307 308 308 311 309 310 310 315 315 316 318 318 316 314 318 321 322 322 324 323 324 325 321 320 320 321 321 321 321 321
301 301 300 299 300 301 301 301 302 304 305 306 307 306 307 307 308 308 309 309 311 313 316 316 316 321 321 317 317 316 316 320 324 323 324 324 322 320 320 320 321 322 322 322
301 300 300 300 300 300 300 300 303 304 305 304 306 307 307 308 309 309 310 309 309 313 313 316 318 318 317 320 319 317 317 318 317 316 320 322 322 321 320 320 320 321 321 321
300 301 300 301 301 300 300 301 303 304 302 306 306 305 307 308 309 310 310 310 310 311 313 317 318 319 316 319 317 317 318 317 317 317 317 317 316 318 320 320 320 320 320 319
300 301 301 301 301 301 300 302 303 303 305 306 307 305 305 307 307 309 310 310 311 312 312 319 318 316 318 321 320 320 315 316 320 324 318 319 320 318 319 320 320 322 320 319
300 301 301 301 301 301 301 303 303 303 303 306 307 305 307 307 307 308 308 308 309 311 312 314 315 314 317 325 319 316 315 313 313 320 318 319 320 318 317 316 317 319 320 319
301 301 301 301 302 301 302 303 302 302 303 305 307 307 307 306 307 308 309 309 309 311 312 314 316 315 314 320 318 313 313 313 314 314 318 318 318 318 315 314 315 315 316 316
301 301 300 300 300 301 302 302 303 303 304 304 306 306 306 307 308 308 305 308 308 309 311 313 318 317 317 317 314 314 315 314 318 319 318 317 316 314 312 311 311 312 312 312
300 300 300 301 301 300 302 302 302 303 303 304 305 306 308 304 307 307 307 306 306 310 315 317 317 319 318 317 315 315 314 315 315 317 315 314 314 313 310 310 310 308 308 308
300 301 301 300 299 300 300 301 302 302 303 304 305 304 306 302 301 308 310 307 309 313 314 314 318 317 315 313 317 318 318 317 316 314 314 313 312 310 310 309 308 307 306 305
301 301 300 299 301 302 303 302 303 304 304 304 305 305 306 301 303 304 310 312 313 315 316 316 317 317 311 309 312 313 314 313 312 312 312 312 310 308 306 305 304 303 303 302
301 300 300 302 302 301 304 303 304 305 305 306 307 303 304 302 301 304 310 310 312 315 312 315 314 305 303 303 304 306 308 307 305 306 306 306 305 304 302 301 300 299 298 297
302 302 301 302 300 304 304 304 305 307 307 305 304 304 302 301 301 304 306 310 311 309 312 312 306 300 299 299 299 301 301 303 301 299 301 301 299 298 298 297 295 295 295 294
303 302 303 304 305 304 303 305 306 303 307 304 304 304 305 303 302 305 308 308 309 314 314 309 301 297 295 294 295 297 294 294 294 293 293 294 293 292 292 292 292 292 290 290
299 300 301 300 298 296 296 298 300 298 303 306 307 308 308 306 308 309 309 311 309 305 305 301 296 295 292 291 291 291 291 291 290 290 290 289 289 289 289 289 290 290 289 289
295 293 297 295 297 293 293 292 294 296 301 306 307 308 308 307 308 308 305 308 303 301 299 295 294 293 291 291 291 290 290 289 289 289 288 288 288 288 288 288 288 288 287 286
296 295 291 293 292 291 289 289 290 294 298 304 306 305 304 307 305 301 298 299 298 296 294 292 292 291 291 290 290 289 289 288 288 288 288 287 287 288 288 286 285 285 284 283

GFSNW_850_thetae_075.txt.gz
Theta_e
300 300 301 301 302 302 302 302 303 303 303 304 303 303 304 305 306 306 307 307 309 312 312 313 315 320 317 317 317 318 316 320 320 319 319 320 320 320 321 325 325 323 320 321
300 301 301 302 302 301 301 301 301 303 303 305 304 303 304 304 306 307 307 307 309 309 311 314 317 321 318 317 317 318 318 319 320 320 319 320 319 320 320 322 322 323 321 324
300 300 301 301 301 301 301 300 302 303 305 304 305 304 305 306 305 306 306 307 308 309 311 314 316 317 320 317 317 317 318 320 320 320 320 321 320 320 320 320 320 321 322 323
300 300 301 301 301 301 301 300 301 304 305 305 305 305 305 306 306 306 306 307 307 309 310 314 314 318 318 318 317 317 318 319 318 319 320 321 321 321 319 319 321 325 322 323
300 300 301 301 301 301 302 300 302 304 304 304 306 305 307 306 306 306 307 307 307 308 309 313 314 316 319 319 317 316 317 318 318 319 320 319 320 320 319 319 320 319 319 322
300 300 301 301 302 301 302 301 302 304 304 305 304 305 305 307 307 307 306 307 307 306 308 313 314 317 316 316 317 318 318 318 319 319 320 320 318 317 320 319 320 319 318 317
300 301 301 301 301 301 302 302 302 303 306 304 306 305 305 306 307 308 307 307 307 307 306 314 314 314 315 315 313 316 319 321 319 319 318 321 319 319 319 319 319 318 318 318
300 300 299 300 302 302 302 303 302 303 303 306 305 306 306 305 306 307 307 308 308 307 308 313 314 314 314 315 315 316 317 320 319 320 320 320 320 319 319 319 318 318 318 318
298 298 299 300 300 302 303 302 302 303 304 304 306 306 306 306 306 306 307 307 308 307 306 311 312 313 317 318 318 316 317 317 318 318 321 320 320 319 319 319 318 319 319 318
300 299 299 299 300 301 303 303 302 303 304 304 305 306 306 307 306 306 307 308 308 308 306 308 310 312 314 316 317 316 314 315 318 315 320 319 320 319 319 319 316 319 320 319
301 301 300 299 299 301 301 304 302 303 303 304 305 306 306 307 307 307 307 308 308 307 307 309 309 308 313 313 315 317 317 316 317 317 320 323 319 319 319 317 319 319 320 321
301 301 301 300 300 300 301 302 301 302 304 304 305 306 306 307 308 308 308 308 307 308 309 309 310 309 307 310 312 316 318 318 319 320 317 318 321 319 320 320 320 321 320 322
301 301 301 301 301 300 300 300 300 302 304 304 305 306 306 307 307 307 308 309 309 309 310 310 310 310 311 308 310 314 315 314 316 314 315 315 320 318 319 320 320 320 320 320
301 300 301 301 300 300 300 300 300 303 301 302 305 305 306 306 306 307 308 309 310 311 309 309 312 310 311 310 313 312 314 314 315 315 313 314 316 317 316 317 318 319 319 320
300 302 302 301 300 300 301 300 301 302 304 305 306 306 307 306 306 308 309 309 310 310 309 305 309 311 313 312 312 312 313 314 315 314 314 315 316 316 316 316 319 319 321 320
301 300 300 300 300 300 301 301 300 303 304 306 304 305 306 307 307 307 306 308 309 309 310 308 310 309 311 311 312 314 314 315 314 315 318 320 320 318 317 316 317 318 320 319
300 300 300 300 300 300 301 302 302 302 304 305 303 303 307 307 307 307 308 308 309 309 310 308 310 311 308 311 309 312 315 315 313 313 315 318 317 317 316 316 315 315 316 317
301 301 301 300 300 300 303 303 302 303 304 303 301 301 305 306 307 307 307 308 309 309 309 310 310 310 311 309 310 312 312 312 316 317 318 318 316 315 314 313 312 312 312 312
301 300 301 301 301 300 303 303 303 303 303 301 299 301 302 306 306 307 306 307 305 307 302 308 310 310 311 313 313 312 312 312 313 318 316 314 313 311 310 310 310 309 308 308
300 301 300 299 302 302 302 302 301 302 303 304 299 304 301 303 302 302 304 306 305 306 305 309 308 309 310 308 312 314 315 315 315 315 313 312 310 310 308 308 307 307 306 304
300 300 300 300 301 301 302 302 302 303 301 304 304 304 302 301 303 301 304 304 304 305 309 307 309 311 308 305 305 307 310 312 313 314 313 311 311 309 307 305 304 304 303 303
300 300 301 301 301 301 301 301 301 302 302 303 303 303 303 301 301 299 303 307 305 309 309 309 311 303 300 301 302 303 307 308 309 310 309 308 307 306 305 302 300 300 298 297
302 301 301 301 299 302 299 300 300 300 300 304 302 300 301 301 301 301 302 306 309 306 310 309 303 298 296 296 298 299 301 304 305 303 303 303 302 301 301 299 297 295 294 294
302 302 301 302 300 300 298 301 303 300 304 303 303 302 301 300 299 301 307 305 306 311 310 303 298 294 292 293 294 296 294 295 295 294 294 294 294 292 293 293 293 293 292 290
297 297 298 296 295 292 294 294 296 294 299 303 304 305 305 302 303 303 304 308 305 302 300 298 294 292 291 291 291 291 290 290 289 289 289 289 290 290 288 289 290 290 289 289
293 291 294 293 293 291 290 290 292 293 296 303 306 305 306 305 303 301 300 303 299 297 296 294 292 291 291 290 290 289 288 288 288 287 287 287 288 287 287 287 287 287 287 286
294 291 289 291 290 290 290 289 289 293 295 302 301 302 302 302 299 298 296 295 295 293 292 291 291 290 289 289 288 287 287 287 287 286 287 287 287 287 287 285 284 284 283 283

GFSNW_850_thetae_078.txt.gz
Theta_e
295 295 297 298 300 301 301 302 303 303 302 303 303 302 301 303 303 304 305 305 306 306 307 309 310 311 313 316 315 314 315 316 317 317 317 317 318 319 319 321 323 321 319 322
295 295 297 299 300 301 301 302 301 303 303 304 304 304 303 302 303 304 305 307 306 307 307 308 313 314 314 313 317 317 314 316 317 317 317 317 318 318 319 320 321 322 322 322
296 297 298 299 299 300 301 299 302 302 303 303 304 304 305 304 303 302 303 305 305 306 307 308 311 315 314 315 316 317 317 317 317 317 318 318 319 319 319 320 320 320 320 320
298 298 299 299 300 301 301 299 300 303 303 304 304 303 305 305 304 305 305 305 304 305 307 308 308 312 315 314 315 317 317 318 318 317 319 319 319 319 319 320 319 320 319 320
298 299 299 299 300 300 300 299 301 302 302 303 304 304 305 305 305 304 304 305 305 305 306 307 308 312 314 315 315 317 316 316 318 319 319 319 319 319 320 319 317 318 320 320
299 299 300 300 300 300 300 300 301 303 303 303 304 304 303 306 304 305 304 305 306 306 306 306 307 311 314 314 314 314 316 317 317 318 319 319 319 319 320 319 318 318 318 317
299 299 300 300 300 300 300 301 301 301 304 303 304 304 305 305 305 305 306 306 305 305 306 306 308 313 314 313 313 311 314 315 315 316 316 322 318 317 319 319 318 317 316 316
300 300 300 300 300 300 300 301 302 302 303 304 303 304 304 304 305 305 304 305 306 307 306 308 310 311 312 313 313 313 314 316 315 317 318 319 319 318 317 318 317 316 316 316
298 299 300 300 300 300 300 300 302 302 303 303 304 304 304 304 304 304 304 305 306 306 305 308 308 308 312 314 316 316 316 315 316 315 318 317 317 317 317 317 318 317 316 316
298 298 298 298 300 300 301 301 301 302 303 303 303 305 305 305 304 304 304 305 305 306 304 306 305 308 310 312 313 315 313 314 315 313 318 317 318 317 318 320 316 316 318 318
299 299 299 299 298 299 300 301 302 302 302 303 303 305 305 305 305 304 305 305 306 304 304 306 305 304 309 313 313 314 315 315 317 316 318 320 316 319 318 316 317 318 320 320
300 300 300 300 299 298 299 300 301 302 302 303 303 303 305 305 305 306 306 306 306 306 305 304 304 306 304 310 311 311 314 317 317 315 315 316 316 318 317 319 319 320 321 321
301 301 301 300 300 299 299 300 300 302 302 303 303 304 304 305 305 307 307 307 308 308 309 306 306 307 307 307 309 311 314 315 316 315 316 316 316 316 317 317 318 319 319 319
300 301 301 300 300 300 299 300 301 302 301 302 304 304 304 305 306 307 306 307 307 308 309 307 305 304 309 307 309 311 310 313 314 313 312 313 314 316 314 316 317 319 320 320
301 301 302 300 301 300 300 300 301 301 303 303 304 305 305 304 306 306 306 307 307 308 308 305 306 307 309 308 308 310 311 312 311 311 312 313 314 314 314 315 315 317 318 319
300 300 302 301 300 300 300 300 300 301 303 305 304 304 305 306 306 306 307 308 308 308 308 306 309 310 310 307 311 309 312 312 313 313 314 314 314 316 317 316 316 317 318 319
300 302 301 301 300 300 300 301 300 301 303 305 304 304 306 306 306 306 307 307 308 308 308 307 308 309 308 305 309 309 310 310 311 313 314 317 317 317 316 316 316 316 316 317
302 301 301 301 300 300 301 302 301 302 301 304 303 304 305 306 306 306 307 307 308 308 307 307 305 308 307 308 308 309 310 311 309 315 315 316 316 314 313 313 313 314 313 311
300 299 300 300 300 301 302 301 302 303 303 301 296 300 306 305 305 306 306 307 305 305 298 303 306 305 306 309 310 309 309 310 311 315 316 314 314 312 311 311 310 311 307 307
300 300 300 300 301 302 302 302 302 302 303 303 296 301 303 303 302 300 302 304 298 305 304 307 301 303 308 309 306 306 307 309 312 313 310 311 309 309 308 308 307 306 304 302
301 300 299 301 301 301 300 300 301 302 301 302 302 301 300 302 301 300 303 304 304 304 303 305 306 306 307 306 307 308 302 304 309 312 312 311 310 308 307 304 304 303 301 299
301 301 301 301 301 301 299 297 299 300 301 300 299 303 301 301 302 297 300 306 304 305 303 304 306 302 299 300 302 306 300 304 306 307 309 306 305 305 304 302 300 300 299 296
301 301 301 300 299 297 295 298 301 302 299 302 301 301 299 300 300 299 301 306 305 305 306 307 300 297 295 296 298 300 296 303 303 303 302 301 299 298 300 297 295 295 294 293
301 297 293 292 294 296 295 298 301 296 299 301 301 299 300 299 300 300 304 305 305 309 307 301 296 293 292 293 294 296 292 296 296 297 297 295 294 292 291 292 292 292 291 290
294 295 294 294 292 291 291 292 294 293 297 302 301 303 302 301 302 302 304 306 302 299 296 296 292 292 291 290 290 290 290 290 290 290 290 289 289 289 288 289 290 290 288 288
290 289 290 290 291 289 289 289 290 291 295 301 301 303 304 304 299 299 298 300 296 294 293 292 290 289 289 288 288 288 288 287 287 287 287 287 287 286 285 287 287 287 287 287
291 288 287 288 288 287 287 287 288 291 295 300 300 297 297 298 296 295 294 293 293 292 291 290 289 288 287 287 286 286 286 286 285 286 286 286 286 286 286 285 284 285 284 284

GFSNW_850_thetae_081.txt.gz
Theta_e
295 295 296 296 295 297 299 300 301 301 300 302 302 301 300 301 303 304 303 304 304 305 305 306 307 310 310 313 314 315 317 314 315 315 315 315 315 317 319 319 321 319 319 320
295 295 295 295 295 297 299 300 301 301 301 301 302 302 302 300 301 303 304 306 305 305 304 305 306 307 312 313 314 315 316 316 315 316 315 315 316 317 317 318 318 320 321 320
293 293 294 294 294 297 299 300 301 302 302 302 301 303 304 304 302 301 302 303 304 304 305 305 307 309 311 312 314 315 315 318 319 317 315 315 317 317 317 319 318 318 321 320
294 295 296 295 295 297 299 300 299 302 303 303 303 302 303 305 304 302 302 302 302 302 303 304 305 305 307 312 313 312 316 317 317 316 315 318 318 318 318 318 317 318 318 320
296 296 296 296 297 298 299 299 300 302 301 302 303 303 304 303 304 304 304 305 305 303 303 304 304 305 304 311 313 312 312 316 316 317 315 316 318 320 319 318 318 317 317 318
298 298 298 298 298 299 300 300 300 302 302 302 304 304 303 304 303 304 303 304 304 304 304 304 304 304 305 309 313 309 308 313 314 317 318 319 320 319 319 319 317 316 318 317
298 298 298 298 299 299 299 300 300 301 303 302 303 303 303 303 304 304 304 304 303 304 304 305 305 305 305 306 311 311 310 310 313 313 314 321 318 316 317 318 318 317 316 316
299 299 299 299 299 299 299 300 300 301 302 303 302 303 304 303 303 304 304 304 304 306 306 306 306 306 310 310 312 313 311 311 314 317 316 315 317 317 317 318 318 317 315 315
297 299 299 299 299 300 299 300 300 301 302 302 303 302 303 303 304 304 304 303 304 304 304 306 309 305 308 310 315 312 312 312 313 315 319 316 314 315 316 317 319 316 316 315
297 297 298 299 300 300 299 300 299 301 301 302 303 303 304 303 303 303 303 304 304 304 304 307 308 308 308 308 311 313 313 312 315 316 318 314 314 316 317 320 317 317 317 317
297 297 298 298 298 300 299 299 300 301 301 302 302 303 304 304 303 303 304 304 303 302 303 304 305 301 305 307 310 311 312 313 314 315 317 317 315 318 318 316 317 316 318 319
298 298 298 298 298 298 300 300 300 300 301 302 302 302 303 303 303 304 304 305 304 304 303 302 302 302 300 307 307 310 313 312 314 315 314 313 315 317 317 316 316 318 319 320
300 300 299 299 299 298 298 300 301 302 301 301 302 303 303 304 303 304 305 305 306 306 308 303 304 305 303 303 307 309 310 312 313 313 313 313 314 314 316 316 318 317 319 319
299 300 300 300 299 299 299 298 300 300 300 301 303 301 303 303 304 305 305 306 307 307 308 307 303 303 306 304 306 308 309 313 314 313 312 313 314 315 315 315 316 318 318 319
301 300 301 300 300 299 299 299 299 301 302 302 302 303 302 303 304 304 304 305 306 307 306 303 306 305 307 305 306 307 310 311 312 312 312 312 312 313 313 313 314 315 318 319
300 300 301 301 301 300 301 300 299 299 301 303 304 303 303 304 304 305 305 306 306 307 307 304 308 309 308 301 307 307 309 309 309 309 309 309 313 313 314 315 315 315 317 318
300 300 300 301 300 300 300 300 300 299 299 302 303 301 305 303 304 305 305 306 306 307 307 305 307 308 308 301 305 308 309 309 308 308 309 310 315 316 315 316 315 314 316 316
301 301 300 301 300 299 300 301 300 299 301 302 302 304 305 306 305 305 305 306 306 307 307 306 305 307 305 304 305 307 308 308 308 309 310 310 311 315 313 313 313 314 312 309
300 301 301 299 299 300 300 301 300 300 302 301 297 304 305 305 304 305 305 306 304 304 301 303 305 303 306 305 306 308 309 308 307 308 311 312 313 312 311 311 310 311 306 305
300 299 300 299 301 301 300 300 301 302 302 301 300 300 304 304 302 301 302 303 302 305 304 305 299 303 305 306 307 308 308 307 308 310 309 310 310 309 307 306 305 306 303 300
300 300 300 301 301 301 301 299 301 300 300 300 300 301 302 302 301 303 301 303 301 304 301 303 303 304 303 303 303 304 305 307 308 308 309 310 310 306 304 301 300 298 297 297
300 300 300 301 301 300 300 301 300 297 300 299 299 299 301 301 302 300 301 304 303 306 300 301 305 302 297 297 298 299 301 302 304 303 306 307 305 303 302 300 297 295 295 293
301 301 299 299 296 295 296 299 302 301 300 300 300 299 299 300 300 299 302 305 305 302 306 308 300 296 294 294 294 294 296 300 300 296 299 300 299 297 298 295 292 291 291 290
298 295 291 289 287 292 293 295 298 294 298 300 299 299 300 299 299 299 304 301 304 307 307 299 294 293 292 292 293 293 292 295 294 291 292 290 294 293 291 290 289 290 289 289
292 293 292 292 291 290 290 291 292 292 296 300 300 300 301 300 300 300 302 304 298 297 294 291 292 291 290 289 290 290 289 289 290 288 289 287 288 289 288 288 288 289 288 288
289 287 289 288 289 287 287 287 289 291 296 300 302 301 303 300 296 297 295 296 294 293 291 290 289 288 288 288 287 287 287 287 286 286 285 285 286 286 285 286 287 286 286 285
288 287 284 285 285 285 285 285 286 291 294 297 298 296 295 297 295 294 293 290 291 290 288 288 287 286 286 286 286 285 285 284 284 284 285 284 285 286 287 285 284 285 285 284

GFSNW_850_thetae_084.txt.gz
Theta_e
294 294 295 296 296 296 296 298 300 299 300 301 301 300 299 300 301 302 301 303 303 303 304 304 304 308 308 309 313 315 315 316 314 313 312 312 313 314 315 317 319 317 317 318
294 294 295 295 295 296 296 298 299 300 301 301 300 301 301 301 300 301 302 304 304 303 303 302 303 304 307 312 314 314 312 317 318 314 314 314 313 314 315 317 316 318 320 318
294 294 294 295 295 295 296 298 300 299 301 300 299 300 301 302 301 300 300 302 302 303 303 304 305 305 305 305 304 312 312 314 317 319 317 316 316 314 315 317 317 318 319 318
293 294 294 294 293 294 295 297 299 300 297 301 300 299 301 301 303 301 300 300 301 301 302 302 302 302 303 303 305 312 313 313 313 314 316 316 317 316 315 316 316 317 317 317
293 294 294 294 295 293 295 298 299 299 301 301 301 301 301 301 302 303 302 302 303 301 301 302 303 304 304 305 310 311 310 311 312 313 311 315 316 316 316 316 316 316 315 315
295 295 296 295 295 295 295 297 298 299 301 300 302 302 302 302 302 303 303 303 303 304 304 302 302 303 303 303 304 309 310 312 312 312 312 314 316 314 317 317 316 316 317 315
296 296 297 297 297 296 296 297 298 299 301 301 301 302 303 302 303 302 303 304 304 304 304 303 304 305 304 304 304 305 308 310 309 314 314 321 317 314 315 316 316 314 315 314
297 297 298 298 298 297 297 297 299 300 301 301 301 302 303 303 302 303 303 303 304 304 304 307 307 304 307 305 304 304 308 310 312 314 316 316 315 316 316 316 317 315 315 314
299 299 299 297 298 298 298 298 298 300 300 300 301 302 302 303 303 303 303 304 303 304 304 305 307 306 307 307 309 307 309 309 311 314 316 317 315 313 315 316 317 315 314 314
297 298 298 299 298 298 298 299 299 299 300 301 301 302 302 302 303 303 303 303 303 303 304 305 305 306 307 307 307 312 310 311 312 313 316 315 315 314 314 317 315 315 315 315
295 296 297 297 299 299 299 299 299 299 300 301 301 302 302 303 303 303 303 304 303 303 305 305 305 304 304 305 306 310 309 312 313 314 316 316 312 313 318 315 316 317 317 318
296 295 295 297 297 298 299 299 299 299 300 301 301 301 302 302 303 303 303 305 303 303 303 300 301 301 299 305 306 305 308 309 310 312 314 312 310 312 311 312 317 316 317 318
295 295 296 297 297 298 298 300 299 299 300 299 300 302 302 303 303 302 303 303 304 305 305 305 303 302 302 302 304 305 306 309 310 311 310 310 310 310 311 314 315 316 316 316
298 298 298 298 298 298 298 298 300 300 299 300 302 301 302 302 303 303 303 303 304 305 305 306 306 303 304 302 304 305 305 307 308 310 311 312 312 312 311 312 313 315 314 315
299 299 300 299 299 299 298 299 299 300 301 302 301 302 302 301 302 303 303 304 305 305 306 305 307 305 307 302 303 304 306 306 308 308 309 309 309 309 311 313 314 313 316 316
301 300 299 299 300 299 300 299 298 299 299 301 302 302 302 302 302 303 304 304 305 305 305 306 306 308 307 306 304 305 308 308 309 308 309 309 308 308 313 314 314 314 315 315
299 300 301 300 300 300 299 300 300 298 300 300 302 302 304 303 303 303 304 304 305 305 306 306 305 306 308 304 307 306 308 308 308 308 308 308 307 309 309 313 312 315 315 315
299 300 301 300 301 300 299 300 300 299 299 300 301 303 304 303 304 304 304 305 305 305 305 305 303 305 304 307 303 306 307 307 307 308 308 308 309 310 311 312 313 311 311 311
300 299 300 301 300 299 300 300 299 299 300 301 298 304 305 304 304 305 304 304 303 304 304 305 304 302 306 305 304 306 306 307 307 308 307 308 310 310 309 309 307 311 307 306
300 300 299 298 300 300 300 300 300 300 301 301 298 300 304 304 303 302 303 304 303 305 304 303 301 302 304 305 305 306 306 307 308 306 307 308 308 308 307 306 304 302 300 298
300 300 300 300 300 300 300 298 300 299 300 298 300 301 303 303 303 303 300 303 301 302 300 303 303 304 302 299 300 300 302 303 304 304 306 306 308 307 304 302 299 298 296 295
300 300 300 300 300 300 300 300 299 301 301 299 297 300 301 301 303 302 301 301 301 302 299 304 304 301 296 296 296 298 299 299 299 301 302 303 304 304 301 299 295 295 293 291
301 301 298 297 293 298 299 298 301 301 299 298 298 299 300 300 300 300 301 304 303 301 305 304 299 294 293 293 294 294 295 295 296 296 296 298 297 296 297 293 291 290 289 287
296 293 289 289 286 291 292 293 296 294 296 298 298 298 298 297 299 300 301 298 303 306 306 297 293 292 291 291 291 291 290 291 291 290 290 291 291 289 288 288 287 288 286 286
291 290 289 289 289 288 288 289 292 291 296 299 298 300 300 299 300 300 302 303 299 294 291 290 290 289 289 288 288 288 287 287 287 287 287 286 285 284 283 284 286 287 287 286
287 284 287 286 287 285 285 285 287 290 295 299 302 301 301 297 296 295 294 293 291 291 291 289 288 287 286 286 286 286 286 286 285 284 284 283 284 284 282 282 284 286 287 285
287 284 282 284 283 283 283 283 284 290 293 295 295 295 293 294 293 292 290 286 289 288 287 286 286 285 285 285 285 284 284 284 283 283 283 282 281 282 282 281 282 284 284 284

GFSNW_850_thetae_087.txt.gz
Theta_e
294 294 295 295 295 296 296 296 298 297 299 299 299 299 298 299 300 300 302 303 303 302 303 303 302 304 306 304 313 312 314 316 319 316 315 314 313 314 315 317 317 321 321 321
294 294 295 294 295 296 296 296 297 298 299 300 298 299 299 300 300 300 302 303 304 304 302 300 302 304 304 306 308 306 308 313 311 316 314 315 316 315 315 316 317 318 321 320
293 293 294 294 294 295 296 296 298 297 299 300 299 299 300 300 301 300 300 301 302 304 304 304 305 305 304 304 303 304 311 312 308 310 317 315 314 315 316 318 319 318 319 318
293 293 294 294 294 295 296 295 298 298 299 299 300 299 299 299 300 301 301 300 301 303 303 303 303 302 303 304 306 306 312 312 312 313 312 313 314 314 315 317 319 317 317 317
293 293 293 294 294 295 296 296 296 298 299 299 300 301 300 300 299 302 302 301 302 301 301 302 302 303 304 305 307 311 311 312 311 311 312 313 313 313 314 317 318 318 316 317
293 293 293 294 294 295 295 295 295 297 298 298 300 300 300 300 300 301 301 302 302 303 303 302 302 302 303 304 304 304 306 308 310 312 312 312 313 314 316 317 317 317 318 318
293 294 294 294 295 294 295 295 295 296 298 297 299 299 301 301 301 301 302 302 303 303 303 303 304 303 303 304 304 304 307 307 308 309 311 312 311 313 316 316 317 317 317 317
295 295 296 295 295 295 294 295 295 296 296 298 299 300 300 301 301 302 301 303 304 303 303 306 305 306 305 306 305 305 305 306 307 309 310 312 310 316 316 317 319 317 316 317
297 297 297 297 296 296 296 295 295 296 297 296 298 300 301 302 302 302 302 303 303 303 305 306 307 307 307 307 309 305 305 306 308 309 312 314 313 316 314 316 320 316 317 317
298 298 298 298 298 297 297 297 296 296 297 298 299 300 301 301 302 303 303 303 303 302 304 305 306 304 306 308 307 310 308 308 308 308 308 310 315 314 316 318 317 312 313 316
298 298 298 298 299 298 298 298 298 296 297 297 299 300 300 301 302 304 303 304 303 302 305 305 305 306 306 306 306 311 310 311 310 309 310 312 312 314 315 314 312 312 312 315
298 297 297 298 298 298 298 299 298 298 297 298 298 298 300 301 302 302 302 303 303 304 305 304 305 305 304 306 306 305 308 311 313 312 313 312 310 312 311 311 312 312 312 314
296 296 296 296 297 298 298 299 299 298 299 298 299 300 300 301 301 301 302 303 303 303 303 303 303 304 304 307 307 307 306 307 311 311 310 311 310 310 311 311 311 311 312 314
297 297 297 296 295 296 297 298 298 298 298 299 300 300 300 301 301 302 302 302 303 303 302 303 306 306 304 305 306 306 306 308 309 309 309 309 308 311 310 309 310 313 313 314
295 296 296 296 295 296 298 298 298 299 299 301 300 300 301 300 301 302 302 302 302 303 305 305 307 305 307 307 305 307 306 308 309 310 308 308 308 309 308 308 312 313 314 315
296 299 297 296 297 298 298 299 298 299 299 301 302 301 301 302 301 302 302 303 303 303 304 304 304 305 306 308 307 306 307 307 307 307 308 309 308 308 308 309 310 312 313 315
298 299 299 299 298 298 298 299 300 299 299 300 301 302 303 302 301 301 302 303 303 303 302 304 305 306 307 306 307 306 307 307 307 307 307 307 307 307 308 309 310 310 311 309
299 299 299 299 299 299 298 300 299 299 298 299 301 301 303 302 302 302 302 303 303 303 304 304 305 304 305 307 306 306 305 305 305 305 305 306 307 307 307 308 309 308 306 302
300 300 299 300 300 299 299 300 299 298 299 299 300 301 304 302 303 303 303 303 303 303 303 304 305 306 306 306 306 305 305 304 305 306 306 307 307 307 308 306 305 304 302 297
300 300 299 298 300 299 299 299 299 299 300 300 300 300 304 303 304 303 302 302 304 305 303 303 305 306 303 302 303 303 301 302 304 305 306 306 306 306 306 304 302 301 300 297
299 300 300 299 299 300 300 298 299 299 298 298 299 300 301 302 304 303 302 303 303 305 303 306 305 304 301 298 298 300 300 300 300 301 301 303 303 302 303 302 298 296 293 294
300 300 299 300 300 299 300 299 299 299 300 299 299 300 301 301 303 303 300 304 302 303 300 304 303 299 294 294 295 297 297 298 298 299 299 301 301 300 300 299 296 293 291 292
300 301 297 296 293 297 297 299 301 301 300 298 299 300 300 301 301 301 302 303 303 301 305 304 297 293 292 291 291 293 293 294 294 294 295 296 296 294 294 293 292 291 288 287
295 292 289 289 286 290 290 293 296 294 296 298 299 298 299 298 300 301 303 302 303 305 307 298 292 290 289 288 289 289 289 290 290 290 289 289 290 289 287 287 286 286 284 285
289 289 288 287 288 286 287 288 291 291 295 299 300 300 299 299 300 299 302 303 300 295 293 291 289 287 287 287 287 287 287 287 286 286 286 285 285 284 282 281 281 282 282 282
285 283 285 284 286 284 284 284 286 289 294 297 300 301 297 296 296 296 293 295 292 291 289 288 286 285 285 285 285 285 285 285 284 284 283 282 282 282 281 281 281 281 282 283
284 283 281 282 282 282 282 282 283 289 292 295 294 292 293 294 293 290 289 288 287 287 286 285 285 284 284 284 284 283 283 283 282 282 282 281 280 280 280 280 279 280 280 281

GFSNW_850_thetae_093.txt.gz
Theta_e
293 293 295 295 295 295 296 298 301 301 300 301 301 303 302 301 301 301 304 305 306 307 306 306 306 306 308 307 307 310 312 317 318 317 317 317 318 317 316 319 320 321 322 323
294 293 293 295 295 295 297 298 299 300 300 302 302 302 302 302 302 301 302 304 305 305 306 304 304 304 306 308 309 310 310 314 317 315 316 317 318 318 318 319 320 321 325 324
294 293 293 295 295 295 296 298 301 299 300 300 302 302 301 301 301 301 301 302 303 304 304 304 303 304 306 309 309 307 308 311 313 313 314 314 317 318 318 318 321 321 320 319
293 293 293 294 295 295 296 297 299 299 302 301 301 302 302 301 301 302 302 302 302 302 302 302 303 303 304 307 308 309 310 309 310 310 309 311 312 313 314 315 317 319 319 320
293 293 293 294 294 294 295 296 298 298 299 300 301 301 302 303 302 301 303 303 303 303 302 304 305 305 306 306 307 309 311 311 309 309 310 310 310 310 311 311 313 316 317 317
291 292 293 294 294 294 295 296 297 298 300 300 301 302 301 301 302 302 302 303 303 304 304 303 304 304 305 306 308 309 310 311 311 310 309 311 313 312 312 311 311 312 315 316
293 292 292 294 294 294 295 296 297 298 300 300 300 300 301 302 302 303 302 302 304 304 305 305 305 305 305 306 307 307 309 310 310 311 311 310 309 310 311 311 314 313 312 314
292 292 293 293 293 294 294 296 296 298 300 299 299 300 301 301 301 302 303 303 303 304 305 306 307 308 307 308 308 308 308 309 311 312 312 310 310 312 316 313 313 319 320 319
294 294 294 293 292 292 293 295 297 297 299 299 298 299 299 301 301 303 302 302 302 304 306 307 307 310 308 309 309 308 308 308 311 310 311 312 315 312 311 314 316 316 316 318
295 295 295 295 294 294 293 295 295 296 298 297 298 299 299 299 300 303 303 303 304 304 308 307 307 308 309 311 311 311 310 311 311 312 311 311 311 311 310 316 318 314 314 314
295 296 296 296 296 296 295 295 295 296 297 297 297 297 298 298 299 302 303 305 305 306 307 306 307 308 309 308 309 311 312 312 311 310 312 311 310 313 314 314 312 313 313 313
296 297 297 298 298 297 296 296 296 296 297 298 298 297 298 300 300 301 302 304 304 305 306 307 307 309 309 308 309 311 312 310 312 311 311 311 312 312 311 311 311 312 312 311
296 298 298 298 298 298 298 297 297 297 297 297 298 298 299 298 299 301 302 303 304 304 304 307 308 310 308 309 309 309 309 310 311 311 311 311 311 309 309 309 310 311 310 311
296 297 298 298 298 299 298 297 297 297 297 298 299 299 298 299 300 299 299 301 301 302 304 305 307 309 307 309 309 310 309 310 310 310 310 310 309 309 309 309 310 310 311 309
296 297 297 297 298 298 298 297 297 298 297 300 298 299 301 300 299 300 302 301 301 301 302 303 307 307 307 309 309 310 309 310 310 311 310 310 310 309 310 310 310 310 308 308
296 297 297 297 298 298 297 296 297 298 298 300 302 301 300 301 302 302 302 302 302 302 301 303 305 306 307 310 310 309 308 309 309 310 309 309 309 310 310 310 310 308 306 308
297 297 296 297 297 297 297 299 298 298 298 299 302 302 303 302 302 302 302 302 302 301 302 303 305 306 306 309 309 308 308 308 308 308 308 308 308 309 309 309 309 305 304 304
297 298 297 297 297 297 297 299 299 298 298 298 303 304 302 302 301 303 302 302 301 301 302 303 305 305 306 308 306 306 306 307 307 308 309 309 309 309 309 309 307 306 304 301
299 297 297 297 297 297 298 298 298 298 299 301 301 304 305 302 302 302 302 302 304 302 304 305 306 307 307 307 306 306 307 307 307 307 306 307 308 308 308 308 307 305 304 300
298 297 297 297 297 297 298 299 299 299 300 301 303 304 306 304 303 302 304 302 307 307 305 305 306 306 305 306 305 305 303 302 303 304 305 304 304 303 303 304 305 303 303 299
297 297 298 298 297 298 298 297 300 300 302 301 302 303 305 304 306 306 304 305 306 306 307 307 307 307 304 299 299 298 298 299 299 299 299 300 300 299 299 300 302 300 298 295
299 300 299 299 299 299 302 303 302 302 302 302 303 303 304 304 305 306 305 306 306 307 306 307 307 299 296 296 295 294 294 295 295 295 294 294 293 293 294 297 298 297 295 292
300 300 298 300 298 304 304 302 302 303 303 301 302 304 302 302 303 305 306 305 307 306 308 307 300 295 294 292 292 291 292 291 290 290 290 289 290 291 291 292 292 291 289 287
298 299 297 300 300 299 299 301 302 297 301 301 302 302 305 301 304 304 307 307 306 307 307 303 295 291 290 290 289 288 288 287 287 287 286 285 285 287 287 286 286 286 284 282
293 295 296 295 292 291 292 292 295 292 295 300 302 303 304 305 305 305 306 308 307 303 300 295 290 289 288 288 287 286 286 286 285 285 283 282 283 283 283 282 282 282 282 281
288 288 293 292 295 293 291 290 291 290 293 299 301 305 305 303 303 303 301 303 301 296 292 289 288 287 286 286 285 284 284 284 284 283 282 281 280 280 279 279 279 279 280 280
289 288 287 289 289 289 288 288 288 289 293 302 302 302 300 300 299 297 294 294 292 290 289 287 286 285 285 284 284 283 283 282 281 280 280 279 279 278 277 277 277 277 277 277

GFSNW_850_thetae_096.txt.gz
Theta_e
293 293 293 293 295 295 295 296 302 301 301 302 300 302 302 302 304 302 303 304 306 307 308 308 309 310 312 308 309 309 313 313 319 318 317 317 318 315 315 317 318 320 321 322
292 293 294 294 294 296 296 297 299 300 301 303 302 302 302 303 303 303 302 302 304 304 305 307 307 307 308 309 309 310 310 313 316 316 316 317 317 319 317 316 317 320 323 322
292 293 294 293 294 295 296 298 301 300 301 301 302 303 303 302 302 303 302 302 303 303 305 306 306 305 307 309 308 308 309 309 311 316 314 314 317 318 319 319 321 320 321 320
293 293 294 294 294 295 296 297 299 300 303 302 302 302 303 303 302 302 302 301 302 302 303 304 304 305 304 305 307 308 309 307 308 309 310 310 310 313 315 316 318 319 319 319
292 293 293 293 294 295 296 297 298 298 299 300 302 302 302 302 304 303 303 303 303 302 302 302 302 303 305 305 306 308 310 310 310 309 309 308 309 310 311 312 313 313 316 317
292 292 293 292 294 295 295 296 297 298 299 301 302 302 302 301 302 302 303 303 304 304 303 304 303 305 306 307 308 309 310 310 311 311 310 309 311 310 309 309 310 310 312 314
292 292 292 292 293 294 295 295 297 297 300 299 300 301 301 302 302 303 303 303 303 304 306 306 306 306 306 306 306 307 310 310 311 311 311 312 311 310 310 311 312 312 317 314
292 292 293 293 293 294 295 296 296 297 299 298 299 300 301 301 302 302 303 304 304 304 305 307 305 306 306 306 306 306 307 308 312 310 311 310 310 311 312 316 317 318 319 319
293 293 293 293 293 293 294 295 295 296 298 299 298 300 300 301 302 302 302 303 303 305 305 306 306 308 307 308 308 307 307 309 311 312 311 312 314 312 311 312 316 315 315 315
292 293 294 294 294 294 293 294 295 296 297 297 298 300 300 299 300 302 303 303 303 304 306 305 307 307 310 312 310 310 309 311 311 312 313 312 312 311 311 313 318 314 314 314
293 294 294 295 295 295 295 294 294 296 297 297 298 298 298 299 300 301 301 304 305 306 305 305 306 308 309 309 311 310 310 312 312 311 311 312 311 311 314 314 312 312 313 313
293 294 294 295 295 295 295 295 295 294 297 297 298 298 298 299 299 299 302 303 300 305 305 306 307 308 311 309 309 311 312 310 311 310 310 311 311 313 313 311 310 310 312 312
294 294 295 296 296 296 296 297 296 296 296 297 297 298 299 299 299 299 302 303 302 304 303 306 307 308 309 310 309 309 311 310 310 312 312 312 312 312 310 310 310 311 311 311
294 294 295 296 298 298 298 297 297 296 297 297 298 299 299 299 299 300 300 301 300 300 303 302 306 307 306 310 310 311 310 310 311 312 311 311 311 311 311 311 311 311 311 310
295 295 295 297 298 298 298 298 297 297 297 300 299 299 299 301 300 299 300 301 300 301 303 303 304 305 307 308 309 309 309 311 312 312 311 311 311 310 310 310 311 311 309 308
295 295 296 297 298 298 298 297 297 297 298 298 303 301 302 301 301 302 302 300 302 303 302 302 303 304 306 308 309 309 310 310 310 311 310 310 309 309 310 310 310 309 307 306
296 296 296 297 297 298 298 298 298 297 297 298 302 301 301 300 302 302 302 302 303 302 302 302 303 304 305 307 307 307 308 307 308 308 309 310 310 309 309 310 309 307 305 303
296 296 297 297 297 297 297 299 299 297 298 298 302 303 302 302 302 303 303 302 302 301 302 303 305 305 305 306 306 306 306 308 308 309 309 309 308 309 309 309 309 308 307 303
297 296 297 297 297 296 297 298 298 298 298 299 300 302 304 301 300 301 302 302 303 301 302 305 305 306 306 307 307 308 306 306 305 305 306 307 306 306 305 305 305 307 306 304
297 297 298 296 297 298 297 298 299 299 299 300 301 303 304 302 302 302 301 301 305 306 304 304 306 305 305 304 302 301 301 301 301 302 302 301 302 302 302 301 302 303 303 301
297 297 298 297 297 297 298 297 299 299 301 301 302 303 305 304 305 303 303 304 306 306 307 307 307 306 300 298 297 297 297 297 297 297 298 297 296 296 296 297 297 300 300 299
298 299 298 298 297 298 300 301 301 302 302 303 305 304 304 304 305 305 304 305 305 306 307 308 307 298 295 294 293 293 293 292 292 292 293 291 290 290 292 294 294 295 295 294
299 299 299 300 299 303 303 302 302 303 304 303 303 305 303 304 304 305 306 305 305 306 308 306 298 293 292 291 290 290 290 288 288 288 287 287 286 288 289 289 289 289 289 288
300 299 299 301 301 301 299 300 302 298 303 302 303 304 304 302 304 304 305 305 306 306 307 300 293 291 290 289 288 287 287 286 286 286 285 284 283 283 285 285 285 285 284 283
295 297 298 296 294 293 293 295 296 293 297 300 303 303 303 303 303 302 305 306 307 301 297 294 290 288 288 287 286 285 285 285 285 284 283 281 281 280 281 282 282 282 282 281
290 291 294 294 295 294 293 294 294 292 295 300 302 304 305 303 304 305 301 303 298 295 292 289 288 286 286 286 285 284 283 283 283 283 282 280 279 279 278 279 279 279 279 278
290 289 289 292 291 291 291 291 290 292 295 302 302 304 301 301 300 297 294 294 292 290 288 287 285 285 285 284 284 283 282 282 281 280 280 279 278 278 278 277 277 277 277 277

GFSNW_850_thetae_099.txt.gz
Theta_e
292 292 292 293 294 295 295 295 296 300 300 301 300 300 300 300 301 302 303 303 302 303 305 307 308 310 311 309 310 309 309 312 318 318 316 316 314 314 313 315 314 317 318 318
293 293 292 294 294 294 295 296 297 298 299 301 298 300 301 300 301 302 303 303 303 303 303 304 308 308 309 309 309 308 308 311 315 320 316 316 317 317 318 313 314 315 317 318
292 293 292 294 294 294 295 296 297 300 300 300 301 301 303 303 303 302 302 303 302 302 302 304 306 306 307 307 309 308 309 308 308 311 314 313 311 312 318 316 315 314 314 315
292 293 293 293 294 294 295 296 296 298 300 301 300 301 302 302 303 303 302 302 301 301 301 302 303 304 304 305 307 307 308 309 309 309 309 308 308 308 312 314 317 320 319 317
291 291 292 294 294 294 295 296 296 298 298 299 300 301 302 302 301 302 303 303 302 301 300 301 301 302 302 307 307 307 308 310 311 310 311 310 309 308 308 309 310 311 312 312
292 291 291 293 294 294 295 294 296 296 297 297 297 298 301 302 302 302 302 303 303 303 304 305 304 305 305 306 306 308 309 309 310 312 311 311 310 309 309 309 309 308 308 310
291 292 293 291 292 293 294 295 296 297 295 296 298 299 299 301 302 302 302 302 303 303 303 304 305 305 306 305 305 305 309 309 310 312 310 312 310 311 310 310 312 312 316 317
291 293 293 293 292 292 293 294 295 295 294 297 298 298 300 300 300 301 302 302 303 304 303 304 304 304 304 305 304 304 305 309 310 311 310 311 310 311 314 315 317 315 315 314
291 292 293 293 293 293 293 293 295 296 296 295 296 298 299 299 301 300 302 302 303 303 304 305 305 304 305 305 306 305 305 306 308 309 310 311 314 313 310 311 318 314 314 314
292 292 292 293 293 293 293 293 294 295 296 296 296 297 298 298 299 300 301 302 303 303 298 302 304 305 306 309 309 306 305 306 308 308 312 312 311 311 311 312 315 314 312 313
291 291 292 293 293 294 294 294 293 295 295 295 295 296 297 298 299 300 300 299 302 303 305 303 303 302 306 310 310 309 306 308 307 308 308 310 310 311 313 313 312 311 313 312
291 292 292 293 294 294 294 295 295 294 294 296 297 298 298 298 298 299 300 300 300 301 303 302 304 304 306 308 311 307 310 309 310 309 308 309 310 311 312 311 310 311 311 311
291 292 293 293 294 294 295 296 296 296 295 295 295 295 296 297 298 298 299 300 300 300 299 302 305 306 306 308 309 308 310 310 310 310 310 311 310 311 312 311 311 311 311 310
293 293 293 294 294 295 296 296 295 296 296 294 295 296 297 297 297 298 299 299 300 300 299 300 302 304 306 308 305 306 309 310 311 312 311 310 310 310 310 310 311 310 309 308
294 294 294 294 295 295 297 297 296 296 296 297 298 298 298 299 299 299 299 300 300 301 301 301 301 303 305 305 306 308 308 310 311 311 310 310 310 309 310 310 310 310 309 306
295 295 295 295 295 297 297 298 298 297 297 296 298 299 300 300 299 301 300 299 300 301 301 301 302 303 304 303 305 308 307 307 305 308 308 308 309 309 310 309 308 308 307 305
297 296 295 295 296 297 297 298 298 298 297 297 298 297 301 301 301 300 301 301 301 301 302 301 301 301 304 302 304 306 306 306 308 308 309 308 308 307 307 308 308 307 307 306
298 296 295 296 297 297 297 298 299 297 297 298 298 296 300 301 302 302 302 302 301 301 301 301 301 303 303 302 304 305 306 307 304 305 305 305 305 305 305 305 306 306 305 304
298 296 296 297 297 297 297 298 298 297 298 298 298 298 300 301 300 301 302 302 301 301 301 301 302 302 302 305 303 302 301 301 301 301 302 302 302 301 302 301 301 302 302 302
297 296 297 296 298 297 297 298 298 298 298 299 299 300 300 301 301 300 301 301 302 302 300 303 304 303 301 298 297 297 296 296 297 297 297 297 297 296 296 297 297 299 301 300
297 297 297 297 298 297 297 297 298 298 299 298 300 301 302 302 302 302 301 302 302 303 303 304 304 303 298 294 293 293 293 294 293 293 293 293 293 293 292 293 294 296 296 297
297 298 297 297 297 298 298 299 299 300 299 300 299 302 303 302 302 301 301 303 302 305 303 304 303 295 292 291 290 290 290 289 289 289 288 289 289 288 289 290 292 293 293 293
297 298 298 298 297 299 301 301 298 296 301 302 303 301 303 303 302 300 301 303 302 304 306 299 294 291 289 288 288 287 287 287 286 286 286 285 285 286 286 287 287 288 289 289
299 299 300 299 297 299 297 299 299 298 301 302 304 303 302 301 301 301 302 300 303 304 302 294 291 289 288 287 286 285 285 285 285 284 283 283 282 282 283 283 284 284 285 284
295 296 296 295 294 294 294 295 296 295 297 300 302 301 302 301 301 301 301 302 302 296 293 291 288 287 286 286 285 284 283 284 284 282 281 280 280 281 281 281 281 281 281 281
290 290 294 294 294 293 292 293 293 293 297 300 301 300 303 302 298 302 297 301 295 291 289 287 286 285 285 285 284 283 282 282 281 281 280 279 279 278 278 278 278 278 278 278
290 289 288 291 291 290 290 290 290 293 296 301 300 301 299 301 297 294 292 288 290 288 287 285 285 284 283 284 283 282 281 281 280 279 279 278 278 278 277 277 277 277 277 277

GFSNW_850_thetae_102.txt.gz
Theta_e
293 291 292 291 292 294 294 295 295 297 298 298 298 301 300 299 300 300 300 302 303 303 303 303 309 309 308 309 308 311 309 310 315 317 315 314 316 314 316 317 317 316 317 317
292 293 293 292 293 294 294 296 296 296 298 295 300 299 300 301 301 302 300 302 302 302 302 302 306 309 307 308 308 308 307 311 313 317 316 315 312 313 318 316 314 316 317 315
294 292 292 293 294 294 295 295 295 297 299 299 299 301 300 301 302 302 302 303 302 301 300 302 303 305 306 305 307 305 306 309 307 311 316 314 310 310 315 316 314 315 314 314
293 293 292 292 293 294 294 294 294 296 290 295 298 300 300 301 302 302 302 302 302 301 299 299 300 302 302 303 306 309 307 310 309 309 310 310 309 308 309 315 314 315 317 319
293 292 291 291 293 294 294 294 296 296 296 297 297 298 300 301 300 302 303 302 302 302 302 302 304 305 304 304 306 307 308 310 309 310 309 310 311 310 309 310 312 311 310 309
292 292 292 291 292 294 294 294 294 295 295 295 294 296 299 299 300 301 301 302 302 302 304 304 304 304 304 303 305 305 308 308 309 310 310 311 308 309 309 309 310 311 309 316
292 292 291 292 292 294 293 294 295 296 294 295 296 297 297 299 300 301 301 301 302 302 303 302 303 304 304 304 304 304 306 307 306 309 309 310 310 309 309 315 315 313 314 313
292 291 291 293 293 292 293 293 294 295 291 295 295 297 297 298 299 300 300 301 301 302 302 301 303 302 303 303 304 302 304 306 304 307 308 309 308 311 311 314 315 314 314 313
292 292 290 292 293 293 292 292 293 294 296 294 295 296 297 298 297 299 300 300 301 303 301 300 304 303 304 304 304 304 302 304 304 306 308 309 311 312 311 310 316 313 313 313
292 293 292 291 293 293 293 293 293 294 295 295 295 295 296 297 297 297 298 299 299 302 299 302 302 303 304 307 308 305 302 302 305 305 306 310 310 310 310 311 312 313 312 311
291 291 292 291 292 293 293 293 293 293 294 294 295 295 295 295 296 298 299 298 300 300 303 303 302 301 305 306 308 309 304 302 301 304 305 307 309 311 311 312 311 311 311 311
292 292 291 291 292 293 294 294 294 294 294 294 295 296 296 297 297 298 298 299 299 300 301 302 302 303 305 306 309 305 308 305 306 306 306 307 309 310 312 311 310 310 310 309
292 292 291 291 292 293 293 294 294 294 295 294 295 294 295 295 295 297 298 299 299 299 298 299 303 304 305 305 305 305 308 307 309 308 309 310 310 311 311 310 310 310 309 309
291 291 291 291 292 293 294 294 294 295 295 295 295 295 296 296 296 296 296 298 299 300 300 299 302 302 303 305 305 305 306 307 310 311 310 310 310 310 310 310 309 309 308 306
291 292 292 293 293 293 294 294 295 295 295 295 297 297 300 300 297 298 298 299 300 300 301 300 300 301 303 304 305 307 307 306 308 310 309 308 310 309 310 309 308 308 307 305
292 293 294 294 294 294 295 296 296 296 296 296 297 297 297 299 299 298 299 298 298 300 301 300 301 301 303 304 305 306 306 306 306 306 307 307 306 307 308 307 306 306 306 305
294 295 295 295 295 295 296 297 298 298 297 296 297 295 298 299 299 299 299 300 299 299 301 300 301 301 302 301 304 304 307 307 305 303 306 304 302 302 304 305 305 305 304 303
296 296 296 295 295 295 296 298 298 297 297 297 298 294 297 301 301 301 300 300 300 301 300 300 301 301 301 302 303 301 303 302 302 302 302 301 300 302 302 302 302 302 302 300
297 297 296 296 295 297 297 297 297 297 297 297 297 294 295 300 300 301 301 301 301 300 300 299 300 299 303 303 300 297 295 296 297 299 300 299 299 298 299 298 299 300 300 299
297 296 296 296 297 297 297 297 297 297 298 298 297 297 298 300 299 300 300 300 299 301 301 300 301 302 297 295 293 293 293 293 295 296 294 294 293 292 293 294 294 296 297 297
296 297 297 297 297 297 297 296 298 297 298 297 298 299 301 301 301 301 300 301 301 301 300 301 302 302 294 291 290 290 291 291 291 291 290 290 289 289 289 291 293 294 294 295
297 297 297 297 297 297 297 298 298 297 297 297 297 299 300 301 301 300 300 302 301 303 301 300 300 292 290 289 288 288 288 288 287 287 286 287 287 287 287 288 290 291 292 292
297 298 297 297 296 296 295 299 298 293 296 300 300 297 302 302 302 300 301 302 302 302 304 295 292 289 288 287 286 286 285 286 285 285 284 284 284 285 286 286 286 287 288 288
299 298 298 298 296 295 294 297 299 297 298 301 302 301 301 300 298 296 302 299 301 297 300 292 290 288 286 286 285 284 284 284 284 283 283 283 283 283 283 283 283 284 284 284
295 295 294 294 293 294 294 295 295 295 297 300 301 300 300 299 298 300 299 301 297 293 290 289 287 286 285 285 284 283 282 282 282 282 281 281 280 281 281 281 281 281 281 281
290 289 293 293 292 290 291 292 292 294 297 300 301 297 299 296 300 299 295 296 289 288 287 286 285 284 284 284 283 282 282 281 280 280 279 279 278 279 278 278 278 278 279 279
289 287 288 290 289 288 289 289 290 293 296 300 296 298 297 298 292 291 290 285 286 287 285 285 284 283 283 283 282 281 280 280 279 279 278 278 277 277 277 277 277 277 277 277

GFSNW_850_thetae_105.txt.gz
Theta_e
293 293 291 293 291 293 294 294 288 297 296 296 297 298 300 300 300 300 301 300 301 303 303 302 304 310 307 307 308 310 306 308 311 314 314 313 313 309 310 314 316 314 313 313
292 292 292 293 292 294 294 294 295 295 297 295 294 299 300 300 300 301 301 301 302 302 302 302 302 303 305 306 307 307 306 309 311 314 314 313 312 310 315 314 314 316 316 315
292 293 293 292 292 294 294 294 293 295 297 298 297 298 299 300 300 301 301 302 302 302 300 302 301 302 303 303 305 306 306 308 309 311 310 314 312 309 314 315 313 315 313 316
292 293 293 292 292 294 294 294 294 294 289 294 297 298 298 299 300 301 302 301 302 302 301 301 303 304 304 304 307 306 305 308 308 309 309 312 313 309 309 315 314 314 313 312
292 293 293 292 292 293 294 294 295 296 295 295 295 296 296 299 298 300 302 302 301 301 302 303 304 304 303 304 304 306 308 309 308 309 310 310 312 311 310 311 314 315 316 310
292 294 292 292 291 292 294 294 293 294 294 294 293 295 298 297 298 300 300 300 300 301 301 303 302 302 303 303 304 304 307 309 309 307 309 308 309 310 310 310 311 314 315 314
293 293 292 291 291 292 293 294 294 295 295 295 296 296 296 297 297 299 300 300 300 301 301 302 302 302 303 303 302 303 304 306 308 310 308 307 310 310 312 315 313 312 314 316
293 293 292 291 291 293 292 293 293 294 291 294 295 295 295 296 297 298 299 299 299 300 302 300 302 301 302 302 302 302 302 305 307 309 309 307 309 311 310 314 315 313 312 313
292 292 292 291 291 294 293 292 293 293 294 294 295 295 295 295 296 296 298 299 299 302 299 297 301 302 304 304 304 302 302 302 306 306 307 305 306 309 310 311 315 313 313 312
291 292 292 292 291 293 293 293 292 293 293 293 294 294 294 296 296 296 296 297 299 301 297 300 301 302 303 301 305 307 301 301 304 304 303 306 307 309 308 312 314 312 311 311
291 291 292 293 292 292 293 293 293 293 293 293 294 294 295 295 294 295 297 296 297 297 299 303 303 300 302 303 305 306 305 301 298 301 303 306 307 310 310 310 310 312 310 309
290 292 292 292 291 292 293 293 293 293 293 293 294 294 295 295 295 296 297 298 298 300 300 300 299 300 303 305 305 304 307 304 304 303 303 304 308 310 311 310 309 310 309 309
291 292 292 292 291 291 293 294 294 294 294 294 294 294 294 294 294 296 297 297 298 298 299 298 299 302 301 305 304 306 305 305 307 305 305 309 310 310 311 310 309 309 309 308
291 292 292 292 291 291 292 293 293 294 294 295 295 295 295 295 295 295 295 295 296 299 299 298 298 300 301 302 304 305 304 303 309 309 309 309 310 309 309 310 309 307 306 305
290 291 291 291 291 291 292 293 293 294 294 294 295 295 296 296 299 296 296 295 295 297 299 300 299 299 301 302 303 306 304 304 307 307 305 308 309 307 308 308 306 305 305 304
290 291 291 291 292 292 293 294 294 294 294 295 294 296 297 298 298 297 297 297 298 299 300 300 300 301 302 301 305 305 305 305 301 300 303 303 303 304 304 305 304 304 304 303
290 291 292 293 294 294 295 295 297 296 295 296 296 294 296 297 297 298 298 298 297 298 298 299 300 300 300 301 302 301 304 304 302 301 300 300 299 299 300 302 303 302 302 302
291 292 293 294 295 295 294 295 296 297 296 296 298 294 295 300 300 299 299 299 299 299 299 299 299 300 299 302 301 297 297 299 298 297 297 297 297 297 298 299 300 300 300 300
293 294 295 296 295 296 295 295 296 297 297 297 297 293 294 300 299 300 300 300 299 299 300 299 299 298 302 300 297 294 293 293 294 296 297 295 295 293 294 295 296 296 296 297
295 295 296 296 295 295 296 297 296 296 297 297 296 296 294 300 299 299 300 300 298 301 300 299 300 301 294 292 291 291 291 291 292 294 291 289 289 289 290 291 293 293 294 295
295 296 296 296 296 297 297 296 297 297 296 296 296 297 297 300 300 300 299 300 298 299 298 300 302 299 293 290 289 289 289 289 289 288 287 287 287 286 287 289 291 292 292 292
296 296 297 297 297 297 296 297 297 298 296 296 296 297 298 301 301 300 299 300 300 301 299 301 299 290 288 288 287 287 287 287 287 286 285 284 285 285 285 286 287 288 289 290
297 298 297 296 296 296 294 296 298 297 295 297 298 300 300 300 300 300 300 302 303 301 299 294 291 289 287 286 285 284 285 285 284 284 283 283 283 284 284 284 285 285 286 287
298 297 298 295 294 295 292 295 296 296 298 298 299 299 300 300 299 299 299 300 301 302 298 290 288 287 286 285 284 283 283 283 282 282 281 282 282 282 282 282 283 283 283 284
295 295 294 290 292 293 294 295 295 295 296 299 300 299 300 296 297 297 299 300 293 291 289 286 286 286 285 284 283 283 282 281 280 280 280 280 279 280 280 280 280 281 281 281
290 289 291 291 291 290 291 291 292 294 296 299 300 299 298 296 299 297 291 294 290 288 286 285 285 284 284 283 282 281 281 280 280 279 279 278 278 278 278 278 278 278 278 278
288 286 287 288 288 287 287 288 289 292 294 299 297 299 295 295 292 290 288 283 283 285 285 284 284 283 282 282 282 281 281 280 279 279 278 277 277 277 277 277 277 277 277 277

GFSNW_850_thetae_108.txt.gz
Theta_e
293 293 293 291 293 292 294 294 287 297 296 294 295 296 298 299 299 299 300 300 301 301 303 304 304 304 303 303 304 309 307 308 310 311 313 312 310 308 308 311 312 312 312 312
293 292 292 292 293 293 294 294 294 295 296 294 291 296 299 299 299 300 301 301 301 302 303 303 302 303 302 302 305 306 306 308 311 313 312 311 310 310 313 309 311 313 314 313
294 292 293 293 292 293 294 294 289 294 297 297 296 292 296 298 299 300 300 301 301 302 302 302 302 303 304 303 305 306 306 309 308 310 309 309 313 309 308 310 310 311 313 318
293 292 293 293 292 293 294 293 289 294 291 292 295 295 297 297 298 299 300 301 300 301 302 302 303 304 304 304 305 307 306 309 308 307 308 310 312 313 310 314 312 312 313 311
292 292 292 293 292 293 294 294 294 294 294 294 295 294 295 297 296 298 300 300 299 300 301 301 302 302 303 303 304 304 306 306 308 307 306 305 311 311 310 311 313 314 312 314
293 292 293 294 292 291 293 293 294 294 293 294 292 294 296 295 296 297 299 299 299 300 300 299 300 301 301 302 303 303 304 307 307 307 307 307 309 310 310 311 311 312 312 314
292 292 293 293 292 292 292 293 293 293 292 294 295 295 295 295 295 296 297 298 299 299 299 301 302 301 301 301 301 302 303 304 306 309 308 304 307 310 309 311 313 311 313 314
291 292 293 293 292 291 292 293 293 293 291 294 294 294 295 295 295 296 297 298 298 299 301 299 301 301 301 301 301 301 301 304 305 308 309 307 309 311 310 311 314 312 314 313
291 292 293 293 292 291 292 293 293 293 293 292 294 294 295 294 294 295 296 296 297 300 297 295 300 301 303 304 303 301 301 302 304 306 307 307 305 307 307 310 314 313 313 313
291 292 293 292 292 291 293 294 292 293 293 293 293 294 294 295 295 294 295 296 297 298 295 299 300 302 301 300 303 306 302 301 303 305 306 307 305 306 307 312 311 312 312 311
291 291 292 293 293 291 292 293 293 292 292 292 293 294 295 295 294 293 294 294 295 297 296 299 301 302 301 302 301 304 306 304 299 301 302 304 304 308 310 309 310 311 311 310
292 291 291 292 293 293 291 293 293 293 293 292 293 293 294 293 293 293 295 295 297 298 296 298 299 299 302 301 304 303 303 305 304 303 302 302 306 309 310 310 308 309 308 312
290 290 290 291 292 292 292 292 293 293 293 293 293 293 294 294 293 293 295 296 297 298 298 296 296 299 299 301 302 305 304 301 305 304 305 306 308 309 309 308 309 309 310 310
290 290 291 292 292 292 292 292 293 294 293 294 294 294 294 295 295 295 294 295 297 298 298 297 297 299 299 300 301 302 303 302 305 306 306 308 308 308 308 306 306 305 304 303
289 290 291 292 293 292 291 292 292 293 293 294 294 294 295 295 296 297 296 294 294 294 296 299 299 298 299 300 303 304 304 304 305 307 304 306 304 304 306 305 304 303 301 301
290 290 291 292 292 292 291 292 292 293 293 295 293 295 295 296 297 298 296 295 294 295 297 298 299 300 301 299 301 303 300 300 299 298 299 298 299 298 300 301 302 302 301 300
289 289 290 291 291 292 292 294 295 295 293 295 294 294 296 297 296 297 296 296 296 297 298 297 298 299 299 298 301 299 299 298 297 297 300 297 296 295 296 299 299 298 298 298
289 290 290 291 292 293 293 293 296 295 294 295 293 294 294 299 298 297 297 297 297 297 297 298 298 299 298 299 299 295 295 296 296 296 295 294 294 296 294 296 297 296 296 295
289 290 291 292 293 294 294 294 294 294 295 296 296 293 292 298 298 299 298 298 297 298 298 297 298 298 300 297 295 293 291 291 292 295 294 292 291 290 290 291 292 292 293 294
290 292 293 294 295 295 295 295 295 295 296 297 294 295 292 298 297 297 298 299 294 297 298 298 300 299 293 291 290 290 289 289 290 292 290 288 286 286 287 288 289 290 291 292
293 294 295 295 295 296 296 296 296 296 296 296 296 296 294 298 298 300 298 300 298 299 297 299 300 298 291 289 288 288 287 288 288 287 286 286 285 285 284 284 287 288 290 290
294 296 296 297 296 296 296 296 297 297 296 295 295 296 296 299 300 299 299 299 298 300 297 300 298 289 288 287 286 285 286 286 285 285 285 284 284 284 285 285 285 286 287 288
295 297 297 296 295 297 293 295 298 297 295 295 296 298 298 299 300 299 300 301 300 300 298 293 290 288 286 286 285 284 284 284 284 283 283 282 282 283 283 283 284 284 285 285
297 297 296 295 294 295 292 296 295 295 297 297 297 299 299 299 299 299 299 300 299 301 294 290 287 287 285 284 284 283 283 282 281 281 281 280 280 280 280 281 281 282 282 282
295 295 292 295 291 293 294 295 295 295 296 297 298 298 299 298 299 298 298 299 292 290 289 286 286 285 284 283 283 282 281 280 280 279 279 278 278 278 279 279 279 279 279 279
290 289 291 291 289 288 290 291 291 293 295 297 298 299 298 297 298 297 292 293 291 286 285 285 284 283 283 282 282 281 280 279 279 278 277 277 277 277 277 277 278 278 277 278
288 285 286 287 286 285 286 287 288 291 293 298 296 297 294 291 291 290 286 283 284 285 284 284 283 282 282 281 281 281 280 279 279 278 277 277 276 276 276 277 276 276 276 276

GFSNW_850_thetae_111.txt.gz
Theta_e
294 292 294 291 293 292 294 293 291 296 296 294 295 296 297 298 299 299 300 300 300 301 302 303 304 303 303 302 303 305 307 309 311 310 313 312 307 307 311 313 313 314 314 314
294 293 293 291 293 292 294 293 293 294 295 293 294 296 298 299 299 299 300 301 301 302 302 302 303 302 303 303 304 305 306 310 312 311 312 311 312 310 310 310 312 312 315 313
294 294 292 292 293 293 294 293 290 293 297 296 295 295 296 297 297 299 299 300 301 300 301 302 302 302 303 302 303 305 304 309 310 311 310 310 312 313 313 312 310 311 314 319
292 294 292 293 293 292 294 293 291 293 292 295 295 295 296 296 297 297 299 300 299 300 301 301 302 302 302 302 304 303 306 307 308 308 307 310 311 312 312 313 312 310 311 313
293 293 292 293 292 292 293 293 293 293 293 294 295 295 295 296 296 297 298 300 299 299 300 300 301 300 300 302 303 302 303 308 307 308 307 306 307 312 312 310 314 314 314 317
293 291 293 293 294 293 293 293 294 294 292 294 294 295 295 295 295 296 297 297 297 300 299 298 298 299 299 300 302 302 303 305 306 306 307 307 309 311 311 310 310 313 314 317
292 293 292 292 294 292 292 293 293 293 292 294 294 295 295 295 294 295 295 296 298 299 298 299 301 300 300 301 301 301 303 303 305 308 308 308 307 311 310 310 310 312 315 316
291 292 292 292 294 292 292 292 293 293 293 294 294 294 294 294 294 295 295 296 297 296 299 302 302 302 302 302 302 302 302 303 306 307 307 306 310 309 310 310 314 313 315 315
291 292 291 292 294 293 291 291 292 293 292 293 293 294 294 295 295 296 296 295 295 298 299 299 302 302 302 303 302 301 301 302 305 304 307 306 306 306 307 310 315 314 314 315
291 291 292 292 294 293 292 291 292 293 293 292 292 294 295 294 294 295 295 295 295 297 298 302 303 303 302 304 304 305 305 304 304 304 305 305 305 305 308 313 313 313 313 313
291 291 292 292 293 293 292 291 293 293 293 292 292 293 292 293 294 295 294 294 296 297 299 299 300 301 301 302 301 303 305 305 304 304 305 304 304 308 311 310 310 311 311 310
291 290 291 292 293 293 293 291 293 293 293 292 292 293 293 292 293 294 293 293 295 297 298 298 299 300 301 300 304 302 305 305 305 304 304 303 307 308 308 308 309 309 310 310
291 292 290 291 292 293 293 291 292 293 293 293 292 293 293 293 293 293 294 295 295 297 296 297 296 298 300 300 300 301 302 303 306 305 306 306 306 307 306 306 307 309 310 309
291 290 292 291 291 293 293 292 292 292 293 293 293 293 294 294 294 294 293 293 295 296 295 296 297 298 299 300 300 301 301 302 304 304 305 305 301 304 304 303 308 305 304 303
291 291 290 290 291 292 292 292 292 292 293 293 293 293 294 295 294 294 295 294 294 294 294 296 296 298 299 300 301 304 302 301 301 304 298 301 297 298 300 300 300 300 302 299
291 289 290 291 292 293 292 293 292 292 292 293 294 294 294 295 296 296 295 295 294 294 294 295 296 297 299 300 300 302 300 297 296 296 297 295 297 297 297 297 297 299 301 298
291 289 290 292 292 293 292 292 294 293 292 293 295 295 295 296 296 296 295 294 294 294 295 296 298 298 298 299 299 298 297 297 295 296 297 295 293 293 296 295 296 296 296 296
291 289 290 292 292 292 292 293 295 294 293 293 296 295 295 297 297 296 295 294 295 296 297 297 298 298 298 300 297 295 293 294 293 293 292 291 291 292 291 293 293 294 293 293
290 289 290 291 291 292 292 292 292 292 294 295 295 296 295 297 297 298 297 296 297 297 298 297 298 299 299 297 295 292 291 289 289 291 291 288 287 288 288 289 290 290 290 291
289 290 291 292 293 292 293 294 295 294 294 294 296 295 295 297 297 298 298 297 299 299 299 298 299 299 292 290 289 288 288 288 288 288 288 286 286 285 286 285 286 287 288 289
290 292 293 294 294 295 295 295 296 295 296 295 296 295 295 297 298 300 298 299 298 299 298 299 300 297 290 287 287 286 286 286 285 284 283 283 283 283 283 285 286 287 287 287
291 294 294 295 296 296 296 296 296 296 297 294 295 295 295 297 299 299 298 300 299 299 297 300 298 289 287 286 285 284 284 284 284 283 282 282 283 282 281 283 284 285 285 286
292 295 296 296 295 297 293 296 298 297 295 294 295 296 296 296 299 299 300 301 299 299 300 296 290 288 286 285 284 283 282 282 282 282 282 281 281 281 282 282 281 282 282 283
295 296 295 294 293 294 294 296 297 294 296 295 296 297 298 297 300 299 301 299 299 300 296 292 288 287 285 284 283 283 282 281 280 280 280 280 280 280 280 280 281 281 281 281
295 295 293 293 291 292 294 294 294 294 296 297 297 298 298 299 299 300 299 300 294 291 290 287 286 285 284 283 282 281 281 280 280 279 279 278 278 278 278 279 279 279 279 279
290 289 291 291 290 289 289 291 291 292 294 296 297 299 298 298 298 298 294 295 293 288 286 285 284 283 283 282 281 281 280 280 279 279 278 277 277 278 277 277 277 277 277 277
287 284 285 286 286 285 285 287 288 290 293 298 297 299 296 293 292 290 286 286 286 285 283 283 282 282 281 281 280 280 280 279 278 277 276 276 276 275 275 276 276 276 276 276

GFSNW_850_thetae_114.txt.gz
Theta_e
294 294 293 292 292 292 293 294 300 296 295 299 298 300 299 298 300 300 301 301 302 302 303 303 303 305 304 303 303 305 305 308 312 311 312 312 308 310 311 311 310 311 313 313
293 294 294 292 293 292 293 296 296 295 296 300 299 299 299 299 299 299 301 302 302 302 303 303 302 303 302 302 303 305 305 308 310 311 313 312 313 308 311 313 312 312 314 313
293 294 293 291 293 293 293 296 298 296 296 297 298 298 299 299 297 298 300 301 301 301 302 302 302 303 303 302 302 304 304 309 309 309 312 313 313 313 313 310 313 312 312 313
293 294 294 291 293 293 294 295 297 297 300 298 298 298 298 298 298 297 298 301 301 300 301 302 302 302 302 302 302 303 304 305 309 308 308 308 312 314 313 314 311 312 312 311
293 293 295 292 293 292 294 295 296 295 296 297 298 297 298 297 298 297 298 300 300 299 301 302 302 302 302 302 301 302 304 304 306 306 307 309 309 313 313 313 314 313 312 312
294 293 293 293 294 292 294 293 294 296 295 296 297 298 297 297 296 296 298 299 298 299 301 300 299 300 301 302 303 303 304 304 304 307 307 309 311 313 312 312 313 315 316 315
293 293 292 293 294 293 293 294 295 295 296 296 297 296 296 297 296 296 296 296 298 298 298 298 301 303 303 304 304 303 305 305 304 307 307 311 309 310 311 311 312 314 314 317
293 292 291 292 293 294 292 292 294 294 296 295 295 295 296 295 295 296 296 296 297 297 299 303 303 303 303 303 304 305 305 305 305 306 308 306 309 308 310 312 314 314 315 317
293 292 292 293 292 294 293 293 293 294 295 295 294 295 295 296 297 297 297 297 296 299 301 302 303 302 303 303 304 305 304 305 306 305 305 307 308 307 307 310 317 315 315 317
293 292 292 292 292 294 294 294 292 294 294 294 294 296 296 296 296 297 296 297 296 299 301 302 302 303 303 304 304 304 305 306 307 306 304 304 306 308 309 315 316 313 315 312
293 292 291 291 292 294 294 294 291 293 294 294 293 293 294 294 294 296 296 297 298 299 301 301 301 302 302 303 302 304 306 307 307 306 306 305 306 308 311 310 311 312 312 311
294 291 291 292 292 294 294 294 292 292 293 295 293 293 294 294 294 295 296 296 296 297 300 300 300 301 301 302 304 304 306 305 307 306 306 306 306 307 308 309 310 311 311 311
293 291 290 292 292 294 293 294 292 292 293 293 294 294 294 293 293 294 295 295 296 297 297 298 298 298 300 301 302 302 302 302 305 306 307 305 301 304 305 305 307 308 309 308
291 291 291 291 292 293 293 293 292 292 293 295 295 294 293 293 294 294 294 295 296 296 296 297 299 299 299 301 299 300 301 301 302 304 302 300 298 297 300 301 300 300 301 301
291 291 292 291 291 292 293 293 293 293 293 295 295 294 295 295 295 295 295 295 295 295 296 297 298 298 299 300 301 302 301 300 300 302 297 298 295 295 297 299 297 298 298 297
291 291 291 292 291 292 293 293 293 292 293 294 296 296 295 295 296 295 296 296 296 295 295 295 297 297 299 301 301 301 298 297 295 295 296 294 295 294 295 296 296 296 295 297
291 290 290 291 291 292 293 294 293 292 292 293 295 297 297 296 296 296 295 295 295 295 295 297 298 299 299 300 300 299 296 295 294 294 296 295 292 292 293 294 294 295 292 294
291 290 290 291 292 292 292 292 294 293 293 293 295 297 297 297 298 297 296 295 295 296 297 298 299 299 299 300 299 296 294 293 292 293 291 290 290 291 291 292 293 293 292 292
290 290 291 292 292 293 293 293 292 294 293 295 295 298 299 297 298 298 296 296 297 298 299 299 299 300 300 298 297 294 291 290 290 292 290 289 288 289 289 289 290 291 290 291
290 291 291 291 292 292 292 293 293 293 294 293 295 297 299 298 298 299 299 297 300 301 300 299 300 300 293 291 290 290 289 288 288 290 289 287 286 286 286 286 286 286 287 287
290 291 291 292 291 292 293 294 296 295 296 294 295 296 298 298 299 300 300 301 301 302 301 301 301 300 291 289 288 288 287 286 285 285 284 284 283 283 284 284 284 284 285 286
290 291 293 294 293 294 297 298 297 297 298 298 296 296 297 298 299 300 299 300 301 301 300 301 302 292 289 288 287 286 285 284 283 282 282 281 280 280 281 281 282 283 284 285
293 294 295 295 296 298 298 297 299 300 298 297 296 297 297 297 298 299 301 303 303 301 302 301 294 289 288 287 286 285 283 282 281 280 280 280 280 280 281 282 282 282 282 283
293 294 298 298 297 298 298 299 301 297 297 297 297 297 298 298 300 301 302 301 301 303 301 297 292 288 286 285 284 283 281 280 280 279 279 279 279 279 279 279 279 279 280 281
293 295 298 297 295 294 294 295 295 294 296 298 298 299 298 301 300 302 302 302 300 297 295 290 288 286 285 284 282 281 280 279 279 278 278 278 278 278 278 279 278 278 278 279
290 289 294 293 295 294 293 294 293 292 294 296 297 300 300 301 301 301 299 299 299 293 290 287 286 284 283 282 281 281 280 279 279 278 277 277 277 277 277 277 277 277 277 277
288 289 286 288 291 292 289 289 288 291 293 300 299 301 300 297 298 295 292 294 291 288 286 285 283 283 281 280 280 280 280 279 278 278 277 277 276 276 276 276 276 276 276 276

GFSNW_850_thetae_117.txt.gz
Theta_e
295 295 292 292 291 292 294 299 303 299 298 303 302 303 301 299 302 301 302 302 303 303 303 303 304 305 304 303 303 304 306 307 308 307 310 312 314 308 309 309 309 310 310 312
295 294 292 294 292 292 298 299 300 298 299 305 302 302 301 301 301 302 302 302 303 303 303 303 303 304 303 303 304 304 304 306 308 309 310 310 312 311 309 310 310 309 312 312
294 294 293 295 292 292 298 299 302 299 298 301 303 302 301 301 300 300 300 302 302 303 302 303 303 303 304 303 303 302 304 306 307 309 311 309 311 313 311 311 314 310 311 312
293 295 294 293 292 293 297 299 301 301 301 301 301 301 301 300 300 300 301 301 302 302 301 302 302 303 303 303 303 303 304 306 306 305 306 308 311 314 311 313 314 314 313 312
294 295 294 293 293 293 297 297 299 298 300 300 301 299 300 300 300 300 300 300 301 301 301 301 302 303 303 303 304 304 305 306 305 306 308 309 313 315 313 311 311 312 312 313
295 294 295 294 293 293 296 297 297 298 299 300 301 301 300 299 299 299 298 299 300 300 301 300 301 300 301 303 305 305 306 307 307 306 307 309 315 313 314 315 315 312 314 314
296 294 294 294 293 293 297 297 297 298 301 299 299 298 298 298 299 299 298 298 299 299 298 299 300 302 303 304 305 305 306 306 306 306 308 314 312 310 313 314 314 314 314 315
297 295 294 294 293 294 296 296 296 297 300 298 298 298 298 298 298 298 298 298 298 298 299 302 303 303 304 305 305 305 306 307 308 307 307 309 310 309 309 311 314 316 315 317
297 295 293 293 293 294 295 295 295 296 298 299 297 298 297 299 299 299 298 298 298 298 302 302 303 303 304 303 304 306 306 307 308 307 306 309 308 308 308 310 316 312 313 317
296 294 292 292 293 293 294 295 295 296 296 297 296 297 298 297 298 299 298 298 298 299 302 303 303 303 303 304 304 305 306 308 308 308 308 306 308 308 309 315 314 311 306 312
295 293 293 293 293 293 294 295 295 295 296 297 295 296 296 296 296 298 299 299 300 301 302 302 303 303 303 303 304 305 305 307 310 308 308 309 307 307 310 309 309 306 308 310
295 293 293 292 292 292 294 295 295 295 296 297 297 296 296 295 296 297 298 298 298 299 301 302 302 303 303 303 304 305 307 305 306 306 307 305 303 303 305 305 306 304 310 312
296 294 292 292 291 292 294 295 295 294 295 294 294 295 295 295 295 295 296 297 297 298 298 300 301 301 301 303 303 303 303 304 304 304 305 302 298 297 298 300 300 301 304 307
295 294 292 292 292 292 294 295 295 294 295 296 297 296 296 296 296 296 296 296 298 298 298 299 300 300 300 302 302 301 302 303 302 303 302 300 299 296 296 296 299 299 300 302
295 293 291 291 292 293 294 294 295 295 295 297 297 296 296 296 296 296 297 296 296 296 297 299 299 299 300 301 301 302 301 301 301 302 297 297 298 295 295 295 295 297 297 298
294 292 291 291 292 293 294 295 294 294 295 295 297 297 297 297 297 297 297 297 297 297 297 297 297 298 299 301 302 300 298 297 295 296 295 296 295 296 294 294 294 294 295 294
293 291 293 292 291 292 294 295 296 295 294 295 296 298 298 297 298 298 297 297 297 297 297 297 298 299 300 301 302 301 297 297 295 295 295 296 293 292 292 294 295 294 294 293
291 291 292 292 291 293 294 294 293 294 294 295 297 298 299 298 298 297 296 297 297 297 298 298 299 299 300 301 301 298 296 296 295 295 294 292 292 293 292 292 293 295 294 292
291 291 291 292 292 293 294 294 293 293 294 296 296 299 301 298 299 298 297 297 299 298 300 300 300 301 301 300 298 296 294 293 292 293 293 292 291 291 291 291 290 291 291 291
290 291 293 293 293 293 294 293 294 293 294 295 296 298 300 299 299 300 300 298 300 302 301 300 301 301 296 294 293 292 291 291 290 291 292 289 288 288 289 288 288 288 287 288
292 292 294 294 292 293 294 294 295 295 296 295 296 297 300 299 301 300 300 302 303 303 303 302 303 302 294 292 291 290 289 289 288 287 286 285 284 284 285 286 285 284 284 283
292 293 293 293 294 293 296 297 297 297 298 299 298 298 298 299 299 301 301 301 301 302 302 302 303 294 291 290 289 288 287 286 286 284 284 283 282 281 282 281 280 280 280 283
292 293 293 294 295 296 297 298 298 299 299 300 298 298 298 299 300 301 301 301 302 302 303 303 296 291 290 289 288 286 285 284 283 282 281 281 280 280 281 279 279 280 279 282
293 294 296 298 298 299 299 300 300 300 300 299 298 298 299 299 300 301 303 302 302 304 304 300 294 290 288 287 286 285 282 281 280 280 279 279 278 278 279 280 279 279 279 280
295 294 299 298 297 297 296 297 298 297 298 299 299 300 299 300 301 302 302 303 303 300 299 293 290 288 287 286 284 283 281 280 279 278 278 278 277 276 275 276 277 277 278 279
292 292 296 296 297 295 296 296 295 295 297 299 300 301 300 301 302 302 302 301 302 297 293 289 287 286 285 284 283 281 280 280 279 278 277 277 277 276 275 275 275 276 275 275
291 292 290 292 294 295 293 293 292 292 296 301 300 301 302 301 301 300 298 298 294 290 288 287 286 285 283 282 281 280 280 279 278 277 276 276 276 276 276 277 275 275 274 275

GFSNW_850_thetae_123.txt.gz
Theta_e
296 298 297 294 291 292 299 302 302 303 295 304 305 304 306 302 303 302 302 303 303 303 304 303 303 303 303 304 303 303 303 301 303 302 303 305 307 306 308 312 313 310 308 307
297 297 296 293 291 293 300 301 303 301 300 303 303 304 303 301 302 303 303 303 304 303 302 302 304 302 303 302 303 303 302 299 303 304 304 306 305 306 306 311 312 311 311 309
297 296 294 292 291 295 300 302 302 300 297 301 303 304 303 302 301 301 302 302 301 301 302 303 303 303 302 302 302 302 303 303 305 304 303 304 306 306 307 310 314 312 310 312
297 296 295 292 291 298 299 301 302 302 301 302 302 302 303 303 303 301 300 301 301 301 301 302 302 301 301 301 301 301 301 300 301 303 305 305 306 308 311 312 313 313 313 313
295 296 294 293 292 297 300 299 301 301 300 302 302 302 302 303 302 302 302 301 301 301 300 300 299 299 299 300 300 300 300 301 303 305 305 306 307 310 311 312 312 314 314 314
295 295 294 295 292 293 298 299 299 300 301 300 301 301 302 301 301 301 300 300 299 299 300 299 299 299 299 299 299 299 300 301 303 305 306 306 311 310 309 309 309 310 311 314
295 294 296 294 292 293 298 298 299 299 299 299 300 301 301 302 301 300 300 300 299 299 299 299 299 300 300 300 300 301 301 301 304 306 306 308 308 306 306 309 307 306 306 309
295 295 295 294 292 293 297 298 298 299 298 299 300 300 300 299 299 299 299 299 299 299 299 299 299 300 301 303 304 305 305 305 306 307 308 307 305 303 306 306 309 305 305 305
296 296 296 295 293 292 294 297 297 298 299 298 299 299 299 297 297 298 299 299 299 299 298 297 301 301 302 303 304 305 305 305 304 307 309 310 303 302 302 306 309 304 302 304
296 296 296 296 295 294 294 296 296 297 298 297 298 297 298 299 298 296 298 301 299 299 295 299 300 301 302 303 304 304 303 303 305 306 307 307 300 301 302 304 304 301 299 303
296 297 297 297 295 294 294 295 295 296 298 297 297 299 298 298 298 296 299 298 299 298 297 298 297 300 302 302 303 304 303 303 302 305 306 302 298 300 301 299 299 299 297 301
296 296 297 297 296 295 294 294 295 295 297 297 298 297 298 298 298 297 298 299 299 299 297 300 299 299 297 300 299 301 304 302 302 302 303 300 297 297 296 296 296 297 298 299
297 297 297 297 295 294 294 294 296 296 296 295 295 295 295 296 297 296 297 298 299 299 300 299 296 297 296 297 298 299 302 302 300 301 300 299 296 296 295 295 295 295 297 298
298 297 297 295 294 293 293 294 295 296 296 295 297 298 297 297 296 296 296 297 297 297 298 299 294 296 299 296 298 295 299 299 298 300 299 298 298 294 294 295 294 294 295 296
297 297 297 294 293 293 293 293 295 296 296 296 296 295 297 297 297 297 296 296 296 297 298 294 294 298 297 298 297 293 301 295 294 293 297 297 297 295 293 294 295 294 294 294
297 296 297 294 293 293 292 293 294 295 296 296 293 297 297 298 297 296 297 297 297 297 298 298 298 298 297 294 298 300 301 299 298 298 296 296 296 294 293 293 294 294 293 292
297 297 296 293 292 292 294 295 296 295 295 295 294 296 297 298 298 297 297 297 298 298 298 297 297 297 298 295 298 300 300 298 297 297 296 295 294 293 293 292 293 293 292 291
296 296 295 293 292 292 295 294 296 295 295 296 291 294 298 298 299 298 298 298 298 298 298 298 298 298 298 297 300 300 298 297 296 295 295 293 293 292 291 290 290 290 289 289
296 295 294 292 293 293 295 293 295 296 295 296 295 292 294 299 299 298 297 297 297 297 296 297 297 297 298 300 298 295 295 294 292 293 293 291 290 289 289 288 288 287 286 286
294 293 292 293 293 294 294 294 294 293 294 294 294 296 296 298 299 297 298 298 295 294 298 299 296 297 295 294 293 293 292 291 290 290 288 287 287 286 287 285 285 284 284 284
293 293 294 292 293 294 294 294 293 294 294 295 295 295 296 299 296 294 299 294 295 299 299 300 301 299 294 292 291 290 289 288 287 286 285 285 284 284 284 283 283 282 282 282
293 294 293 293 293 294 292 291 293 294 294 296 296 296 296 297 299 299 299 298 297 298 301 302 298 294 291 290 288 287 287 285 285 284 283 282 282 281 281 281 280 280 281 281
294 293 294 294 294 289 290 291 294 291 297 298 298 295 298 299 300 299 295 298 295 300 297 297 293 291 290 288 287 286 285 284 283 282 281 280 280 280 280 279 279 279 279 280
293 294 292 291 289 291 293 293 294 297 298 299 299 298 300 300 297 297 298 295 296 300 302 295 292 289 288 287 286 285 283 282 281 280 279 279 279 279 279 279 279 278 278 279
295 295 289 291 297 297 298 298 298 298 299 299 298 297 299 296 295 298 298 295 299 299 295 291 289 288 287 285 284 283 281 280 280 279 279 278 278 277 278 278 278 278 278 278
294 293 292 294 297 296 297 298 297 298 299 299 299 297 298 295 296 298 299 299 297 294 290 288 287 286 285 284 283 282 281 280 279 279 278 278 278 278 278 277 277 277 277 277
293 293 292 292 294 294 293 295 295 296 299 296 299 298 298 296 298 298 294 294 291 289 288 287 286 285 283 282 282 281 281 280 279 279 279 279 279 278 278 278 278 277 277 276

GFSNW_850_thetae_129.txt.gz
Theta_e
300 299 299 298 294 292 296 301 301 302 298 304 302 303 306 302 302 302 302 302 302 302 302 301 301 302 300 301 302 301 299 298 301 300 300 301 301 302 303 307 306 307 309 309
299 298 298 294 292 295 301 302 301 301 300 301 302 304 302 303 303 302 303 303 303 302 301 301 301 301 300 300 300 300 300 297 299 300 299 299 300 300 303 308 309 310 313 309
298 297 295 292 293 300 302 301 299 299 301 302 303 304 302 301 302 301 302 301 301 300 300 300 301 301 300 299 299 301 301 299 295 295 297 299 299 300 304 307 307 308 308 307
298 295 292 292 296 301 301 302 299 298 296 299 301 302 303 301 301 300 300 300 300 300 300 300 299 299 298 298 300 298 298 297 298 300 300 299 299 302 305 306 307 307 306 306
296 296 292 292 298 301 300 301 300 301 299 300 301 302 303 302 302 301 300 301 300 299 299 298 298 298 298 298 298 297 296 296 299 300 300 300 301 305 303 307 306 304 303 304
296 295 292 292 299 299 299 299 301 301 299 299 300 301 302 302 300 300 300 299 298 298 298 298 298 298 298 297 297 296 297 298 300 301 301 301 307 302 302 303 304 303 303 303
296 292 291 293 298 299 300 300 301 300 298 299 300 302 302 301 300 300 299 299 298 298 298 298 298 297 297 296 296 297 298 299 299 301 302 300 301 303 300 301 304 300 302 301
297 295 292 296 298 299 300 300 299 299 297 298 299 300 300 299 299 298 298 298 298 298 298 296 298 298 299 301 300 297 298 299 300 304 306 304 303 301 299 300 302 298 300 300
296 294 292 296 298 298 298 299 299 300 298 297 298 298 298 296 296 297 298 298 298 298 296 297 299 298 300 301 302 302 302 301 301 302 304 301 300 300 297 298 301 297 298 298
295 295 294 293 298 298 298 298 298 299 297 298 298 297 298 296 296 295 298 298 298 298 293 298 299 299 300 302 301 303 301 300 302 303 304 300 299 297 297 303 297 297 297 298
296 295 293 292 297 297 298 298 298 298 297 297 298 298 297 297 297 296 297 297 297 295 295 297 296 298 300 300 301 302 300 299 296 299 300 299 297 297 298 297 296 296 296 297
295 296 294 292 293 296 297 297 297 297 296 297 297 297 298 297 297 298 297 297 297 297 296 296 296 298 293 297 297 297 297 296 296 297 297 298 297 296 295 295 295 295 295 295
296 297 296 296 294 293 294 295 295 294 294 295 295 295 297 297 297 297 298 297 298 299 298 295 293 295 293 294 296 293 296 300 297 298 297 298 297 296 295 294 295 294 294 294
296 296 297 297 296 295 295 294 294 295 295 294 296 296 295 296 296 296 296 297 298 298 298 297 291 295 296 294 295 292 293 295 294 297 298 298 297 296 294 294 294 294 293 293
296 296 297 297 297 295 295 294 295 295 295 294 296 296 297 296 295 295 296 296 296 296 297 291 293 296 295 294 294 290 296 292 292 293 297 296 297 296 294 293 294 294 293 292
297 296 296 297 296 294 294 294 295 295 295 295 291 296 297 297 296 296 296 296 295 296 296 296 296 297 296 292 295 296 298 298 298 297 296 296 296 294 293 292 293 292 292 291
297 296 297 297 295 294 294 294 294 295 295 294 291 294 297 297 296 296 296 296 296 296 296 295 295 296 296 291 295 297 298 298 297 296 296 296 294 293 293 291 291 291 290 289
297 297 296 295 293 294 294 295 294 295 295 295 289 292 297 297 296 296 296 297 297 297 297 296 295 296 295 295 295 296 297 296 295 295 296 294 293 292 292 290 289 289 287 286
297 296 294 293 293 294 295 295 295 295 295 294 291 292 292 298 297 297 297 297 293 295 294 294 295 295 296 296 298 298 298 296 293 292 291 290 290 289 289 288 287 286 285 284
296 294 293 292 294 295 295 295 295 295 295 294 291 293 290 297 296 294 294 295 291 291 294 296 294 295 292 292 293 292 291 292 291 291 289 288 287 286 285 285 285 284 283 283
294 293 292 293 294 294 293 292 290 291 291 293 293 294 293 297 294 291 295 292 292 294 295 295 297 295 292 288 289 290 290 291 291 289 287 286 285 284 283 283 282 282 282 282
294 293 293 294 294 293 288 285 289 292 293 292 292 294 295 297 297 296 294 294 294 297 297 299 296 289 286 288 288 289 288 287 286 285 285 284 282 282 281 281 281 281 281 280
293 293 293 293 291 290 288 290 292 290 293 293 294 289 294 296 297 297 292 295 295 295 294 292 288 287 287 287 288 286 286 285 285 284 283 281 281 280 279 279 279 279 279 280
293 293 292 286 290 288 289 290 290 293 294 295 295 295 295 297 295 297 294 292 296 289 292 294 288 287 287 287 287 287 286 285 284 282 281 280 279 279 278 278 278 278 278 278
293 291 288 289 289 291 292 293 293 294 296 296 297 297 297 292 292 295 295 298 298 293 295 285 288 288 288 287 286 285 284 282 281 281 280 279 279 278 278 278 277 277 277 277
293 292 291 291 292 292 294 293 294 296 297 297 297 297 294 296 293 297 297 294 289 290 286 287 288 288 287 286 285 283 282 281 280 280 279 279 278 278 277 277 277 276 276 276
291 290 290 291 293 294 294 295 294 295 297 291 297 294 295 292 294 298 294 289 283 286 286 287 288 288 286 285 283 282 281 280 280 279 279 279 279 278 278 278 278 277 277 276